GFSFLT1_sfc_wetblb_000.txt.gz
Wetbulb
53.74 54.66 56.45 55.80 58.32 58.09 58.21 59.45 59.35 56.22 51.79 52.44 51.70 52.03 52.80 51.40 50.64 51.88 52.23 51.37 51.25 50.17 50.11 50.13 50.20 48.89 47.59 47.36 46.63 46.88 46.89 46.59
52.95 53.23 53.28 52.98 52.86 52.69 53.24 53.94 54.84 51.87 50.44 50.22 51.32 49.10 49.77 49.46 49.42 50.67 51.03 51.29 51.01 49.65 48.73 48.95 48.43 47.01 46.10 45.95 45.81 45.41 45.51 45.63
51.11 51.08 51.38 50.80 50.63 51.63 51.85 51.04 50.57 50.87 51.67 50.98 50.75 48.90 48.65 49.14 51.84 51.49 50.53 50.07 49.49 49.14 47.05 46.10 46.62 45.48 44.70 44.34 44.82 43.90 44.30 44.63
50.01 50.25 48.63 47.87 47.94 48.94 49.26 48.73 48.90 49.89 50.70 49.02 48.97 49.07 49.21 48.88 48.09 47.51 48.47 47.71 47.24 46.31 45.58 45.52 45.03 44.76 43.64 43.45 43.86 43.34 42.22 43.11
49.84 48.71 47.94 48.08 47.25 47.51 48.14 48.81 48.64 48.84 48.70 47.65 47.89 46.72 45.67 46.66 46.09 45.01 44.19 45.30 45.66 45.57 44.85 44.60 44.36 44.10 42.69 43.01 44.99 42.88 42.40 40.88
48.19 48.38 48.78 48.14 47.75 47.56 47.51 48.51 48.54 48.24 48.06 47.22 46.78 45.05 44.23 44.40 44.08 42.36 42.47 43.34 44.30 43.95 43.71 43.36 43.27 43.04 42.15 41.89 42.42 41.64 41.71 40.72
48.18 48.95 49.20 48.25 47.46 46.89 46.39 47.08 47.91 47.86 46.89 46.58 46.60 43.85 42.98 42.24 40.89 40.27 40.89 42.00 42.43 42.69 43.07 41.49 40.59 40.69 40.27 39.94 39.18 39.49 38.78 38.52
47.55 47.87 47.56 47.36 47.23 47.32 47.24 47.72 48.10 47.73 46.54 44.93 43.75 42.53 41.64 40.32 40.21 41.25 41.13 41.99 41.89 41.40 41.04 40.43 39.92 39.91 39.39 38.79 38.06 37.41 38.05 37.47
46.78 46.74 46.42 46.48 47.15 47.03 46.61 45.53 43.68 44.54 43.80 42.85 42.83 43.29 44.06 43.75 43.18 40.02 41.82 41.13 40.34 40.72 40.37 39.93 39.48 39.37 38.48 37.69 36.77 36.38 36.40 35.57
45.69 45.63 46.20 46.33 46.29 45.55 46.32 45.53 43.73 43.09 43.38 43.27 44.44 45.36 44.99 44.51 44.44 41.74 42.19 40.16 41.49 39.59 39.25 38.09 38.02 37.61 37.53 37.23 35.35 34.82 34.32 33.94
44.95 45.09 45.01 45.11 45.54 46.71 47.15 45.82 43.35 42.39 42.81 44.38 45.73 45.39 44.52 42.84 40.85 39.73 39.01 38.94 39.63 38.78 37.49 36.79 36.89 36.67 36.17 36.15 34.92 34.37 33.85 33.49
43.80 43.85 44.16 43.51 43.54 43.33 43.25 42.98 43.71 42.68 42.45 42.72 42.04 41.79 41.35 40.58 39.48 39.42 38.63 38.62 39.58 39.68 38.45 36.60 35.39 34.70 34.04 33.00 33.54 34.18 33.81 32.24
43.52 42.82 42.57 41.81 40.97 40.83 40.02 41.26 41.80 41.71 42.03 42.36 41.92 41.61 40.71 39.34 38.45 37.55 37.86 37.58 37.67 37.42 37.71 36.31 34.15 33.01 32.29 31.41 31.86 31.36 29.72 28.74
41.71 41.34 40.82 40.23 39.32 38.72 37.54 37.45 36.93 37.76 38.84 40.12 40.87 41.39 41.22 37.95 36.90 37.41 36.94 35.76 36.11 36.31 35.41 33.83 32.67 32.82 32.15 30.97 29.94 28.73 27.16 27.04
40.63 40.11 39.16 37.83 36.99 36.48 36.41 36.59 36.46 36.38 36.17 36.18 36.00 37.21 39.18 36.43 35.60 35.91 37.60 37.93 38.12 34.82 33.52 33.48 33.45 32.10 31.27 29.61 28.34 26.33 26.17 26.51
40.71 39.48 37.29 35.32 35.53 35.43 35.70 35.68 36.08 36.34 35.53 34.94 36.59 38.14 37.28 37.17 38.24 37.44 37.94 37.79 37.97 34.11 32.92 32.30 31.09 31.10 29.68 26.87 26.93 25.99 25.25 25.44
39.33 38.44 36.06 36.03 35.67 34.34 35.18 34.95 35.37 35.78 34.66 35.98 38.35 38.38 38.00 37.28 36.62 37.27 36.46 36.78 32.67 32.16 31.11 30.33 29.20 30.68 30.72 30.47 27.77 24.77 25.06 24.35
38.16 36.37 35.62 35.01 34.03 34.65 33.61 34.20 35.07 34.82 34.39 36.84 36.96 37.63 37.00 36.76 37.25 36.77 36.23 32.33 32.16 30.22 29.48 28.94 27.35 27.26 30.82 31.11 30.12 25.26 24.18 23.27
36.95 34.76 34.49 34.21 33.72 33.63 34.16 34.09 33.72 33.90 35.20 35.65 36.19 35.84 35.57 35.72 36.38 35.11 34.33 32.84 30.79 28.32 27.30 27.85 27.19 28.55 31.25 31.79 29.73 26.16 25.31 24.90

GFSFLT1_sfc_wetblb_003.txt.gz
Wetbulb
51.75 53.38 54.48 54.60 54.64 56.93 58.19 57.58 58.49 55.32 53.37 52.37 51.22 51.97 51.47 51.38 49.88 49.60 49.81 49.46 49.74 48.87 48.18 47.92 47.62 46.10 45.17 44.50 43.83 44.82 44.71 44.54
50.46 50.78 51.30 51.41 51.79 52.82 54.31 53.81 53.30 53.21 52.23 51.51 50.54 49.54 49.57 49.56 49.05 49.55 48.70 48.06 48.34 46.60 45.94 45.85 45.44 44.24 43.27 43.91 43.77 43.18 42.81 43.52
49.41 49.55 49.57 49.15 49.93 50.99 51.36 51.42 50.24 50.51 50.71 49.80 51.08 50.00 49.08 50.68 49.88 48.44 47.29 46.52 45.53 46.03 44.84 44.43 43.83 43.17 42.62 42.27 42.02 41.82 42.11 42.82
48.81 48.29 46.00 46.16 46.96 47.56 48.07 48.11 49.06 49.43 51.41 50.52 48.13 47.45 47.37 45.87 44.67 44.46 43.93 45.76 44.84 44.30 44.09 43.71 43.02 42.28 41.31 41.37 41.82 41.22 40.28 41.52
47.21 46.25 45.36 45.50 44.96 45.64 46.25 47.18 47.13 47.72 47.52 46.92 46.46 45.95 44.75 44.30 43.72 41.47 41.92 43.85 43.27 43.47 42.94 42.36 41.68 41.18 40.32 41.53 41.72 39.84 39.86 38.27
46.42 46.52 46.79 45.93 45.72 45.31 45.66 46.96 47.43 47.02 46.51 46.32 45.61 43.71 42.01 42.82 41.02 40.16 40.66 41.93 42.07 42.55 41.39 41.84 40.98 40.09 39.05 38.37 38.31 37.50 37.71 36.78
46.43 47.35 47.48 46.44 44.77 44.35 43.94 45.52 46.19 46.43 45.76 44.79 43.96 41.44 41.10 39.36 38.73 39.09 39.30 40.69 41.22 41.68 42.28 40.73 39.45 38.72 37.96 37.35 36.58 36.14 35.77 35.63
47.93 47.25 45.00 44.65 44.05 44.20 45.81 45.19 43.94 43.24 42.44 41.85 41.56 40.44 39.42 39.51 39.68 39.53 41.04 41.65 41.49 40.43 39.56 38.65 38.29 38.19 37.45 36.80 35.50 34.61 34.76 33.44
43.74 43.65 43.69 43.58 43.88 42.63 42.09 42.33 41.83 41.89 41.90 41.39 41.57 41.76 41.59 41.77 43.28 42.85 40.71 39.41 39.15 39.40 38.61 38.05 37.76 37.62 36.73 36.15 34.70 34.13 33.29 31.87
43.22 43.48 43.54 43.05 43.19 43.28 42.11 41.09 40.87 41.47 42.01 41.91 42.28 43.36 42.89 42.02 41.55 39.91 38.54 38.56 40.18 39.02 38.41 38.90 39.34 37.88 36.55 35.70 34.58 32.68 32.83 32.05
42.49 42.18 41.66 41.88 42.17 42.09 42.18 41.92 40.85 40.91 40.68 41.18 42.16 41.11 40.86 40.28 39.66 39.13 38.46 38.25 40.87 40.08 40.02 39.08 37.15 36.96 36.50 34.59 33.15 32.89 32.76 31.80
41.62 41.36 41.52 40.72 39.96 39.68 39.04 39.44 38.34 37.15 37.88 39.18 39.32 39.47 39.66 39.23 38.53 38.37 37.71 38.31 38.04 37.89 38.51 36.94 36.65 35.17 33.85 32.30 31.34 32.88 32.74 30.29
41.23 40.74 40.69 40.03 37.27 36.06 36.19 35.39 35.06 35.33 36.36 36.99 37.12 37.43 37.30 37.12 37.39 36.43 37.40 37.44 35.33 35.15 35.79 36.90 34.50 33.03 32.11 31.95 31.47 30.65 28.33 27.21
39.96 39.04 38.94 36.73 36.34 36.57 35.14 34.84 33.72 33.76 33.64 33.42 33.84 34.90 35.11 35.43 34.27 34.37 35.68 36.14 37.26 36.96 36.38 32.98 32.19 33.14 32.31 31.14 30.04 28.02 26.63 26.63
39.07 37.98 37.33 36.58 35.80 34.86 34.14 34.22 34.32 34.07 33.18 33.26 34.87 35.45 35.00 33.87 33.45 34.26 35.49 36.67 35.89 34.20 34.33 32.37 32.62 31.98 30.94 29.82 27.70 26.24 26.20 26.60
38.90 36.82 35.73 35.00 33.84 33.74 33.59 33.91 34.36 34.33 33.48 33.74 34.79 35.43 35.64 35.23 34.61 34.81 34.94 35.56 35.03 34.68 32.21 30.88 30.74 30.48 29.53 27.06 27.01 26.42 25.43 24.89
39.36 37.75 35.21 34.22 33.65 32.81 33.70 33.55 33.71 34.33 33.12 34.06 35.67 35.38 35.37 35.54 35.30 34.99 37.39 35.53 34.82 29.97 28.94 28.86 28.33 29.69 31.56 31.33 29.44 25.18 25.34 24.60
37.27 35.02 33.60 33.44 32.91 33.31 32.16 32.72 33.58 33.32 32.86 34.84 35.28 35.26 34.73 34.42 34.94 35.47 34.11 32.92 28.66 28.65 27.60 27.56 27.06 26.88 31.30 31.88 32.26 27.87 26.35 23.92
36.41 33.51 32.59 32.63 32.35 32.07 32.53 32.52 32.39 32.34 32.32 34.12 34.23 34.26 33.50 33.72 34.04 33.80 33.07 34.92 32.40 26.03 26.77 27.16 26.87 29.14 31.45 30.79 29.06 24.71 24.33 23.46

GFSFLT1_sfc_wetblb_006.txt.gz
Wetbulb
50.80 52.25 53.00 55.09 57.11 58.58 58.24 57.74 56.78 56.01 55.34 54.84 54.17 51.12 51.04 51.35 50.90 50.05 48.92 49.13 49.73 49.00 46.91 45.33 44.83 43.68 43.04 43.12 42.94 43.09 43.24 43.28
49.81 50.72 52.13 52.41 53.06 53.28 54.43 54.41 54.94 53.53 51.21 50.53 49.68 49.48 50.86 52.15 48.12 47.48 47.01 47.58 45.47 44.49 44.00 43.77 43.48 42.35 41.61 42.58 42.02 41.75 41.77 42.69
48.59 48.12 48.52 49.98 51.51 52.78 52.96 51.91 50.69 51.16 50.28 49.30 51.58 51.34 49.49 46.69 45.91 44.32 44.58 44.50 44.07 44.62 43.29 42.67 42.15 41.63 41.30 41.26 40.99 40.65 40.71 41.83
46.61 45.83 44.80 45.92 47.37 47.45 47.61 47.83 48.12 48.77 50.18 49.60 46.65 46.43 46.20 43.88 43.39 41.33 42.48 43.29 43.03 42.68 42.78 42.11 41.19 40.81 40.61 40.10 40.07 39.70 38.82 39.70
45.06 44.39 44.27 44.00 43.26 44.32 45.52 46.54 46.34 46.72 46.33 45.82 45.12 43.95 42.84 42.38 40.68 39.71 40.79 42.19 42.33 42.55 41.89 41.07 40.35 39.90 40.08 40.05 39.60 38.35 38.68 35.26
45.81 45.13 45.26 44.48 45.20 44.36 44.08 45.59 45.70 45.49 45.12 45.23 43.93 41.20 41.42 40.72 39.31 39.63 39.77 41.08 41.65 41.28 40.76 40.22 39.62 38.87 37.94 37.58 36.33 35.48 36.08 34.99
44.93 45.78 46.44 45.43 43.79 43.44 43.71 44.54 43.32 43.78 42.99 42.74 41.99 40.83 39.62 38.72 39.40 39.65 40.16 39.94 40.25 40.32 40.38 38.91 38.40 37.65 36.91 36.21 35.37 34.87 34.45 34.27
44.59 45.12 44.26 41.95 41.50 41.81 43.01 41.82 41.06 41.74 41.50 41.38 41.15 40.68 39.23 39.82 39.68 39.09 39.30 40.10 39.71 38.94 38.46 37.90 37.38 37.42 37.60 35.91 34.55 33.82 32.93 31.73
42.83 41.81 41.73 42.11 41.99 40.49 40.08 40.14 39.87 40.55 40.71 40.29 40.39 40.31 39.85 40.55 40.60 39.88 40.23 38.33 37.88 38.23 38.08 36.94 36.88 39.33 37.31 38.32 36.31 33.43 33.16 31.37
41.32 41.46 41.30 41.23 41.29 40.62 39.68 39.82 39.65 39.77 39.72 39.93 39.80 39.69 39.28 38.87 39.18 38.80 38.25 38.25 39.16 38.11 36.90 39.00 38.89 38.10 37.03 36.07 33.85 34.23 33.05 32.27
40.58 39.82 39.64 39.64 39.37 40.13 40.18 38.61 36.38 36.50 36.24 37.12 36.97 36.48 36.77 36.76 36.62 36.49 37.18 37.38 38.31 39.34 38.06 38.89 37.69 37.05 36.38 35.72 32.91 32.64 32.40 31.87
38.95 38.67 38.28 37.62 38.89 38.57 37.80 35.40 35.35 35.21 35.15 35.40 35.33 35.48 35.66 35.50 35.16 35.79 36.03 36.19 37.59 37.15 37.16 37.34 34.98 34.87 34.20 31.50 30.57 30.51 31.43 30.94
38.73 38.47 38.69 37.65 36.16 36.52 34.64 34.62 34.97 34.48 34.22 34.58 34.32 34.70 34.81 34.16 34.14 34.19 34.77 34.98 34.78 35.85 35.60 35.25 34.94 33.43 31.26 29.82 29.70 30.22 28.82 27.61
38.10 37.61 37.24 36.40 35.49 34.68 35.67 35.71 33.97 32.93 32.54 32.19 33.20 33.82 33.77 33.44 32.87 32.93 33.47 33.10 33.89 34.55 35.88 34.00 32.32 31.07 30.29 29.75 29.57 28.62 27.04 26.60
37.26 36.78 35.99 34.32 35.43 36.30 35.28 33.59 33.40 33.04 32.10 32.06 32.96 33.22 33.56 33.22 33.55 32.97 33.01 34.00 34.71 35.89 33.61 33.20 31.48 30.31 29.97 29.39 28.12 26.64 26.22 26.64
37.21 35.88 33.31 35.60 35.47 33.74 33.32 32.86 33.18 33.21 32.40 32.12 32.98 33.87 33.79 33.90 33.92 34.09 34.05 34.24 36.43 33.80 33.39 30.46 28.92 29.58 29.31 27.38 27.12 26.54 25.75 25.40
38.81 37.08 36.03 34.90 33.70 32.71 32.39 32.36 32.75 32.93 32.24 31.90 33.86 34.21 34.33 33.86 33.87 33.90 34.18 36.84 34.58 29.42 26.93 27.81 27.87 29.07 32.04 32.18 31.23 28.04 26.39 25.49
38.07 37.28 35.65 34.42 32.77 32.53 31.50 31.75 32.09 32.03 31.82 32.59 33.52 33.77 33.46 32.93 33.21 32.90 33.02 32.17 30.41 29.06 27.48 27.85 26.60 28.58 32.15 31.71 30.08 26.17 24.90 24.24
37.15 36.20 33.36 32.13 31.47 31.39 31.36 30.93 30.95 30.89 31.11 31.67 32.84 32.84 32.16 32.19 32.15 32.10 31.81 32.01 31.34 26.35 26.49 26.42 27.12 27.56 29.52 29.19 27.73 23.77 22.96 22.36

GFSFLT1_sfc_wetblb_009.txt.gz
Wetbulb
54.59 56.74 58.79 61.06 61.68 61.83 61.23 61.48 60.76 59.41 57.35 56.21 55.59 55.32 54.89 55.21 53.62 51.13 52.36 52.61 52.64 52.87 52.05 51.88 51.91 51.04 50.46 50.57 49.69 49.55 49.11 47.92
54.59 56.30 58.44 58.82 60.15 59.85 59.46 59.03 58.72 58.43 55.94 55.43 55.51 55.26 54.53 51.75 51.97 51.76 51.56 51.63 51.47 51.77 50.98 50.86 50.84 50.03 49.81 49.86 49.25 46.82 46.58 48.07
52.48 55.03 57.59 58.66 58.56 58.48 58.33 57.62 56.72 56.64 56.81 56.73 57.45 56.53 53.54 51.04 50.42 50.10 50.16 50.31 50.10 50.12 50.66 50.43 50.49 49.89 49.34 48.63 47.55 45.90 46.64 47.40
51.34 52.80 54.79 56.17 55.13 55.41 55.59 55.44 55.62 55.25 55.61 55.21 53.66 53.46 52.61 50.99 49.34 49.18 49.41 49.82 49.92 50.24 50.32 50.57 49.98 49.52 48.37 47.66 46.87 45.64 43.61 45.25
49.41 49.11 49.57 50.52 50.46 52.10 52.68 52.66 52.61 52.00 52.38 52.61 52.33 51.93 50.95 49.52 48.45 49.28 49.96 49.67 49.58 48.81 48.85 48.89 48.68 48.27 47.02 46.31 45.32 44.55 43.77 40.57
48.68 49.27 50.07 50.06 50.58 50.85 50.91 50.85 50.34 50.50 51.34 51.52 50.62 49.45 49.04 48.42 49.06 47.90 48.18 48.74 48.41 47.65 47.18 47.22 46.82 46.35 45.39 44.69 43.47 42.46 42.36 40.41
49.41 49.76 50.20 49.32 49.84 50.33 49.69 48.72 48.09 49.09 49.60 49.69 49.90 49.02 47.55 47.53 47.42 47.20 47.65 48.20 48.60 47.89 46.30 46.40 45.70 45.11 44.02 43.48 42.96 41.25 41.15 40.65
48.74 48.91 48.17 48.11 48.25 48.12 47.48 47.43 46.40 47.66 47.65 47.30 47.07 46.62 46.93 46.77 46.37 45.97 45.76 45.95 46.24 47.04 45.97 45.16 44.35 43.34 42.79 43.42 42.18 41.19 40.47 39.38
48.50 47.26 46.95 46.48 46.05 46.32 46.77 46.62 45.82 46.32 46.59 46.07 45.99 44.83 43.75 43.17 42.89 42.84 42.58 42.85 43.56 45.74 45.38 43.96 43.59 43.76 43.21 42.17 41.85 41.00 40.90 39.83
47.14 46.54 46.19 46.07 45.85 45.92 45.53 43.73 43.02 43.14 43.34 43.12 42.60 42.54 42.16 41.66 41.93 42.29 41.79 42.96 43.63 44.82 43.95 43.57 44.04 43.02 42.42 41.85 41.04 40.59 40.11 39.93
45.52 44.76 45.06 45.76 45.73 43.95 43.22 42.98 41.93 41.39 42.06 42.16 41.52 41.44 41.80 42.06 41.91 41.12 41.40 42.50 43.62 44.33 43.47 43.24 42.24 43.31 41.88 41.19 40.33 40.16 38.73 39.04
43.51 43.51 43.60 44.56 43.24 42.36 41.52 41.01 41.71 41.04 41.23 41.19 41.35 41.36 41.57 41.57 41.03 40.89 41.03 41.88 42.87 43.33 43.24 41.96 42.21 41.13 40.81 39.76 39.20 38.10 37.21 38.01
43.22 42.48 41.68 41.40 41.28 40.87 39.83 41.46 41.18 40.48 40.54 40.78 40.57 40.80 40.95 40.50 40.22 40.33 40.84 40.46 41.40 41.19 40.29 40.39 40.00 40.19 40.44 38.60 37.34 37.35 36.79 36.01
42.36 41.18 40.39 40.25 40.13 40.11 40.88 40.24 39.56 39.68 39.46 39.73 39.88 39.82 39.78 39.96 39.92 40.09 40.30 39.98 39.61 39.88 39.97 38.47 38.53 38.89 37.87 37.01 36.37 36.05 34.96 34.25
42.53 41.45 40.09 40.21 40.01 40.55 39.59 40.11 39.92 39.46 38.85 38.80 38.81 39.59 39.79 39.72 39.76 39.81 39.89 40.05 40.02 40.18 38.97 38.74 39.33 37.25 35.96 35.95 35.10 34.16 33.33 33.02
41.15 40.69 39.64 39.69 38.70 39.92 40.40 39.86 39.52 39.51 38.60 38.39 38.57 39.50 39.97 39.73 39.42 39.17 39.42 39.92 40.46 39.15 36.80 35.42 35.08 35.19 34.27 34.20 33.61 33.17 33.06 32.43
41.62 41.12 40.04 38.72 39.73 40.74 39.33 38.87 38.75 38.57 38.17 38.07 38.63 38.56 39.19 39.16 38.69 38.51 38.82 39.29 39.11 36.72 35.85 34.59 33.65 33.31 33.02 32.91 32.28 31.82 30.43 29.04
41.59 41.28 40.99 40.46 40.25 39.60 38.99 38.49 38.03 37.08 36.86 37.32 37.61 37.67 38.06 38.21 37.70 37.37 37.67 38.21 38.73 38.17 34.77 34.23 33.90 33.47 30.87 30.11 28.43 29.43 28.24 27.45
41.71 41.99 41.64 40.93 39.50 38.35 37.79 36.97 36.24 35.85 36.27 36.47 37.02 37.33 36.91 37.33 36.74 36.60 37.36 37.63 37.13 37.11 34.42 33.45 32.61 30.91 28.75 27.98 27.03 28.33 27.56 26.47

GFSFLT1_sfc_wetblb_012.txt.gz
Wetbulb
60.15 61.82 63.40 64.81 65.80 66.45 66.13 64.30 64.12 64.44 63.63 60.25 58.23 58.25 58.83 59.58 58.82 57.66 56.97 56.92 56.54 57.53 56.60 55.74 55.13 54.33 53.81 53.47 52.89 53.08 51.83 51.45
61.26 62.22 63.95 64.53 65.02 64.92 65.21 64.17 64.33 64.02 62.57 60.46 58.47 58.33 59.22 58.00 57.31 56.01 55.61 55.43 54.86 54.99 54.86 54.40 54.41 53.34 52.92 52.99 51.91 51.09 50.34 51.22
60.04 62.35 63.55 64.21 64.37 64.52 64.22 63.78 63.84 63.58 62.15 60.89 61.18 60.42 59.23 56.67 56.22 55.20 54.58 54.13 53.76 53.44 53.95 53.17 53.11 52.13 52.40 51.91 50.75 48.96 48.83 49.99
59.94 60.91 61.79 62.55 62.26 62.62 62.06 61.40 60.79 60.58 60.48 59.90 59.16 58.42 56.79 56.05 55.33 55.11 53.92 53.75 53.59 53.34 53.27 52.89 52.48 51.64 50.01 50.61 49.95 48.65 46.51 47.92
57.88 57.77 58.90 58.83 58.87 60.09 59.70 59.14 58.21 57.25 56.91 57.34 56.98 56.46 55.76 54.44 55.08 54.52 54.08 53.34 53.27 53.06 52.51 52.27 51.57 50.73 50.00 49.81 48.95 47.72 46.01 43.76
55.17 55.74 56.00 56.08 56.83 56.83 56.76 56.17 55.83 56.43 56.61 56.80 55.71 54.09 53.64 53.56 54.00 52.31 53.05 53.45 53.46 52.46 51.92 51.29 50.63 50.09 49.76 48.86 47.46 45.98 45.88 44.31
54.07 54.61 54.65 54.85 55.76 55.86 55.88 54.87 54.44 54.81 54.73 54.48 53.84 52.35 51.53 51.36 50.73 49.88 49.26 48.73 48.47 48.67 48.37 50.17 50.45 49.75 48.84 47.61 46.86 45.70 44.64 43.46
53.34 53.23 53.69 54.03 54.35 54.23 54.01 53.49 52.29 53.08 52.97 52.19 51.65 50.63 48.88 47.14 46.09 45.30 44.78 44.60 44.96 45.85 47.01 47.81 48.62 48.60 47.48 46.79 45.05 44.66 43.39 41.85
53.79 53.76 53.64 53.50 52.85 52.92 53.21 52.42 51.22 50.88 49.71 48.27 47.97 46.23 46.15 45.61 45.26 45.08 44.55 44.21 44.51 46.15 47.26 48.00 47.96 47.37 45.93 44.43 45.41 44.25 43.09 42.01
53.40 52.84 52.50 52.24 52.38 52.53 51.72 50.02 48.52 47.98 47.76 45.74 45.14 46.45 45.60 45.21 45.52 45.64 44.77 44.79 44.25 45.80 47.64 47.57 46.38 45.87 44.88 45.45 44.28 42.87 42.39 41.61
52.79 52.13 51.72 52.11 51.97 50.34 49.95 48.92 47.64 46.90 45.12 46.13 45.88 45.58 45.62 45.73 45.65 44.44 44.13 44.50 44.69 45.21 46.32 46.03 45.61 44.25 43.91 44.25 42.81 42.25 40.96 40.69
51.97 51.33 51.45 51.31 50.16 49.10 48.00 47.49 46.18 43.69 45.72 45.83 45.90 45.83 45.43 45.36 44.66 44.17 43.77 44.13 43.82 43.79 44.77 44.92 43.83 43.27 43.08 42.97 42.45 40.69 39.49 39.68
51.57 50.34 50.18 49.39 48.22 47.55 46.86 46.48 45.85 45.72 45.34 44.90 45.36 45.67 45.18 44.23 44.20 43.69 43.80 43.31 43.61 43.20 43.16 42.97 43.09 42.76 42.51 42.09 41.03 39.78 39.11 38.74
49.96 49.00 48.25 47.65 46.86 46.21 45.72 45.23 44.00 44.97 44.32 44.60 45.21 44.64 44.02 43.65 43.52 43.52 43.16 42.96 42.94 43.26 43.03 42.27 41.96 41.74 41.79 41.19 39.90 39.33 39.07 38.74
48.87 47.61 47.16 46.77 46.02 45.91 45.30 44.71 46.67 44.95 44.05 43.71 43.47 43.56 43.69 43.78 43.54 43.09 42.65 42.57 42.39 42.68 42.47 42.23 42.28 41.46 40.69 39.48 38.99 38.62 38.33 38.01
47.95 47.69 47.15 46.38 45.80 46.34 45.63 47.16 45.81 45.04 43.47 43.25 43.22 43.65 43.79 43.60 43.06 42.38 42.35 42.25 42.15 42.45 40.99 40.39 39.75 39.29 38.07 37.93 37.82 38.11 37.41 36.23
48.07 48.06 47.52 46.08 45.80 45.05 46.16 45.70 44.50 44.02 43.18 42.79 43.12 42.97 42.21 42.48 42.10 41.88 41.57 41.38 41.69 41.74 41.38 40.47 39.75 38.72 32.64 31.68 31.69 35.63 35.02 33.99
48.13 48.15 47.72 46.37 45.63 45.67 45.58 44.74 44.13 42.74 42.06 41.76 41.52 41.33 41.07 41.32 41.34 41.11 40.66 40.51 41.23 40.74 40.85 40.30 39.28 38.91 30.97 29.26 28.79 34.17 33.70 32.76
49.34 49.05 47.66 46.80 45.67 45.75 45.67 43.37 42.05 41.07 40.60 40.57 40.82 40.33 39.99 40.55 40.78 40.59 40.61 40.71 40.13 39.60 39.55 39.47 38.44 35.05 28.65 27.67 27.41 33.56 32.88 31.80

GFSFLT1_sfc_wetblb_015.txt.gz
Wetbulb
62.98 63.58 64.04 64.60 65.93 67.56 67.38 66.69 65.64 64.55 63.52 64.28 64.44 63.36 61.97 61.33 61.08 59.81 59.07 58.37 57.86 58.25 58.00 56.99 56.55 55.71 55.27 55.09 54.23 54.12 52.97 52.15
63.12 64.12 65.25 65.34 66.52 66.80 64.62 64.06 64.19 64.32 64.23 63.22 61.08 59.99 60.53 60.29 59.32 58.18 57.74 57.20 56.54 56.47 56.35 56.16 55.95 54.64 54.11 54.13 53.09 51.40 49.43 50.68
62.28 63.85 65.12 65.38 65.60 65.83 63.94 64.62 64.40 64.97 63.92 62.19 61.49 61.32 60.76 58.82 57.96 57.35 56.68 56.38 56.01 55.47 55.35 54.73 54.59 53.23 53.00 52.17 51.12 49.24 48.78 49.28
61.53 63.02 64.12 64.52 64.23 64.63 64.65 64.48 64.34 63.17 62.21 61.91 61.63 60.41 58.27 57.06 56.67 56.23 55.86 55.70 55.15 54.84 54.59 54.07 53.61 52.46 50.14 50.89 50.22 49.26 46.22 47.54
61.95 62.40 62.73 63.22 63.41 63.86 62.89 62.07 61.16 61.14 60.79 59.28 58.49 58.41 56.19 56.09 55.98 55.79 55.55 55.35 54.78 54.08 53.04 52.68 52.04 51.07 49.94 49.53 49.45 48.38 47.16 44.37
59.87 59.99 60.12 60.53 60.82 60.64 60.48 59.30 58.11 58.49 58.89 58.84 57.77 56.06 55.52 55.05 55.52 53.27 53.62 52.67 51.00 49.66 49.06 48.97 49.40 50.06 50.09 49.74 49.01 47.90 47.09 45.31
58.07 58.35 58.11 57.85 58.69 58.48 58.14 57.42 57.09 57.54 57.30 56.80 55.65 53.96 52.63 51.51 49.52 48.03 47.48 47.26 47.45 47.78 47.40 48.04 48.23 48.94 49.31 49.07 48.51 47.45 46.15 44.87
55.77 55.45 55.71 56.36 56.74 57.12 56.87 56.28 55.12 55.66 54.82 53.53 52.44 50.36 48.89 47.20 46.67 45.97 45.71 45.51 45.70 46.31 46.82 47.46 47.68 48.15 48.68 48.02 46.66 45.51 45.20 43.29
55.10 55.54 56.01 56.01 56.10 56.11 55.75 55.23 54.08 53.10 51.37 50.00 49.02 47.63 46.04 46.90 46.62 46.39 45.79 45.23 45.47 46.19 46.50 47.69 48.25 48.10 47.29 46.48 45.91 45.65 44.64 43.36
55.25 55.78 56.33 56.15 55.60 55.24 55.44 54.35 52.11 50.54 49.67 48.73 47.62 47.61 46.82 47.00 46.59 46.72 45.53 45.64 44.88 45.51 46.17 46.56 47.24 47.04 45.92 46.25 44.66 44.27 44.06 43.12
55.38 55.70 55.48 55.66 55.41 55.35 54.56 52.77 50.52 50.21 48.19 47.58 46.99 46.84 47.43 47.59 47.31 45.51 45.00 45.20 45.15 44.95 44.76 45.09 46.01 46.00 46.39 45.08 44.36 43.95 42.24 42.19
55.46 55.14 55.00 54.95 55.15 53.54 52.16 50.93 50.32 48.17 47.79 47.11 47.37 46.93 47.07 47.21 46.38 45.60 45.07 44.90 44.61 44.09 44.18 43.91 44.15 44.52 44.61 43.93 42.80 42.54 41.49 40.83
56.05 55.13 54.53 54.02 53.01 51.87 50.61 50.82 49.11 48.43 47.71 47.06 47.19 47.32 46.67 45.99 45.53 45.21 45.20 44.20 44.25 43.81 43.72 43.50 43.22 42.93 42.93 42.08 41.43 41.65 40.74 39.49
56.00 54.71 53.57 52.91 51.92 50.91 50.05 49.49 48.94 47.70 46.57 46.74 46.93 46.36 46.05 45.67 45.10 45.24 44.73 43.93 43.47 43.62 43.64 42.94 42.60 42.32 41.74 42.17 41.76 40.71 39.84 39.35
55.64 54.18 52.79 52.64 51.71 50.41 49.30 49.20 48.95 48.39 46.39 46.12 45.74 45.78 45.73 45.35 45.16 44.81 44.24 43.45 42.81 42.96 43.42 42.10 41.91 41.41 40.88 40.75 40.13 39.40 39.17 38.80
54.41 53.07 52.12 52.04 51.02 49.62 49.08 49.48 49.20 47.43 45.97 45.30 45.53 45.85 45.53 45.03 44.39 44.21 43.61 43.05 42.71 42.82 42.50 41.71 41.82 41.00 39.49 38.56 38.69 38.33 37.89 37.32
53.48 52.54 51.97 51.04 50.08 49.04 49.03 48.77 47.68 46.89 45.52 44.76 45.26 44.81 44.44 43.43 43.17 43.16 42.90 42.70 42.40 42.40 41.86 41.50 40.50 40.23 32.62 31.68 31.51 36.02 36.53 35.80
52.51 52.04 51.90 51.44 50.66 49.21 48.31 47.57 47.26 45.70 44.95 44.40 44.01 43.72 42.49 42.25 42.12 41.70 41.79 41.90 42.11 41.39 41.26 40.98 40.61 39.84 32.09 29.81 29.02 33.72 35.55 34.97
52.79 52.73 52.28 52.59 51.52 48.89 48.02 47.82 46.07 44.62 43.54 42.84 43.00 42.03 40.65 40.93 41.16 41.10 41.59 42.07 41.34 40.69 40.28 40.26 39.83 35.18 30.39 28.55 28.24 33.17 35.07 34.22

GFSFLT1_sfc_wetblb_018.txt.gz
Wetbulb
61.57 62.19 62.81 62.65 65.77 65.92 65.09 65.27 64.80 63.76 63.04 63.22 63.48 62.60 61.24 60.30 59.43 57.70 57.74 56.34 56.59 55.53 55.61 53.71 53.47 52.74 51.79 51.49 50.53 50.29 48.93 46.31
62.57 63.87 64.50 65.50 65.83 65.45 64.71 63.04 63.19 63.26 62.36 61.77 61.37 59.14 58.99 58.73 56.90 56.91 56.32 55.34 55.13 54.03 53.59 53.55 52.93 51.06 50.88 50.11 48.31 46.45 45.98 46.26
61.55 63.04 64.28 65.15 65.16 65.08 64.16 63.14 62.63 63.60 63.67 61.71 60.02 59.22 58.96 56.88 56.14 55.37 55.24 54.95 54.08 53.73 52.88 51.71 51.54 50.19 49.22 48.33 46.54 45.37 44.93 45.06
60.87 62.13 63.39 64.61 62.74 63.83 62.97 63.23 63.49 64.12 61.62 60.70 60.02 57.84 56.30 54.68 54.61 53.84 53.71 54.01 53.39 52.69 52.19 50.98 49.99 48.73 46.90 46.56 45.67 45.18 42.49 42.85
61.02 61.95 62.07 62.23 62.08 63.94 63.93 63.74 62.89 60.82 60.73 59.23 57.81 55.26 53.28 54.15 53.94 53.52 53.07 53.64 52.27 49.44 48.52 47.74 47.01 48.03 46.74 46.40 46.43 44.46 43.34 40.31
60.40 61.82 62.31 62.94 63.21 62.68 61.24 60.06 59.39 59.07 58.41 58.22 56.40 54.23 53.75 53.20 51.85 50.42 49.30 47.75 47.88 46.98 46.24 45.94 45.30 45.12 45.72 46.08 45.69 43.74 42.56 41.42
60.67 61.13 60.82 59.85 60.08 59.30 58.41 56.71 56.61 57.47 56.56 55.09 53.60 51.01 49.50 47.16 46.13 44.95 45.71 45.71 45.13 45.78 45.87 44.78 45.46 45.18 44.91 45.54 44.84 43.69 42.29 41.71
58.13 57.11 56.73 57.44 56.89 56.63 56.55 55.82 54.90 55.18 53.94 52.29 50.18 48.27 47.42 45.43 44.47 45.13 44.64 44.08 43.15 43.74 43.82 43.92 44.33 45.18 45.66 44.97 43.45 42.24 42.12 40.81
56.25 55.71 55.55 55.48 55.60 55.67 55.50 54.56 53.68 53.11 50.80 48.77 48.35 47.69 45.76 45.77 45.67 44.46 43.84 43.27 42.62 43.28 43.29 43.62 44.39 45.42 44.62 43.42 42.65 42.19 41.92 40.40
54.88 54.88 55.44 55.28 55.29 55.15 54.77 54.04 52.75 50.59 49.24 48.30 47.13 46.55 46.28 46.00 45.84 44.61 43.36 43.23 43.17 42.74 42.96 42.71 43.20 43.80 43.94 43.27 41.91 41.49 41.38 40.53
54.60 54.67 55.31 55.54 55.43 55.03 55.24 54.26 50.80 49.11 48.35 47.34 46.93 46.68 47.13 46.61 45.10 43.80 42.76 42.86 42.93 42.79 42.46 42.28 41.93 42.32 43.81 43.10 41.71 41.46 40.21 38.69
54.59 54.78 55.54 55.58 55.18 54.46 54.36 52.24 49.42 48.48 47.39 46.97 46.38 46.69 46.93 46.17 44.65 43.95 42.88 42.81 42.60 42.23 42.16 41.88 41.50 41.13 41.27 40.26 39.76 39.45 38.68 38.28
55.00 55.17 54.88 54.17 53.99 53.89 52.21 50.49 49.25 48.16 47.47 46.90 46.44 47.19 46.72 44.94 44.33 43.66 43.28 42.35 42.69 41.99 41.71 41.67 41.79 41.00 41.12 39.69 39.02 39.22 38.43 37.07
55.27 54.86 53.94 53.55 53.42 52.46 50.78 49.98 49.46 48.16 47.59 46.44 46.00 46.08 44.94 44.41 43.81 43.69 43.46 42.57 41.76 41.41 41.44 41.32 40.33 39.69 38.95 39.43 39.18 38.74 37.26 36.66
55.32 54.66 53.96 53.52 53.15 51.45 50.61 49.69 49.39 48.16 47.01 45.81 45.20 45.34 44.94 44.12 43.64 43.32 43.21 42.58 40.87 40.80 41.12 41.40 40.36 39.66 39.64 38.80 37.98 36.18 35.70 35.77
54.82 55.11 54.13 53.11 52.46 51.40 50.68 49.42 49.06 48.84 47.40 44.99 45.58 45.58 44.64 44.07 43.63 43.34 42.82 41.80 41.10 41.17 40.50 40.57 40.48 39.66 38.80 35.45 34.77 33.70 33.56 33.21
54.42 55.02 54.62 52.94 52.40 51.61 50.37 48.84 48.58 48.83 46.01 44.80 45.49 44.49 43.89 42.86 42.16 42.55 42.05 41.65 41.14 40.42 39.49 39.82 38.99 40.16 33.75 32.80 31.65 29.96 32.47 32.01
53.17 53.96 54.14 53.18 52.24 51.51 49.26 48.67 49.12 47.25 45.35 45.18 44.73 44.13 42.34 41.75 41.92 41.30 40.14 39.96 40.02 39.77 39.11 39.17 38.31 34.36 33.01 31.50 29.90 28.86 30.67 30.70
53.12 53.48 53.56 53.16 52.72 51.45 49.56 49.06 47.75 45.41 44.22 43.69 42.93 42.79 41.10 40.46 40.20 39.85 39.90 39.79 39.46 38.51 38.16 38.47 37.61 34.05 32.45 30.98 29.11 27.12 29.92 29.90

GFSFLT1_sfc_wetblb_021.txt.gz
Wetbulb
56.79 57.13 59.38 62.02 61.89 61.66 61.74 62.20 60.85 60.65 59.81 59.46 59.82 58.25 56.74 56.58 54.90 53.22 52.99 52.61 52.49 51.85 51.10 50.36 49.74 48.72 48.01 46.88 45.96 45.20 44.91 43.18
57.55 58.07 57.80 61.80 61.82 61.84 62.30 60.92 60.63 60.34 58.62 58.33 57.95 55.46 55.01 52.23 51.82 52.07 51.65 51.55 51.67 50.06 49.35 49.02 48.54 47.44 46.15 46.23 44.22 43.05 42.64 42.73
58.07 58.81 59.18 62.38 61.81 61.39 61.36 61.45 60.80 60.29 60.01 60.27 57.32 54.81 53.35 51.50 51.48 50.88 51.07 50.65 50.21 50.65 48.75 48.00 47.36 46.35 45.19 43.92 42.85 41.51 42.01 41.19
57.56 58.95 58.66 61.17 61.02 60.91 60.78 60.58 60.79 60.72 60.59 56.06 54.15 52.16 50.82 49.82 49.04 48.79 49.94 50.87 50.12 47.88 46.17 44.41 44.16 44.81 43.59 42.68 42.31 41.42 39.31 39.87
58.36 58.72 58.77 60.13 60.16 59.87 61.00 61.11 61.05 61.54 58.06 54.86 52.68 50.34 48.52 49.00 49.54 49.04 46.73 45.57 44.63 44.46 44.00 43.16 41.99 41.85 41.05 42.65 44.49 41.56 40.00 37.67
57.36 58.17 59.43 60.10 60.79 60.74 60.30 60.08 57.74 55.51 54.85 54.13 51.53 49.48 48.26 46.15 44.50 42.63 42.33 43.14 43.46 43.14 43.24 41.70 41.10 41.98 41.43 41.65 41.98 40.95 40.35 38.91
56.90 59.28 60.10 59.98 58.50 57.33 55.86 53.24 52.35 51.49 50.74 49.38 48.09 46.47 42.43 41.63 40.69 40.31 40.64 41.34 41.58 41.53 41.76 41.13 41.28 41.71 41.51 41.89 40.66 40.18 39.69 39.28
56.03 55.26 54.05 53.36 52.88 52.98 51.20 51.43 50.48 49.62 47.11 44.63 43.47 42.93 41.72 40.37 39.62 40.03 39.93 39.50 39.27 38.94 40.32 39.72 39.89 41.53 42.57 41.70 40.34 40.06 39.41 38.19
53.62 53.01 52.43 51.70 51.15 50.69 50.25 50.38 49.12 48.27 45.59 44.00 42.79 42.13 41.15 41.20 40.89 40.49 40.10 39.30 38.73 39.25 39.53 39.68 40.08 40.88 41.92 41.10 40.43 39.82 39.76 38.29
51.72 51.32 51.67 50.90 50.59 50.74 49.37 49.21 47.84 45.32 43.51 42.47 42.35 42.28 42.00 41.64 41.51 41.07 39.58 39.36 40.74 39.47 39.08 39.17 39.43 39.11 40.69 40.88 39.68 39.36 38.94 38.47
51.21 51.12 51.26 51.80 51.56 50.99 49.48 48.53 46.52 44.67 43.28 42.83 42.60 41.90 42.46 42.07 41.54 40.82 40.05 39.47 39.41 39.09 38.66 38.86 38.68 38.68 38.60 40.38 39.60 39.63 37.65 36.28
50.52 50.34 51.82 52.06 51.56 50.22 49.56 46.86 44.48 43.03 42.79 42.65 42.15 41.96 43.64 42.91 43.36 40.00 40.98 39.30 39.83 38.88 39.27 38.67 38.60 38.66 38.02 36.85 36.36 37.18 36.28 36.19
50.49 50.57 51.18 51.14 50.69 50.19 49.34 45.00 44.43 43.66 43.05 43.17 42.33 43.14 44.42 43.12 41.64 41.61 39.45 39.11 39.53 39.07 39.05 38.99 39.12 38.33 36.79 36.16 36.48 37.09 36.93 35.95
50.58 50.07 50.86 50.91 50.11 50.11 48.46 45.85 44.71 43.75 43.37 42.62 42.70 44.58 44.32 43.14 42.15 40.98 40.07 39.33 38.76 39.01 39.60 39.63 38.91 37.91 36.84 37.05 36.30 36.42 34.85 35.34
50.62 50.08 50.46 50.51 50.47 49.49 47.98 45.69 45.18 44.35 43.31 42.04 43.12 43.94 43.67 42.38 41.36 41.31 41.15 39.81 38.87 38.40 38.84 39.14 38.90 37.94 38.42 37.13 35.92 33.82 33.50 33.96
49.95 49.97 49.43 50.02 49.90 48.41 48.35 46.69 45.27 44.05 42.88 42.80 43.30 44.22 43.20 42.09 41.36 40.71 40.57 40.24 39.44 38.92 38.72 38.61 38.97 38.52 37.96 34.88 34.11 32.63 31.09 30.61
49.57 50.68 50.03 49.84 49.24 48.14 48.00 46.18 44.78 44.78 43.71 43.52 43.87 43.10 42.12 40.81 40.12 39.33 39.50 39.78 39.62 38.91 38.02 38.37 37.63 38.55 34.52 34.34 32.37 29.28 30.59 29.98
49.00 50.06 50.28 49.18 48.88 48.63 45.97 45.43 45.50 44.46 43.41 43.40 43.32 41.31 40.41 39.72 39.82 39.00 38.56 37.81 37.59 37.89 37.89 37.58 36.17 34.55 34.35 33.39 31.58 28.02 28.45 28.08
47.99 48.55 49.41 48.82 48.03 47.35 45.11 45.58 44.84 43.36 42.50 40.43 39.94 38.90 38.36 38.94 38.53 37.89 37.51 37.92 37.22 36.92 36.73 36.81 35.69 33.93 33.87 32.78 30.50 26.74 27.49 27.88

GFSFLT1_sfc_wetblb_024.txt.gz
Wetbulb
60.24 61.37 61.85 61.42 61.12 61.55 59.94 60.93 59.09 58.68 58.56 58.33 57.58 56.20 54.88 54.90 53.24 52.05 51.32 50.67 51.86 50.05 48.72 47.91 47.96 46.74 45.49 44.83 42.87 42.87 42.69 41.47
58.20 60.85 60.80 60.05 60.04 60.07 60.72 59.48 59.27 58.60 58.04 57.65 55.81 54.35 54.06 52.62 50.34 50.68 50.23 50.05 49.64 48.54 48.02 47.44 46.65 45.60 44.35 44.02 42.09 41.05 40.59 40.43
55.31 57.13 59.45 59.62 59.64 59.81 60.32 59.97 59.39 58.71 58.14 58.03 56.76 54.23 51.47 49.90 49.39 49.13 49.34 49.28 49.09 48.97 47.23 46.14 45.40 44.39 43.26 42.71 41.46 40.27 40.42 39.28
55.81 56.88 58.66 59.23 59.08 59.97 60.05 59.65 59.65 58.84 58.25 57.18 52.89 50.99 49.28 47.94 47.05 47.37 48.24 49.04 46.84 45.04 43.47 42.16 41.76 41.77 40.90 40.53 40.63 40.03 38.22 38.45
56.56 57.48 58.87 59.13 59.38 59.41 60.05 60.26 59.77 59.32 57.83 55.14 53.81 51.91 49.15 47.38 47.11 47.07 45.12 43.83 43.31 43.24 42.35 41.32 40.70 40.40 39.60 39.73 42.81 39.84 38.65 36.85
56.31 58.46 59.64 60.00 59.67 59.76 59.96 59.44 59.25 59.48 55.04 53.95 51.94 48.27 47.27 47.20 45.21 41.49 41.15 41.34 42.12 41.98 41.21 40.23 40.11 40.40 39.98 40.86 39.88 39.53 39.05 37.83
56.18 59.05 60.21 59.43 59.76 59.41 57.76 57.40 54.21 54.22 53.45 50.82 49.13 45.85 43.62 42.45 39.82 39.15 39.68 40.59 40.40 40.01 40.53 39.15 39.56 40.11 41.01 39.94 39.34 39.27 38.35 37.89
56.58 57.15 58.16 58.58 57.87 57.02 56.04 52.42 48.08 47.45 46.63 45.83 45.07 43.25 42.92 41.03 39.50 39.43 39.42 40.15 39.84 38.28 38.53 38.21 38.15 40.26 41.29 40.27 39.35 38.96 38.15 36.83
56.50 55.53 54.08 53.81 53.11 52.10 51.56 50.59 46.51 44.23 43.83 42.90 42.93 41.87 40.97 40.60 41.26 41.12 40.23 39.77 39.34 40.10 39.72 39.26 38.68 38.64 40.13 40.04 39.19 38.75 38.00 37.04
53.50 52.56 52.35 51.52 49.31 49.56 49.74 48.98 47.06 44.94 42.54 41.97 41.75 41.24 41.74 41.63 41.53 41.01 40.77 41.00 41.28 38.33 38.10 38.14 38.06 38.31 37.12 38.57 38.62 38.47 37.72 37.30
52.26 52.40 51.26 50.85 50.18 49.31 48.45 47.78 45.70 43.61 42.43 42.08 42.96 42.79 42.33 41.86 41.73 41.21 41.14 40.79 40.98 38.87 39.08 38.02 37.35 37.34 37.68 37.87 38.38 38.46 37.35 35.28
51.81 52.05 51.63 51.11 50.49 49.27 48.50 46.61 43.65 42.19 41.85 41.44 41.35 42.32 42.81 42.72 41.95 41.66 41.31 40.53 40.52 39.94 38.99 37.57 38.07 38.34 37.76 36.19 35.45 35.57 35.46 35.81
51.75 51.51 51.17 50.30 50.12 49.08 48.05 46.22 44.31 43.04 42.62 41.76 41.51 42.06 43.01 42.97 42.07 41.28 40.53 40.67 39.72 39.10 38.75 37.90 37.95 38.00 36.61 35.29 35.22 35.75 35.39 33.77
50.29 49.53 50.10 50.18 50.30 49.88 48.30 46.17 44.23 42.97 42.67 41.83 41.10 41.48 41.78 41.78 40.69 39.79 39.32 39.51 37.93 37.47 37.77 37.97 37.87 37.63 36.85 36.88 35.95 35.21 35.08 34.96
48.62 48.64 49.73 50.43 50.77 50.16 47.76 44.89 44.14 43.41 42.66 41.68 41.11 41.86 41.96 40.64 39.60 39.13 38.62 38.11 37.39 36.86 37.88 38.29 38.55 37.99 37.28 37.56 35.57 33.61 32.82 32.80
47.53 47.14 48.61 49.23 48.71 48.19 46.22 45.05 44.70 43.80 42.24 41.53 41.24 42.00 41.33 39.56 38.64 38.31 38.67 38.85 38.52 38.05 37.74 37.63 37.83 37.81 38.16 36.02 34.38 32.23 31.02 29.99
48.42 48.03 47.92 47.91 48.14 47.62 48.00 45.47 44.05 43.73 42.09 41.66 42.31 41.59 40.15 39.91 38.87 37.63 37.69 38.42 39.34 38.65 37.82 37.12 36.62 37.57 36.34 36.06 33.26 30.26 30.66 29.20
47.74 47.65 48.18 48.21 47.80 48.28 47.52 45.97 44.04 42.67 42.78 43.45 41.46 40.77 39.70 38.94 37.48 36.76 37.01 37.22 37.15 37.06 36.38 36.48 35.86 35.93 35.22 35.40 33.54 28.99 28.66 28.03
46.06 47.50 47.85 47.29 46.94 47.60 45.22 43.74 42.68 42.61 41.82 40.04 39.69 38.93 37.56 37.72 37.26 37.46 37.42 37.48 36.52 34.68 35.15 36.07 35.26 35.21 34.76 34.42 32.20 27.39 27.46 27.51

GFSFLT1_sfc_wetblb_027.txt.gz
Wetbulb
58.27 59.27 60.90 61.75 60.92 61.05 59.77 59.29 58.02 57.39 57.20 56.85 55.55 54.02 53.64 53.76 51.89 51.14 50.74 51.39 50.23 48.43 47.17 46.90 46.31 44.93 43.92 42.67 41.42 41.05 40.95 40.25
59.56 60.44 60.88 60.19 59.48 59.40 59.79 58.08 57.42 57.55 56.96 55.87 53.78 52.84 52.98 51.64 50.64 49.77 49.71 49.26 48.53 47.36 46.48 45.96 45.31 44.11 42.72 42.51 40.74 40.14 39.92 38.56
58.74 59.48 59.26 58.07 59.00 59.22 59.32 58.57 57.60 57.58 57.95 56.49 55.37 53.54 51.43 49.05 48.86 48.49 48.55 48.18 47.57 47.41 45.66 44.42 43.55 42.49 41.39 41.12 40.37 39.46 39.17 38.12
55.35 58.14 58.16 57.34 57.76 58.50 59.38 58.96 58.37 57.82 57.86 56.65 52.28 49.64 48.26 47.05 46.19 46.17 46.84 47.62 45.46 43.51 42.17 41.10 40.41 40.10 39.14 38.94 39.85 39.24 37.32 37.31
54.47 56.53 57.31 57.47 57.54 58.84 59.46 59.49 58.87 58.34 57.43 56.57 54.01 51.99 48.81 46.36 45.99 45.98 42.01 42.82 42.16 41.71 41.05 40.86 40.43 40.11 39.30 39.30 41.26 38.99 37.59 36.05
53.73 54.78 57.59 58.26 58.39 58.75 59.20 59.23 59.09 58.78 57.27 56.11 53.18 50.42 47.30 46.71 44.67 40.38 39.87 40.87 41.72 41.29 41.08 40.16 39.77 40.03 39.96 39.85 39.20 38.50 38.07 37.10
54.29 55.87 57.67 58.14 58.57 58.27 58.61 58.54 58.38 58.04 57.12 54.78 51.86 47.46 45.70 43.82 39.57 39.00 39.49 39.46 39.32 40.29 39.76 40.13 41.45 42.37 39.92 39.30 38.57 38.34 37.49 36.90
55.11 57.17 57.77 57.69 57.59 58.45 58.27 57.19 54.00 55.25 53.95 51.02 48.51 46.84 46.52 44.10 40.17 39.37 38.60 38.20 38.42 38.76 40.64 40.76 40.81 42.60 40.69 39.85 39.63 37.80 37.18 36.11
55.69 57.57 58.10 57.92 58.14 57.73 57.58 54.17 50.19 48.95 47.87 46.14 43.36 43.51 44.56 43.10 41.61 39.71 40.09 40.32 40.25 40.52 40.41 40.64 39.31 38.62 39.21 39.74 38.88 37.81 37.06 36.16
55.56 57.22 58.04 57.05 56.05 53.53 51.64 49.29 46.11 46.02 44.96 43.48 42.39 42.52 43.44 42.35 41.88 41.71 41.10 40.99 41.04 40.68 40.13 39.72 38.16 37.55 36.34 37.13 37.61 37.37 37.16 36.26
53.31 54.17 53.63 53.60 52.63 50.83 47.63 46.82 45.76 45.09 44.39 44.60 44.24 43.56 43.11 41.89 40.96 40.79 40.91 41.26 41.62 40.17 39.62 39.43 37.44 36.50 37.22 37.02 37.68 38.59 36.51 35.15
52.96 53.45 52.77 52.02 50.93 49.38 47.87 45.63 43.41 42.60 43.44 42.23 41.42 41.08 41.55 41.04 41.33 41.35 41.20 41.22 40.40 40.29 39.68 38.58 36.75 36.60 36.90 36.14 35.09 34.87 34.51 34.35
52.80 52.90 51.10 49.40 49.14 49.07 47.94 46.69 44.49 43.70 43.35 42.94 41.59 41.07 41.42 40.65 40.29 41.28 41.04 40.35 39.86 38.08 37.92 36.98 36.86 37.73 37.14 35.59 34.07 34.65 33.98 33.55
50.40 50.03 50.01 49.32 49.16 48.86 48.32 46.59 43.72 41.40 42.69 42.00 40.84 40.92 40.88 40.75 39.58 39.04 38.34 37.85 37.34 36.97 36.75 36.48 37.26 37.49 36.40 34.78 34.26 34.46 34.23 33.53
48.64 48.09 49.25 49.99 50.09 48.81 48.18 45.69 43.92 44.13 44.37 42.25 41.53 41.34 41.92 41.59 41.02 38.13 37.94 37.46 36.41 35.88 36.55 37.20 38.10 36.31 36.23 36.02 34.79 33.07 32.56 32.63
46.83 46.58 47.76 48.79 48.65 47.76 47.13 45.20 45.30 44.34 42.84 41.77 41.38 43.44 42.71 41.96 40.31 38.56 37.25 37.00 37.00 36.75 37.15 37.86 36.46 36.20 36.66 35.14 34.09 32.09 31.04 30.51
46.79 46.63 47.35 47.38 47.97 47.09 45.30 45.50 44.49 43.01 41.95 41.80 43.24 43.47 41.68 39.43 38.74 38.06 37.18 37.86 38.40 37.68 37.54 36.77 35.35 36.68 36.44 36.94 34.01 30.88 30.59 29.60
46.41 45.71 46.24 46.74 46.69 47.18 45.82 45.16 44.08 42.29 41.66 42.85 42.63 40.57 38.68 37.74 37.55 37.55 37.45 37.11 37.54 37.31 36.66 36.16 35.71 34.87 35.99 36.85 35.35 29.85 28.93 28.32
40.59 40.06 44.23 45.61 45.58 45.77 43.88 42.02 40.93 40.40 39.17 38.82 38.95 38.26 37.70 38.08 37.89 37.43 37.42 38.05 37.42 36.42 35.34 35.11 34.18 34.66 35.55 35.90 34.22 28.64 27.69 27.06

GFSFLT1_sfc_wetblb_030.txt.gz
Wetbulb
57.14 56.45 57.76 59.14 60.06 60.48 60.02 59.12 57.70 56.98 56.44 55.72 54.28 53.19 53.83 52.94 51.60 51.55 52.15 50.13 49.30 48.01 46.68 45.81 45.18 43.94 42.53 41.74 40.85 40.63 40.79 40.05
57.09 56.99 58.26 59.70 59.21 59.00 59.07 57.38 56.60 56.73 55.70 54.12 52.49 52.30 52.50 50.64 49.87 49.83 50.54 48.86 47.84 46.50 45.64 44.86 44.18 42.74 41.96 41.94 40.50 39.77 38.70 38.26
56.84 56.63 58.12 59.50 59.68 59.64 58.81 58.11 57.00 57.29 57.10 54.71 53.90 52.89 51.41 49.41 48.56 48.30 48.30 47.51 46.67 46.37 44.45 43.23 42.56 41.55 40.64 40.65 40.28 39.08 38.67 37.63
56.46 57.63 58.12 58.67 59.04 59.01 58.96 58.09 57.33 57.46 57.10 54.93 50.62 50.95 47.99 46.67 45.71 45.77 46.35 46.70 45.48 43.43 41.80 40.32 39.70 39.47 39.07 39.38 39.59 39.14 37.21 36.87
55.55 57.14 57.46 57.58 58.35 58.86 59.30 58.45 57.44 57.37 57.42 55.45 52.76 51.89 49.12 47.47 45.38 44.89 42.12 42.27 41.24 40.75 40.74 40.37 40.11 40.24 39.48 40.65 40.87 39.68 37.84 36.27
53.38 55.03 57.67 57.92 56.73 57.63 58.53 58.19 57.93 57.35 57.46 56.43 53.60 51.61 50.61 47.94 44.55 40.01 40.16 39.80 40.38 40.83 40.73 40.61 39.77 40.63 41.98 41.77 39.61 38.14 38.07 37.01
51.55 52.80 55.41 56.16 55.92 56.62 57.80 58.82 58.07 57.55 56.77 54.66 52.95 49.72 48.99 46.33 42.58 39.26 40.47 38.25 39.27 39.56 39.63 39.21 40.97 42.84 41.04 40.26 38.90 38.25 37.60 36.96
51.30 52.78 54.22 55.92 55.76 56.94 57.96 59.14 57.64 57.62 56.30 54.70 52.28 51.50 49.30 46.64 41.87 39.74 37.88 38.01 38.86 38.33 39.23 39.63 40.83 42.53 42.03 39.73 38.51 38.06 37.10 36.45
52.51 54.71 55.29 56.07 56.44 56.84 58.13 58.17 57.63 55.88 55.80 53.87 52.45 50.43 48.91 47.38 41.50 40.46 40.16 39.92 39.88 40.33 40.81 39.50 40.49 41.36 39.92 40.30 39.25 37.50 37.37 36.50
52.17 55.19 56.23 56.30 56.46 56.82 57.83 56.82 56.62 53.98 52.93 50.87 49.06 47.91 46.71 43.34 43.52 41.26 40.36 41.23 40.73 40.86 40.84 41.17 40.44 38.58 38.82 39.10 39.16 38.04 37.57 36.16
52.04 54.85 56.10 56.64 57.15 57.79 56.38 54.78 52.65 51.49 49.64 47.55 46.16 45.73 45.68 44.46 41.91 40.72 41.27 41.81 40.96 41.00 40.96 39.99 39.10 38.59 38.48 38.29 37.50 37.71 36.94 36.04
51.96 53.89 55.12 54.90 54.56 51.78 52.03 49.28 47.16 45.53 45.72 44.43 43.21 43.30 43.18 43.84 42.97 42.70 41.04 41.15 41.46 41.22 39.95 39.24 38.40 37.93 37.92 36.91 37.12 36.55 34.76 33.76
51.02 51.85 51.58 51.15 51.49 50.33 50.11 46.57 44.36 43.68 42.86 43.08 43.21 43.16 43.62 42.00 41.15 41.14 41.35 40.94 40.61 40.06 39.57 38.25 37.97 38.09 37.48 36.05 34.39 34.44 33.65 33.36
50.14 50.24 49.81 50.33 50.08 49.32 48.89 46.17 44.11 44.05 43.12 43.97 42.60 41.27 39.82 39.66 41.22 41.14 40.89 40.09 39.35 38.52 38.31 37.76 37.44 37.62 36.60 35.10 34.42 34.12 33.46 33.17
48.67 48.87 48.88 48.14 47.94 48.79 47.61 45.81 43.26 43.83 42.81 42.29 41.25 39.72 39.95 40.36 41.22 40.11 39.95 39.37 38.46 37.87 38.18 37.81 37.80 37.79 36.93 36.15 34.85 33.39 32.99 32.69
47.18 47.31 47.24 47.85 48.37 48.04 47.12 44.63 44.18 44.16 43.48 41.89 40.09 39.82 40.46 40.64 41.39 39.72 39.10 38.78 38.52 38.21 37.93 37.90 38.12 37.81 36.66 35.25 34.21 32.81 31.56 30.91
45.66 45.43 46.06 47.44 48.11 47.37 47.02 44.96 43.99 43.80 42.62 40.92 42.51 42.21 41.75 39.79 39.27 39.16 38.68 38.24 38.03 37.81 37.18 37.27 37.36 37.27 36.25 36.88 35.34 31.89 31.05 30.17
41.81 43.42 44.73 45.17 45.90 46.80 44.90 44.19 43.58 42.11 40.74 41.61 41.93 41.99 40.30 38.54 38.63 37.97 37.45 37.12 37.59 37.69 38.09 37.74 36.90 36.21 36.13 36.47 36.24 31.72 30.12 29.76
36.88 37.10 38.72 39.81 43.30 42.80 41.43 40.82 39.79 39.31 39.23 39.51 40.27 38.89 38.18 38.98 38.16 37.61 37.84 38.35 38.43 38.23 37.40 36.52 35.45 34.78 35.35 35.78 35.16 31.87 29.38 28.75

GFSFLT1_sfc_wetblb_033.txt.gz
Wetbulb
59.17 59.24 60.24 59.95 60.52 61.24 61.87 62.86 63.61 63.21 61.85 61.72 61.19 60.36 59.85 60.51 60.70 59.86 58.30 56.14 55.62 54.82 53.66 53.31 52.78 51.50 50.78 50.99 50.37 49.88 50.18 50.28
59.56 59.87 59.96 60.48 61.13 61.22 62.35 62.66 62.92 61.70 60.21 59.84 59.65 58.18 58.35 57.80 58.09 57.55 56.34 55.38 54.62 54.00 52.78 52.23 52.19 51.61 50.73 50.66 49.32 48.48 48.24 48.81
59.03 59.54 59.27 59.99 60.69 61.77 62.38 62.75 62.29 61.85 61.53 60.93 60.21 58.35 58.09 56.97 55.73 56.37 55.23 54.56 53.71 52.97 52.50 51.77 51.32 50.11 49.88 49.63 48.96 47.73 48.24 47.96
59.07 58.41 59.01 59.93 60.58 61.80 62.55 62.82 62.05 61.98 61.65 60.13 57.33 56.01 55.08 53.91 53.28 53.94 53.53 53.35 53.09 52.38 51.89 50.69 49.22 48.76 47.72 48.45 48.61 47.39 45.31 45.54
59.43 59.72 59.30 59.68 61.14 62.59 63.01 62.63 61.86 61.75 61.03 59.79 57.48 57.37 55.44 55.00 53.37 53.27 52.58 52.21 51.01 50.18 48.92 48.65 48.27 48.14 47.71 47.76 47.09 45.98 46.80 44.72
57.78 59.61 60.55 61.20 61.58 62.14 62.78 62.54 61.61 61.31 59.81 60.03 58.82 58.01 56.91 53.86 51.91 50.54 49.16 48.94 48.75 47.67 48.18 48.12 47.88 47.69 47.91 48.03 46.82 46.05 46.78 45.95
56.74 59.12 60.68 61.41 61.79 61.83 62.36 61.03 60.86 60.22 59.68 59.84 58.42 57.31 53.71 51.57 48.14 46.88 46.84 47.09 46.39 47.28 47.22 47.55 47.96 47.86 47.36 46.81 44.45 44.81 45.87 45.77
55.94 56.07 57.40 60.01 59.89 60.50 61.31 60.23 59.60 58.65 58.80 58.90 58.05 55.46 53.51 51.91 47.07 45.85 45.33 45.40 45.36 45.77 46.52 46.55 46.87 46.45 45.32 43.59 44.36 46.27 45.79 45.23
56.01 56.63 57.65 58.76 59.31 60.21 60.88 60.68 59.70 58.58 58.78 58.69 57.63 55.74 55.17 51.95 48.31 47.50 46.67 46.63 45.79 46.16 46.07 46.70 46.93 45.75 45.02 46.39 46.24 46.06 45.94 45.47
54.32 56.16 57.29 57.90 59.28 59.52 60.92 60.86 60.61 60.11 58.73 58.79 57.20 56.77 55.20 52.01 49.77 49.92 48.31 47.16 45.40 45.34 45.80 43.13 45.37 45.26 43.48 44.44 45.18 45.19 45.61 45.76
53.12 55.30 57.46 58.43 59.38 60.04 60.86 61.28 60.53 60.85 59.49 58.88 58.39 57.26 55.16 54.06 51.26 48.93 46.65 46.27 45.68 45.32 44.84 44.90 44.32 41.81 44.03 43.52 44.33 44.28 44.57 45.06
53.98 55.51 57.96 59.04 59.80 59.92 60.21 60.37 60.31 59.11 58.86 58.29 57.01 55.81 54.73 52.33 49.58 48.07 47.25 46.76 45.93 44.54 43.35 44.20 40.89 41.67 42.26 42.34 42.85 43.20 43.07 44.20
55.20 56.55 57.61 58.13 58.64 58.79 58.75 58.63 58.12 57.43 55.65 54.19 54.38 53.26 51.45 49.93 49.00 48.45 48.09 45.90 45.11 43.73 42.97 40.80 41.52 41.02 41.72 41.18 40.75 41.93 42.58 41.96
54.46 55.46 56.09 56.59 56.45 55.60 55.26 54.70 54.53 52.01 51.08 52.34 51.88 50.35 49.99 49.26 48.93 48.63 46.18 44.94 43.45 42.72 42.05 40.55 40.23 41.42 41.29 41.15 40.66 41.32 41.05 41.07
53.66 54.00 54.30 54.09 54.05 54.89 55.47 52.58 51.41 50.26 50.16 50.24 49.78 49.02 49.02 48.85 47.85 44.84 44.13 44.28 40.65 40.99 41.64 42.38 42.52 42.09 41.08 40.41 41.51 40.43 40.27 40.16
51.31 52.44 53.32 53.18 53.08 52.95 52.75 51.84 49.36 49.27 47.96 47.91 48.06 46.78 46.27 45.71 44.27 42.88 42.19 42.47 41.54 40.83 41.88 40.73 40.94 40.43 40.88 41.46 41.57 40.63 40.27 39.78
48.76 49.86 50.70 51.20 52.04 52.50 51.00 50.02 48.22 48.44 48.19 47.25 45.79 45.59 44.86 43.59 42.82 41.27 40.69 39.84 39.57 41.47 41.03 40.52 40.31 40.76 38.61 37.40 37.46 39.97 39.89 39.03
44.70 45.87 46.62 47.99 49.34 50.20 50.01 49.02 48.19 47.12 46.20 45.68 45.18 44.59 42.50 41.78 40.94 39.74 38.54 38.74 40.15 40.50 40.84 41.28 40.50 40.67 37.20 36.81 36.24 38.71 39.68 39.94
41.10 42.48 43.11 43.94 45.32 44.92 45.04 45.35 44.69 44.55 44.16 43.67 43.49 42.59 40.41 39.35 39.18 39.14 39.75 41.35 40.74 40.86 41.55 41.23 39.97 39.21 36.60 35.98 34.80 38.52 38.88 38.82

GFSFLT1_sfc_wetblb_036.txt.gz
Wetbulb
59.64 60.84 60.29 60.37 61.40 61.45 61.88 63.20 64.23 65.20 65.23 63.83 63.24 64.82 65.96 66.18 65.81 65.32 64.26 63.03 61.91 61.95 60.68 59.29 58.74 57.25 56.58 55.89 54.56 53.96 53.42 53.43
61.15 61.21 61.21 60.75 61.70 61.95 62.56 62.96 64.39 65.01 64.23 62.02 62.03 62.76 64.39 64.80 65.48 65.14 64.07 62.73 61.27 60.65 59.24 58.16 57.78 56.87 56.16 55.49 53.83 51.34 51.99 53.24
60.59 61.81 61.47 61.23 61.54 62.37 63.00 63.58 64.50 65.14 64.88 63.10 63.90 64.21 64.33 64.39 63.77 63.07 62.63 61.33 60.62 59.44 58.49 57.50 57.53 56.05 55.19 54.07 52.35 51.56 52.88 52.16
60.86 61.48 62.67 62.40 61.66 62.20 62.90 64.30 65.40 66.01 65.72 64.16 63.60 64.26 62.89 60.90 60.51 60.57 60.34 60.06 59.37 58.31 58.27 57.58 56.87 55.83 53.69 52.80 51.93 51.55 50.84 50.74
61.74 62.54 62.56 63.21 63.09 63.88 64.15 64.46 65.48 66.10 66.01 63.84 61.98 60.90 60.71 60.98 60.28 60.16 58.16 57.23 58.11 57.69 57.31 55.94 55.48 54.10 52.70 51.81 52.43 52.49 51.07 49.68
61.18 62.30 63.61 63.97 64.10 63.91 64.92 65.09 65.55 66.17 65.77 64.76 62.76 61.83 63.08 62.24 60.25 58.52 57.60 57.18 57.15 56.67 55.03 53.39 52.91 52.83 52.05 52.46 51.79 50.87 51.56 46.94
61.49 62.91 63.77 64.41 64.82 64.44 64.74 64.79 64.97 65.56 64.27 62.40 61.86 61.83 61.91 59.88 58.43 57.14 55.67 55.80 54.74 53.04 51.20 51.88 53.27 52.09 51.98 52.33 50.53 51.09 48.48 49.28
60.86 61.49 62.44 63.82 64.45 64.76 64.69 64.74 62.11 63.74 62.89 61.09 61.59 61.71 61.85 58.43 58.07 56.67 53.28 49.60 49.64 49.66 51.08 51.85 51.90 52.01 51.89 51.14 50.67 48.34 49.25 48.39
60.86 61.59 62.24 63.38 64.32 65.30 64.79 64.43 61.51 60.76 60.03 61.14 62.18 61.82 61.70 59.66 59.89 53.38 49.08 48.27 48.82 51.26 51.37 52.17 51.44 48.67 49.97 49.44 48.21 47.29 48.04 48.60
59.21 61.42 62.35 62.86 63.45 64.59 64.98 64.37 63.40 62.66 60.31 58.98 60.06 60.58 60.58 60.37 59.38 52.52 50.60 51.71 51.76 51.52 51.52 50.13 49.34 49.41 48.69 48.79 47.02 47.88 48.17 49.04
57.11 58.54 60.28 62.33 63.10 64.31 64.87 65.21 64.67 63.99 60.66 60.24 60.53 60.64 60.63 60.57 59.76 55.11 53.82 53.41 53.64 51.11 50.38 49.24 47.46 46.81 47.67 47.32 44.76 47.77 48.24 48.26
57.88 58.97 60.20 61.36 62.38 63.35 63.78 64.25 64.63 64.79 62.83 62.02 61.65 61.84 61.31 60.77 59.57 56.43 54.84 54.05 52.73 48.70 49.78 48.32 45.88 46.89 45.70 45.18 46.70 46.99 45.38 45.49
59.35 59.77 60.74 61.66 61.88 62.56 63.03 63.63 63.81 64.63 64.84 63.96 62.35 61.66 60.81 59.25 57.27 55.61 54.68 52.70 51.54 50.36 50.11 47.33 44.22 45.56 45.91 44.44 44.56 43.50 43.72 43.82
58.60 59.71 60.51 61.18 61.87 62.40 62.76 63.10 63.24 63.68 63.18 62.15 60.88 58.16 57.76 56.74 54.77 53.87 52.55 52.20 51.44 50.89 49.65 46.42 43.26 44.15 44.23 45.20 43.17 41.54 42.47 43.66
57.64 59.22 59.60 60.31 60.78 60.89 60.91 60.98 61.18 59.54 58.32 58.43 57.92 56.74 54.75 53.71 53.15 52.54 52.22 51.51 51.06 49.24 44.00 43.09 43.31 44.39 43.81 43.11 43.10 43.18 43.89 42.73
55.61 57.87 59.20 59.36 59.39 59.61 59.79 58.78 57.83 57.55 56.52 56.28 55.95 55.69 55.49 54.98 54.00 52.82 51.52 49.42 46.25 43.04 41.68 42.29 41.98 42.41 42.80 43.30 43.45 41.86 42.56 42.01
54.91 56.06 57.15 57.08 57.27 57.55 56.78 55.78 55.27 55.31 54.50 53.74 52.58 51.78 51.28 50.31 48.26 46.08 43.75 42.44 41.21 40.96 40.77 42.34 42.23 41.82 39.00 38.37 39.16 40.32 42.15 41.91
51.96 52.64 53.43 54.13 54.55 55.49 54.65 53.94 53.80 53.07 51.98 50.99 50.25 49.55 48.00 47.06 44.35 42.17 40.34 39.74 41.32 41.25 41.75 42.20 42.43 43.32 39.01 38.56 37.46 38.32 40.25 41.63
49.98 50.82 51.22 51.78 52.26 52.01 52.07 51.89 51.28 50.36 49.46 48.57 48.41 47.44 46.07 45.26 43.80 41.61 41.20 42.08 41.51 41.64 41.96 43.14 43.35 42.39 38.33 37.26 36.59 40.98 41.31 41.40

GFSFLT1_sfc_wetblb_039.txt.gz
Wetbulb
59.10 59.26 60.21 61.24 60.30 59.39 59.57 61.50 62.11 63.34 62.85 63.06 62.15 61.97 63.09 64.49 65.97 65.70 65.62 64.88 64.54 64.39 63.76 62.56 62.01 60.67 59.59 58.16 56.86 56.03 54.86 54.94
60.40 59.83 60.32 60.13 60.77 59.97 60.61 61.25 62.84 63.44 62.45 61.50 60.85 59.87 62.23 64.34 66.10 65.53 65.88 65.32 64.12 64.20 63.21 61.85 61.07 59.49 58.76 57.76 56.36 54.43 53.51 55.21
59.59 60.47 60.09 60.37 60.64 60.93 60.81 61.28 62.30 63.66 64.09 62.58 61.67 62.22 62.92 64.12 65.47 65.67 65.74 65.35 63.90 63.48 62.87 61.06 60.29 58.92 57.93 56.87 55.60 53.57 54.95 55.05
59.12 59.92 60.94 60.90 61.25 61.94 62.35 63.16 63.08 64.52 64.87 63.79 62.54 63.48 64.08 63.56 63.71 63.79 64.63 64.57 63.26 62.55 61.72 60.56 59.72 58.81 56.64 56.49 54.98 54.68 53.67 54.35
59.58 60.67 61.07 61.46 62.06 63.87 63.64 64.18 64.27 64.74 65.53 63.65 62.24 61.38 61.15 62.81 63.37 63.40 63.29 62.71 61.82 60.54 59.73 60.06 59.36 58.19 57.06 55.89 54.66 55.26 53.84 51.80
59.98 60.91 61.95 63.15 63.42 64.03 64.75 64.23 64.40 65.62 65.58 65.93 64.02 62.43 63.11 64.13 63.17 62.60 62.37 60.24 59.99 59.08 59.50 59.29 58.40 56.69 56.88 55.97 54.54 54.15 52.72 51.45
60.19 61.73 62.83 62.81 64.19 64.95 65.62 64.18 63.88 64.97 66.33 65.51 64.70 63.39 62.88 62.99 62.37 60.97 60.13 59.73 59.10 59.19 58.32 57.93 56.59 54.54 54.74 54.16 54.35 53.07 53.27 51.85
59.71 60.09 61.04 62.86 63.71 64.68 65.16 64.19 63.94 64.98 65.42 65.42 63.37 62.04 62.78 62.52 61.99 60.26 59.27 59.42 58.64 58.11 54.43 52.30 52.51 52.60 54.36 54.66 53.52 49.92 50.80 49.75
59.74 59.93 61.80 62.95 64.16 65.14 64.81 64.39 64.15 64.89 64.56 63.95 62.42 61.24 60.78 61.91 63.13 61.16 60.15 59.76 57.45 52.70 50.57 50.94 51.62 54.03 54.22 52.53 49.64 51.39 50.71 50.42
59.76 60.31 60.86 62.73 63.93 65.45 66.66 65.14 64.76 64.79 64.49 62.26 61.81 62.08 61.82 62.52 61.94 61.69 60.35 55.73 51.38 50.27 50.59 50.41 52.32 52.92 50.26 50.34 49.90 47.51 49.22 49.71
58.63 60.32 61.35 62.32 63.80 64.96 67.43 66.73 65.36 64.82 62.94 63.68 61.76 62.10 62.91 63.00 62.48 60.61 58.22 54.41 52.98 52.07 51.69 51.60 51.69 50.47 50.11 50.37 47.35 48.76 47.86 48.72
58.48 59.40 60.69 62.00 63.59 64.48 65.33 66.23 65.96 64.53 64.07 63.95 61.37 61.58 61.76 61.80 61.27 59.86 56.67 54.56 53.75 52.90 52.79 51.80 49.38 49.11 49.69 48.39 46.92 46.02 47.16 47.77
59.24 60.49 61.14 61.44 62.20 63.24 64.27 65.24 65.65 65.81 64.98 63.30 61.91 62.88 62.04 60.98 60.42 59.24 57.60 55.97 55.31 54.29 52.12 49.64 48.61 49.30 48.13 44.83 43.02 46.06 45.11 42.91
59.03 60.85 61.51 62.20 62.61 63.05 63.82 64.48 64.88 65.51 65.47 62.79 62.37 61.51 60.89 60.16 59.16 58.01 56.59 55.58 54.20 52.48 49.85 48.91 48.76 46.74 45.17 44.30 45.02 43.74 43.77 43.80
57.34 60.07 61.54 62.59 63.11 63.43 63.64 64.12 64.93 64.90 64.60 64.11 62.23 58.94 58.08 57.39 56.01 55.09 53.69 53.07 52.22 51.23 50.38 48.30 46.02 44.69 43.62 43.13 43.69 43.71 44.47 43.08
55.84 59.12 60.83 61.59 61.91 62.25 62.72 62.43 62.45 61.80 60.57 60.45 59.36 58.05 57.15 55.37 53.75 52.99 52.85 52.30 51.00 46.05 45.30 43.67 44.03 43.36 42.96 42.55 43.20 43.75 43.80 41.76
56.48 58.59 60.23 60.32 60.59 61.00 60.31 59.63 59.36 59.59 58.68 57.98 57.15 56.84 55.99 55.15 54.48 52.78 51.68 47.04 45.70 43.34 42.73 41.98 42.60 41.37 39.48 39.80 40.46 44.47 42.50 40.91
56.54 57.77 58.62 58.87 58.84 58.83 57.42 56.78 57.12 56.41 54.96 54.12 53.46 52.76 51.39 50.20 48.56 46.70 44.79 43.81 44.40 42.43 43.08 41.85 41.72 42.04 39.17 38.88 38.02 42.57 39.74 39.24
55.12 55.53 55.61 56.21 56.43 55.81 55.51 55.09 54.27 53.33 52.35 51.58 51.47 50.43 48.76 47.57 46.64 45.27 44.32 44.19 43.48 41.85 41.98 42.00 43.43 43.54 38.79 38.52 37.00 38.70 39.67 42.06

GFSFLT1_sfc_wetblb_042.txt.gz
Wetbulb
57.23 56.44 55.83 56.37 55.67 55.53 55.63 55.11 54.40 54.80 54.61 56.48 58.76 60.55 60.32 60.38 60.15 62.89 63.26 63.51 64.18 63.13 62.42 60.91 59.53 58.53 57.12 55.73 53.19 51.83 50.91 50.25
59.22 57.74 57.21 56.81 57.38 55.38 55.86 54.74 55.69 57.40 58.16 58.72 59.25 57.66 59.20 60.30 62.55 63.14 64.07 63.58 63.09 62.19 61.57 60.27 59.39 57.95 56.30 55.71 53.21 50.40 48.58 50.14
57.21 57.45 57.65 58.23 57.09 56.85 58.04 57.50 59.02 60.35 60.63 59.39 59.69 59.09 59.29 60.93 63.06 63.92 63.89 63.41 62.71 62.05 61.36 59.36 58.78 57.05 56.39 54.08 52.78 50.28 50.61 50.80
57.05 57.44 57.97 58.33 56.77 57.20 58.09 59.45 60.29 61.27 61.81 61.49 60.51 60.39 59.48 60.03 61.27 62.75 63.25 63.35 62.66 61.40 61.38 59.41 58.29 57.46 54.93 54.29 52.92 50.94 48.73 49.53
58.21 58.07 57.44 58.06 58.88 59.25 59.40 59.88 60.28 61.54 62.63 62.33 59.44 58.19 57.61 60.17 61.34 61.74 62.33 63.06 62.44 60.76 60.30 59.06 58.42 57.04 54.72 54.00 54.17 52.29 50.75 48.40
57.81 58.52 59.06 59.09 60.20 60.33 60.69 60.77 61.44 62.07 62.49 62.95 61.42 59.24 60.64 62.37 61.47 61.55 61.23 61.22 60.47 60.41 58.31 57.21 57.29 56.71 56.26 53.50 52.32 52.27 51.84 47.56
58.77 59.91 60.55 60.42 60.64 61.08 61.70 61.59 62.07 62.75 63.08 62.99 62.11 59.67 60.75 60.86 60.34 59.39 59.61 58.42 57.88 57.97 57.61 57.22 57.07 56.43 54.24 52.64 51.90 52.04 49.23 47.90
58.47 58.67 59.46 60.48 60.59 60.69 61.60 62.01 61.65 62.75 63.06 63.15 62.87 62.22 61.57 60.39 59.69 59.81 58.80 57.00 56.90 57.03 57.26 56.28 54.85 53.62 52.75 51.32 51.92 51.04 49.38 46.46
58.55 58.83 59.88 60.40 61.32 61.64 61.65 61.52 61.26 62.12 63.00 63.11 63.13 63.01 61.65 61.45 61.01 60.21 58.68 57.85 57.81 57.91 57.08 53.19 51.78 51.65 51.21 51.25 51.63 49.73 48.52 47.40
58.74 59.29 59.68 61.20 61.73 62.23 62.46 62.47 62.15 62.48 62.62 63.63 62.80 62.60 61.90 61.23 60.54 61.05 59.02 58.57 57.08 54.09 52.84 51.20 50.60 51.23 50.96 49.42 48.11 48.11 47.19 46.54
58.44 58.44 59.51 60.76 62.59 63.56 63.79 63.37 61.91 63.29 63.44 64.05 62.96 62.55 60.82 60.10 60.80 60.36 59.44 57.48 53.14 52.12 51.20 50.39 50.11 49.85 49.11 48.21 48.05 47.39 46.17 45.70
58.01 58.70 59.71 60.54 61.41 62.51 63.71 63.88 63.79 63.27 63.50 63.42 62.58 62.03 61.10 61.43 61.27 60.75 59.86 53.89 53.30 51.78 50.98 50.11 49.36 48.70 48.22 47.35 46.27 45.94 44.85 45.10
58.47 59.45 59.86 59.66 60.19 61.93 64.11 64.72 64.28 63.58 63.50 63.33 62.57 61.28 60.30 59.85 59.76 59.69 56.10 54.15 53.17 52.51 51.54 50.33 49.76 48.48 48.03 46.30 45.59 43.56 43.93 42.86
57.47 59.33 59.94 60.54 60.77 61.38 62.94 63.99 64.31 63.30 63.38 62.61 61.94 59.58 60.19 59.59 59.24 57.60 55.15 53.98 53.11 52.68 51.26 48.95 47.79 47.82 46.20 43.86 43.45 43.91 43.19 43.47
55.72 58.43 60.00 61.12 61.58 61.78 62.16 63.14 63.93 63.29 63.27 62.02 60.34 58.79 58.04 56.24 55.19 54.42 53.96 53.59 51.82 50.05 48.21 47.72 46.64 44.60 44.06 43.19 43.44 42.46 41.98 42.74
54.84 57.20 59.69 61.14 61.90 62.22 62.65 62.87 61.85 62.31 62.02 59.62 57.70 57.27 56.29 54.87 53.91 53.28 52.33 51.54 50.79 47.94 45.61 43.79 43.19 42.77 43.21 43.04 42.72 41.94 41.65 41.88
54.28 56.17 59.95 60.53 61.06 61.21 61.28 59.65 60.05 60.20 59.12 56.64 57.22 56.68 55.30 54.77 53.34 52.23 50.08 47.53 44.68 43.42 42.56 42.05 41.69 41.85 39.22 40.54 41.38 41.45 41.75 41.44
56.18 57.02 59.52 60.07 60.41 59.94 58.66 58.42 58.82 57.87 55.48 55.04 55.49 54.72 53.01 50.50 48.58 46.63 44.20 43.01 42.62 41.68 41.60 41.94 40.89 41.72 39.35 39.38 38.44 40.04 40.26 39.39
56.60 57.98 58.40 58.66 58.72 57.92 56.81 56.75 55.23 53.74 52.81 52.03 51.69 50.24 48.15 46.62 45.65 43.92 43.09 42.54 41.40 41.48 40.95 41.22 40.82 41.49 38.51 38.47 37.18 38.62 39.00 39.41

GFSFLT1_sfc_wetblb_045.txt.gz
Wetbulb
52.11 52.34 52.84 52.98 53.36 54.65 54.24 54.32 54.61 54.00 53.99 53.77 54.09 54.00 54.75 54.36 56.47 57.70 61.39 61.23 61.52 61.26 60.39 59.44 57.58 56.48 55.54 53.67 51.65 49.35 48.12 47.34
52.84 52.89 52.78 52.45 52.61 53.19 52.92 52.51 53.20 52.72 52.86 51.66 51.88 52.61 54.69 57.28 57.94 61.30 58.98 58.83 61.50 61.04 59.97 58.20 57.18 56.15 54.43 53.00 50.63 47.96 46.03 47.19
53.00 52.24 52.55 52.04 52.27 52.75 52.53 52.09 52.38 52.87 54.02 54.29 54.69 55.33 57.62 58.13 60.29 60.30 60.35 60.37 60.99 60.49 58.89 57.38 56.56 55.91 53.86 52.19 49.75 47.51 46.78 47.46
53.84 52.35 52.04 52.95 51.79 52.32 52.50 52.81 53.06 53.34 54.72 56.90 57.34 56.41 54.80 56.03 58.07 59.53 60.40 61.93 61.54 60.78 59.36 58.03 57.14 55.63 53.44 51.30 50.72 48.69 45.79 47.04
54.59 53.65 53.93 54.23 53.82 53.63 54.14 54.03 54.30 55.05 57.79 58.12 56.39 55.82 54.71 55.57 57.07 60.05 60.91 61.50 60.98 60.30 59.09 57.76 57.68 57.37 54.08 52.47 52.65 50.91 50.64 48.68
54.25 54.23 55.32 55.50 55.15 54.75 55.60 56.44 56.28 57.97 58.74 58.95 58.17 55.86 55.96 56.41 57.26 58.96 59.60 59.80 59.71 59.41 58.31 56.99 56.04 55.19 54.03 53.44 52.47 51.76 51.15 49.34
54.89 56.10 56.44 55.86 55.36 55.13 55.50 56.19 57.34 58.71 59.16 59.38 59.21 56.97 55.98 57.12 57.47 58.38 57.61 58.72 57.36 58.78 57.44 55.73 55.22 54.95 53.93 53.45 51.93 51.08 50.29 49.89
55.02 54.66 54.94 55.51 55.92 55.39 55.72 56.11 56.41 57.86 58.20 59.31 59.34 58.86 58.01 58.19 58.46 57.75 57.40 56.72 56.40 56.34 56.51 55.17 55.37 54.11 53.48 51.61 51.06 50.88 49.95 47.76
55.35 55.99 55.89 55.57 56.18 57.08 57.08 56.94 56.85 58.06 59.12 58.96 60.01 60.17 59.72 58.61 58.87 58.50 58.48 57.96 57.58 56.70 55.56 55.01 55.11 54.38 52.24 50.59 51.44 50.22 49.76 48.63
55.03 56.62 57.02 57.08 56.78 57.09 57.97 58.38 58.68 59.49 59.54 60.38 60.36 60.71 59.67 58.89 58.21 57.81 58.09 56.94 55.79 55.17 54.93 52.85 52.04 52.16 50.76 50.17 50.05 49.69 48.19 46.89
54.91 55.48 57.35 58.22 58.74 58.79 58.46 59.29 59.19 59.75 60.11 60.68 60.69 61.06 59.22 58.74 58.19 57.14 56.16 55.43 53.80 53.54 52.44 51.62 50.06 50.30 49.84 49.21 48.18 48.13 46.87 45.98
52.76 54.89 56.81 57.01 59.72 60.08 59.51 59.44 59.77 60.00 60.01 60.61 61.01 60.42 59.44 58.11 57.94 57.14 56.92 53.20 52.10 51.80 51.17 49.56 49.63 48.94 48.69 47.85 47.76 46.56 45.21 44.43
52.56 54.09 54.83 54.95 57.76 59.33 59.91 60.52 60.38 60.38 60.44 60.82 61.32 60.14 59.09 58.47 58.29 58.12 57.28 54.17 52.71 51.64 50.95 50.17 49.33 48.66 47.63 47.20 45.99 45.46 44.98 43.46
52.96 53.79 54.55 55.02 55.05 58.55 59.94 60.68 60.73 60.97 60.71 61.23 60.07 59.30 59.15 59.00 58.47 56.46 53.52 52.55 52.38 51.84 50.78 49.76 48.70 47.82 46.73 46.22 44.20 43.55 43.41 43.49
52.15 53.30 54.79 55.80 56.53 57.14 59.91 60.58 61.17 60.98 61.12 60.78 58.94 57.75 57.87 56.36 54.96 54.07 53.09 53.25 51.63 51.03 50.03 48.80 47.99 46.65 44.96 43.97 43.54 42.79 42.70 42.82
50.67 53.12 54.48 55.82 56.34 57.36 58.82 58.70 60.16 60.58 60.45 58.13 55.70 54.24 54.44 53.66 53.67 53.15 52.92 52.12 50.57 48.64 47.21 45.97 44.58 43.51 43.31 43.16 42.75 42.14 41.54 41.42
50.07 54.93 56.69 57.76 57.92 57.58 57.32 57.18 56.95 58.77 56.96 55.90 55.11 54.20 53.53 53.27 52.64 51.44 50.46 48.11 46.48 44.92 43.08 43.02 41.99 42.47 39.47 40.46 41.22 41.09 41.04 40.73
50.28 53.31 57.08 57.68 57.20 56.73 55.43 55.85 56.21 55.16 55.05 55.27 54.71 54.36 53.28 51.33 48.39 46.05 44.27 43.10 42.31 41.59 41.43 41.32 41.00 41.34 39.28 39.54 39.18 40.53 40.23 39.34
52.10 55.13 55.36 56.05 56.05 55.57 55.49 54.35 52.31 52.44 52.05 51.75 50.86 48.34 46.07 44.86 44.34 43.04 41.90 41.19 39.94 37.90 38.63 39.43 40.33 40.55 38.60 38.37 36.88 38.60 38.61 39.22

GFSFLT1_sfc_wetblb_048.txt.gz
Wetbulb
51.90 53.11 53.40 53.62 54.31 54.50 55.31 55.56 54.80 55.18 55.03 54.62 53.93 54.30 54.75 54.69 54.42 55.03 56.64 58.47 59.71 59.57 59.05 58.66 56.70 55.21 54.26 53.05 51.59 49.56 47.47 46.16
51.69 52.18 52.22 51.57 52.98 53.87 54.23 54.33 53.74 54.19 53.76 52.85 52.70 52.77 54.15 54.47 54.03 55.39 57.05 58.72 60.52 59.41 58.86 58.31 56.39 55.25 54.93 53.44 49.84 47.30 45.40 46.31
51.00 51.15 50.88 51.62 51.86 52.87 52.54 52.72 52.39 53.29 53.47 53.40 53.70 53.14 53.51 53.74 54.24 55.51 58.05 57.68 58.46 60.33 59.25 58.11 56.27 54.92 53.35 51.87 49.52 46.37 45.75 46.15
50.23 50.64 50.62 50.69 51.23 51.77 52.08 52.24 51.74 51.94 52.60 51.92 51.88 51.59 52.38 52.61 54.00 55.54 57.92 58.00 57.92 59.69 59.42 58.05 56.36 55.61 54.21 53.08 49.48 48.36 47.49 48.37
51.04 50.82 50.48 50.25 51.29 52.39 52.25 52.09 51.96 52.42 53.17 52.00 51.61 51.55 51.02 53.45 54.30 56.48 57.88 58.88 59.50 59.88 59.52 57.98 56.81 56.07 54.15 53.61 51.54 48.94 48.35 47.64
51.32 50.70 51.18 51.65 51.54 51.38 52.15 52.32 52.21 52.81 53.12 53.56 53.62 54.42 55.90 54.52 54.27 55.55 58.09 58.45 59.16 59.44 58.90 57.22 56.71 57.68 55.26 52.32 50.63 50.45 50.58 50.07
53.75 52.22 52.41 52.11 52.09 51.42 51.47 51.70 52.15 52.85 53.03 53.88 55.30 55.75 55.11 53.49 54.17 55.51 56.76 58.78 59.14 58.83 58.34 58.08 57.52 57.20 55.18 52.66 51.82 50.66 50.96 48.88
54.11 52.39 52.50 52.73 52.58 51.59 52.00 52.24 52.16 53.39 53.82 54.67 56.10 56.97 55.90 54.22 54.92 55.62 56.32 57.31 56.83 58.05 57.97 57.27 56.17 55.30 53.60 53.20 52.30 50.44 50.08 49.44
53.50 53.82 53.70 54.46 53.74 53.43 52.55 53.06 53.92 54.21 54.97 55.92 56.95 57.26 58.28 57.00 56.46 57.00 57.35 57.56 57.26 58.43 57.72 56.18 54.94 55.10 53.15 51.68 51.54 50.91 49.69 49.29
53.84 54.33 54.61 54.88 54.52 53.74 53.20 53.37 54.60 55.14 55.65 56.76 57.28 58.30 58.45 58.43 57.99 57.33 57.87 57.56 56.11 55.15 56.09 54.55 53.82 53.97 52.09 50.00 50.42 50.15 49.63 48.57
54.38 54.81 54.67 55.53 55.82 55.73 54.69 54.49 54.35 55.42 56.41 57.06 57.37 57.58 58.35 58.73 57.70 57.38 57.60 57.01 55.66 54.58 54.22 53.99 52.46 51.38 51.53 49.79 49.51 49.57 48.61 47.26
53.53 55.03 55.93 55.93 56.05 56.31 56.21 56.13 56.31 56.35 57.40 57.88 58.19 58.92 58.98 59.08 58.56 58.20 57.82 56.31 55.12 54.78 54.01 52.12 51.22 50.93 50.49 49.44 48.43 48.09 46.88 45.00
53.67 53.82 55.86 56.03 56.07 56.25 56.32 57.12 57.15 57.69 58.27 58.92 58.97 59.66 58.26 58.29 58.18 58.36 57.52 56.35 54.76 54.44 52.77 51.18 50.99 49.80 49.33 48.26 47.39 47.19 45.38 43.47
50.97 52.28 54.25 55.83 56.28 57.05 57.15 57.28 57.60 58.52 59.08 59.04 59.05 58.80 58.40 58.67 59.13 59.95 60.21 55.43 53.74 53.09 52.31 50.81 49.79 49.11 47.98 47.72 47.24 45.50 44.67 44.16
50.41 51.26 54.06 54.98 54.80 56.41 57.78 58.10 58.48 58.67 59.11 59.07 58.82 59.33 58.87 59.07 59.50 59.29 57.52 54.58 52.77 51.74 51.17 50.63 49.63 48.47 47.25 46.07 44.37 43.67 43.70 43.64
49.15 51.00 52.75 53.21 53.88 55.41 56.18 57.65 57.90 59.21 59.13 59.02 59.05 59.35 59.48 58.12 56.83 54.15 53.04 52.36 52.03 50.56 49.75 48.98 47.56 46.09 44.87 43.67 43.40 43.02 42.89 42.50
48.41 52.28 53.04 54.59 56.39 57.04 57.03 57.33 58.49 59.41 59.01 59.06 59.32 57.39 56.89 54.95 54.27 53.45 51.87 50.40 49.77 48.06 47.46 45.21 43.67 43.13 39.72 40.46 42.07 42.02 41.73 41.24
47.29 51.83 54.76 55.94 56.90 56.67 55.87 56.59 58.21 58.93 59.12 57.70 55.67 55.41 54.83 53.61 52.08 50.32 48.45 47.63 46.68 43.96 43.24 42.78 42.26 41.97 39.04 39.69 39.11 40.98 40.31 39.85
47.22 52.68 54.87 55.48 55.02 54.65 54.05 55.02 54.91 55.37 55.31 54.74 54.15 52.44 50.52 49.65 48.76 46.15 45.04 45.16 44.55 42.69 41.45 41.72 41.80 41.21 38.50 38.51 37.52 38.85 38.72 38.89

GFSFLT1_sfc_wetblb_051.txt.gz
Wetbulb
51.10 53.81 54.18 54.26 54.66 55.51 55.57 55.85 56.61 56.36 55.45 54.94 55.06 54.98 53.95 54.15 53.88 57.05 59.09 59.18 60.23 58.75 57.99 56.92 55.97 54.31 53.33 51.75 49.97 48.65 47.22 46.14
50.99 52.19 53.29 53.18 54.09 54.15 55.59 54.99 55.08 55.63 55.01 54.47 53.97 53.97 53.92 53.95 54.20 55.78 56.45 57.28 59.36 58.76 57.92 57.42 55.42 54.44 53.64 52.79 49.51 47.73 45.62 45.15
50.32 50.21 51.80 51.88 53.11 53.47 54.43 54.60 54.70 55.13 55.64 56.10 55.45 54.78 54.16 54.28 54.23 54.63 55.80 57.17 57.21 58.08 57.66 57.22 56.11 53.90 53.12 51.85 49.20 46.00 45.47 45.79
49.54 49.95 50.54 50.26 51.47 51.25 53.14 53.20 53.35 53.61 54.32 54.98 53.35 53.23 52.70 51.26 52.74 52.70 54.39 56.61 56.42 57.85 58.35 57.42 56.15 54.58 53.65 52.36 49.91 47.87 45.86 46.71
49.88 49.53 49.07 49.34 50.38 51.84 51.88 52.03 51.79 51.69 52.72 51.79 50.80 51.45 50.76 51.89 51.72 51.95 52.97 55.39 56.59 56.35 57.58 57.80 56.43 55.57 54.13 53.53 52.91 49.92 49.46 45.12
50.04 49.64 49.88 50.01 50.76 51.12 51.50 51.86 51.94 51.63 51.48 50.95 49.28 49.43 49.78 50.66 51.24 51.66 52.96 55.38 56.89 57.94 57.86 57.40 57.04 56.11 55.22 53.97 52.08 50.65 50.82 49.43
51.69 51.12 50.80 50.14 49.82 50.41 50.96 51.08 51.29 51.65 51.64 51.56 50.73 50.38 51.26 51.49 52.22 52.77 53.87 55.23 56.64 57.25 57.77 56.90 56.41 56.33 55.75 55.04 53.79 52.20 50.59 49.82
52.04 50.15 49.73 50.30 49.62 50.02 50.42 50.75 50.68 51.54 51.29 51.56 51.85 51.62 52.50 53.35 53.39 53.37 53.99 54.65 55.76 57.38 56.85 56.03 56.13 56.86 56.85 56.53 53.80 52.06 50.67 50.20
52.70 51.87 50.57 50.51 50.71 49.83 50.08 50.62 50.72 51.31 51.25 51.31 52.15 53.30 54.56 55.42 55.26 54.67 54.07 54.70 55.69 56.91 57.84 57.84 57.70 57.46 57.53 55.77 54.62 53.62 51.89 50.58
52.76 53.63 51.75 51.38 51.56 51.36 50.15 50.55 51.01 51.47 51.59 51.81 51.95 52.80 54.01 55.26 56.52 55.71 55.38 55.44 55.79 55.45 57.97 57.22 57.23 56.19 55.23 53.16 52.56 50.91 50.51 49.94
51.06 53.71 53.26 53.11 53.17 53.18 51.97 51.68 51.56 51.92 52.26 52.54 52.84 53.74 55.25 55.95 56.83 56.91 56.06 56.87 55.83 54.65 56.03 55.47 54.63 54.20 52.72 50.68 49.51 50.40 49.81 48.97
51.10 52.75 54.35 54.28 54.71 54.18 53.46 52.06 52.46 53.35 54.07 54.03 53.60 54.38 55.73 56.48 56.91 57.31 57.33 56.74 56.75 56.01 55.41 55.19 54.36 52.51 51.53 49.88 49.30 49.51 49.08 47.71
51.82 53.06 54.15 54.05 54.22 54.90 53.89 53.75 52.82 53.13 54.20 55.05 55.01 55.44 56.36 56.48 56.78 57.72 57.90 57.64 56.75 56.69 56.23 55.31 54.34 52.76 51.63 50.05 48.52 48.65 48.19 46.12
49.73 51.69 53.62 53.69 54.31 54.74 54.84 54.61 53.95 54.18 54.28 54.43 55.12 55.77 56.53 56.93 57.85 58.46 58.59 58.26 57.68 57.23 55.19 53.91 52.68 51.83 50.89 49.15 48.89 47.58 46.43 45.52
48.04 49.65 51.78 53.93 54.43 54.61 54.87 55.25 55.70 55.59 55.57 55.19 55.16 55.87 57.17 58.39 58.62 58.37 58.41 58.39 57.66 54.10 53.17 53.10 53.04 50.61 49.87 48.73 48.60 46.24 45.02 44.38
47.55 49.18 50.81 52.38 53.93 54.60 55.49 55.53 55.73 56.42 56.24 56.22 56.19 56.77 57.76 58.07 57.84 58.23 58.63 57.66 55.93 53.80 51.37 51.62 49.64 49.50 48.21 47.79 45.47 44.19 43.87 43.25
46.91 50.62 51.07 51.98 53.08 53.88 54.92 55.87 56.20 56.65 56.03 56.28 57.31 57.49 57.52 57.36 57.56 58.35 56.11 53.82 53.49 52.28 51.63 50.44 48.28 47.67 41.30 40.98 42.97 43.36 43.29 42.59
47.39 47.70 51.54 52.27 53.05 53.55 53.84 54.77 55.42 56.19 56.58 56.79 57.15 57.56 57.61 57.42 56.27 53.43 52.87 51.45 49.76 47.94 46.32 47.07 46.19 43.50 39.39 40.22 40.02 42.48 41.81 41.31
46.93 46.21 51.00 53.71 54.01 54.29 53.48 55.09 55.75 56.11 56.30 56.29 57.08 57.44 56.75 53.78 52.29 50.65 48.19 47.38 46.12 44.79 44.32 43.87 44.29 41.87 38.68 38.69 38.04 40.37 39.89 39.20

GFSFLT1_sfc_wetblb_054.txt.gz
Wetbulb
50.82 52.16 54.13 54.29 54.92 55.76 56.00 57.45 58.52 57.88 56.90 56.20 55.98 55.49 54.63 56.45 57.44 57.38 57.65 58.40 58.06 57.20 56.45 56.08 55.27 54.19 53.01 51.51 49.60 48.56 47.65 45.73
50.62 51.74 52.41 53.15 54.03 55.31 55.01 56.22 56.64 56.28 55.70 55.70 55.68 54.70 53.78 53.72 55.56 57.87 58.57 59.31 59.61 57.99 57.85 57.04 56.06 54.38 54.17 51.98 49.86 48.09 46.47 46.05
50.00 50.57 52.53 52.47 53.30 54.54 55.21 55.23 56.02 56.64 56.02 56.51 56.92 56.02 55.11 54.91 54.31 55.31 56.74 57.42 58.59 58.82 57.60 56.80 55.21 54.27 53.04 51.26 49.53 46.77 46.80 45.57
48.96 49.38 51.12 51.80 52.73 52.81 54.64 54.54 55.48 55.98 56.63 55.80 55.01 55.37 54.38 53.73 53.55 52.61 54.65 56.52 56.81 57.67 57.66 56.72 55.49 54.15 52.77 51.56 49.91 48.13 46.04 45.52
49.17 48.88 49.91 50.93 51.99 52.26 53.23 54.02 53.83 54.40 55.85 54.72 54.74 54.13 52.76 53.98 53.18 53.03 53.32 55.76 56.42 56.53 57.47 57.20 56.20 55.17 53.47 52.84 51.91 49.52 48.55 46.92
49.13 49.09 49.27 50.73 50.35 50.96 50.28 52.94 53.18 53.09 53.52 53.90 54.53 54.73 54.49 54.16 51.96 51.87 52.62 53.34 55.83 56.48 55.29 55.37 55.81 55.34 54.87 53.92 52.77 50.44 50.98 49.88
50.87 50.05 49.68 49.19 49.80 50.63 50.32 50.72 51.41 51.40 50.80 51.00 51.19 51.77 50.72 50.92 50.71 50.63 50.63 51.83 52.92 54.93 55.57 55.33 55.71 55.09 54.45 53.53 52.68 52.01 51.84 51.22
50.90 48.68 48.68 48.61 48.70 49.64 50.65 50.61 50.73 51.41 50.39 50.32 49.72 50.25 50.56 50.22 50.57 50.82 50.67 51.40 52.29 53.32 53.79 54.01 54.29 54.99 54.95 54.91 54.21 53.88 52.84 51.98
51.63 50.35 49.46 49.20 49.31 49.50 50.23 50.62 50.54 51.09 50.81 50.60 50.82 50.32 50.76 51.45 51.75 51.97 52.36 52.81 52.92 53.35 54.50 55.23 54.79 55.47 55.33 56.24 55.90 55.01 54.02 53.12
51.69 52.05 50.53 50.04 49.71 49.67 49.68 50.31 50.72 51.12 50.97 51.06 50.88 51.31 51.33 51.26 52.38 53.40 53.70 53.54 53.99 53.23 54.73 56.28 56.72 56.78 56.56 56.58 56.44 55.64 53.70 52.97
51.04 52.49 51.69 51.16 51.14 50.66 50.58 50.69 50.32 50.94 50.81 51.04 51.08 51.19 51.69 52.25 52.52 53.56 54.11 54.54 53.27 53.21 53.42 54.95 56.22 57.09 57.30 57.02 56.06 54.20 51.68 50.57
48.30 51.94 53.15 52.09 51.68 51.31 51.10 50.60 50.69 50.58 51.56 51.48 51.25 51.21 51.42 51.92 52.94 53.70 54.68 54.91 54.54 54.38 54.48 54.91 55.59 55.25 55.30 54.22 54.45 52.55 51.51 49.87
48.61 49.24 51.77 52.14 51.37 51.83 51.79 51.09 50.37 51.13 52.07 52.03 51.54 52.29 52.42 52.27 53.00 54.66 55.25 55.72 56.40 56.64 56.48 56.08 55.77 54.67 53.79 53.12 51.94 50.68 50.21 48.31
48.27 48.63 50.42 52.46 52.40 52.63 52.73 52.45 51.36 51.86 52.43 52.21 52.76 52.64 52.81 52.86 54.14 55.25 56.10 56.20 56.55 56.65 56.92 56.02 55.87 55.06 53.30 52.75 52.90 51.20 49.95 48.31
46.62 48.89 50.83 52.18 52.95 53.23 53.74 53.57 53.64 52.93 51.92 51.97 52.12 52.82 53.62 53.80 54.70 55.22 55.86 56.96 56.58 57.23 56.04 56.46 55.63 54.91 53.79 52.69 51.56 50.16 48.50 46.99
45.56 47.54 49.39 52.02 52.38 52.91 53.76 54.18 54.09 54.13 52.96 52.22 51.82 52.67 53.59 54.21 54.97 55.78 56.21 56.91 57.01 57.31 57.15 56.38 54.83 53.57 51.88 50.98 49.93 48.58 46.92 45.84
46.25 46.81 48.58 48.83 51.94 52.74 53.21 53.86 54.41 54.57 53.60 53.12 53.49 53.11 53.33 53.64 54.72 55.51 56.56 57.09 57.31 57.53 55.82 54.88 52.05 51.15 44.90 43.70 47.02 46.52 45.57 45.01
46.47 46.54 47.92 50.68 51.02 52.66 52.78 53.64 54.18 53.84 54.11 54.31 54.40 54.57 54.30 54.61 55.39 56.63 56.82 56.90 56.84 53.78 52.55 51.75 51.09 50.69 43.96 41.28 41.56 44.41 43.78 43.12
46.59 47.08 46.86 48.94 51.10 51.85 53.02 52.51 53.30 53.84 53.78 53.86 54.21 54.50 55.07 55.27 56.66 56.50 55.87 53.13 51.47 50.08 47.42 48.47 46.15 42.46 40.12 39.36 39.51 42.07 41.20 40.92

GFSFLT1_sfc_wetblb_057.txt.gz
Wetbulb
54.45 55.36 56.58 56.48 57.05 57.79 57.44 58.84 57.81 58.30 58.09 58.65 59.74 59.88 59.53 59.21 59.08 60.12 60.92 60.15 60.35 60.63 59.84 59.63 59.07 58.85 57.62 56.83 55.71 55.23 53.52 52.36
54.55 55.15 56.16 55.92 56.64 57.10 56.35 57.14 57.40 57.90 56.88 56.94 57.40 57.08 57.81 59.47 60.17 60.75 60.54 60.49 59.95 59.90 60.20 59.47 59.06 58.34 58.28 58.00 56.56 54.94 53.09 52.55
53.42 54.35 55.04 55.05 55.40 55.45 56.72 57.06 57.82 57.57 57.50 57.89 58.64 57.38 55.89 59.31 60.69 60.55 60.71 60.87 60.21 60.64 60.19 60.11 59.31 59.03 58.72 58.20 57.13 55.27 55.10 52.73
51.76 52.25 53.68 54.88 54.71 56.00 56.06 56.59 56.89 57.96 58.55 58.27 58.08 57.40 55.47 55.29 56.29 58.19 59.70 60.74 61.06 61.00 61.10 60.93 60.14 59.69 59.25 58.88 57.96 56.38 54.30 52.76
52.45 51.37 51.92 53.23 55.12 56.52 56.95 56.98 56.52 57.23 57.77 57.43 55.84 55.61 53.60 56.53 55.74 55.49 56.71 58.23 58.70 60.38 59.93 59.82 59.25 59.14 59.06 58.86 58.27 57.24 56.33 54.68
52.85 51.92 52.64 54.13 55.20 54.94 56.41 56.25 55.87 56.63 57.21 58.22 56.63 54.87 55.76 56.30 55.34 53.96 55.95 57.12 58.04 58.00 58.15 58.78 60.09 59.92 60.30 59.22 58.06 56.77 56.82 56.18
54.18 54.14 53.74 53.68 54.72 54.58 55.18 56.24 54.86 55.49 56.04 56.37 56.34 55.25 54.68 53.66 54.03 53.54 53.34 54.36 56.01 56.60 56.31 56.68 59.01 60.48 60.59 60.59 60.18 58.63 57.52 57.02
53.90 52.85 52.20 51.82 51.42 52.61 53.88 55.09 55.25 55.32 55.59 56.41 56.67 55.96 55.94 54.57 54.23 54.30 54.30 53.22 54.66 56.02 57.77 57.65 59.38 59.96 59.78 60.28 59.85 59.37 58.94 58.18
54.47 54.08 53.50 52.54 52.09 52.71 53.25 53.98 54.72 55.41 54.87 54.78 55.95 57.31 57.00 57.23 57.10 56.96 56.86 55.72 56.31 58.62 57.68 58.36 58.57 59.15 59.54 59.89 60.22 59.87 59.56 58.96
54.45 54.60 54.21 53.70 53.31 53.23 53.56 54.03 54.80 55.28 55.37 55.51 55.16 55.66 55.99 56.07 57.11 57.37 57.42 57.63 57.24 57.29 57.63 58.51 59.14 59.17 59.49 59.75 59.90 59.53 59.00 58.41
54.23 55.17 54.33 54.64 54.50 54.14 54.19 54.74 54.50 55.12 55.46 55.84 55.35 55.39 55.45 55.95 56.47 56.39 56.79 57.40 57.59 57.55 57.52 58.48 58.85 59.02 59.26 59.30 59.94 59.57 57.79 57.43
53.39 55.39 55.76 55.09 55.03 54.18 53.71 53.87 54.15 54.63 54.97 55.49 55.80 55.55 55.95 56.06 56.00 56.31 56.85 57.80 57.62 57.00 57.12 57.45 57.68 58.57 59.54 59.64 59.62 58.19 56.58 56.20
53.27 54.44 55.94 55.25 54.39 54.17 53.77 53.79 53.83 54.60 55.34 55.51 55.55 55.94 55.76 55.72 55.70 56.39 57.00 56.90 58.05 57.83 58.23 57.80 58.11 58.71 58.33 58.55 57.44 56.97 55.85 54.65
52.85 52.39 54.33 55.36 55.19 54.64 54.36 54.46 54.53 54.78 54.54 54.61 54.92 54.76 54.56 54.08 54.00 54.87 55.36 56.15 56.50 58.15 58.57 58.61 57.86 57.76 56.74 55.31 56.25 55.75 54.83 54.25
50.64 52.45 53.33 54.89 55.46 55.17 55.11 55.48 55.44 55.11 54.52 54.70 54.50 54.77 54.67 54.61 55.20 55.19 55.14 55.80 55.87 57.26 57.76 58.42 59.02 58.59 57.23 55.62 54.65 54.67 54.27 52.71
50.06 50.62 53.53 54.58 54.85 55.77 55.94 55.98 56.19 55.92 54.62 54.62 54.60 55.45 55.70 55.89 56.08 56.20 56.48 56.68 56.00 57.19 57.66 57.36 58.18 58.29 57.62 57.51 55.45 54.18 52.71 51.04
51.07 51.07 50.73 52.77 54.58 55.23 55.99 56.20 56.77 56.73 55.63 54.53 55.54 56.03 55.77 55.89 56.26 56.29 56.79 57.28 57.53 57.81 58.05 57.36 57.34 56.90 49.07 45.81 50.90 53.38 52.62 50.86
50.34 50.86 51.70 52.47 53.73 55.10 55.80 56.86 57.15 56.52 56.26 56.07 55.99 55.80 55.40 55.66 56.01 56.18 56.58 56.98 58.08 58.08 57.76 57.55 56.93 57.45 44.90 44.54 44.17 51.66 49.36 47.65
50.19 51.04 52.27 53.07 53.95 54.77 56.24 56.54 56.65 56.47 56.11 55.95 56.03 56.12 55.43 55.61 55.31 55.45 56.67 57.69 57.83 56.92 56.31 56.21 55.25 52.83 43.45 43.63 41.64 45.93 44.25 43.35

GFSFLT1_sfc_wetblb_060.txt.gz
Wetbulb
58.60 58.93 59.60 60.33 61.37 58.93 60.17 59.40 58.81 58.97 58.06 59.04 59.79 59.15 58.86 59.87 60.09 62.00 61.70 61.45 62.19 61.51 60.72 61.73 62.14 61.04 60.71 60.37 59.44 58.71 57.92 57.09
59.04 59.07 60.26 60.50 59.97 59.76 57.92 58.26 58.19 58.46 56.99 57.09 57.83 57.75 57.81 58.67 59.17 60.71 61.87 61.94 62.45 62.28 61.81 62.05 62.42 61.68 61.49 61.18 59.91 58.86 57.52 57.59
58.03 58.58 59.42 59.18 59.72 59.68 57.96 57.55 58.00 57.77 58.81 57.51 58.38 59.49 59.48 58.92 58.82 59.24 61.37 62.65 62.16 61.68 61.42 61.49 61.59 61.67 61.77 61.14 60.22 59.20 58.65 57.40
57.98 57.88 58.49 59.11 58.13 57.22 59.78 59.45 57.89 57.81 58.18 59.04 58.42 58.57 57.13 57.94 58.23 57.75 59.41 62.64 63.04 61.75 61.15 62.38 62.06 61.70 61.13 61.39 60.96 59.85 58.02 58.53
58.90 58.40 58.34 58.53 59.25 59.34 59.78 59.58 59.52 58.97 59.20 57.88 58.09 55.45 55.73 56.30 58.63 59.16 60.55 61.83 62.14 61.96 60.99 62.50 62.59 62.39 61.39 62.10 61.92 60.81 60.84 58.65
58.73 58.72 58.84 59.05 59.61 58.91 58.39 59.36 59.18 58.30 58.60 58.61 57.23 56.24 55.96 56.68 57.64 59.24 60.60 60.37 61.39 61.43 61.27 62.67 62.70 62.67 62.42 62.42 61.51 60.23 60.74 59.87
59.46 59.61 59.41 58.83 59.58 59.62 58.08 57.56 58.12 57.98 58.01 58.45 57.82 57.13 55.96 55.65 56.52 56.47 56.96 58.83 60.25 61.06 61.49 62.56 62.62 61.53 60.27 58.27 60.59 61.67 61.60 60.92
58.96 58.72 58.30 58.80 58.32 58.76 58.37 56.52 56.59 58.26 57.89 58.19 58.78 59.39 58.21 55.46 55.65 56.53 57.41 58.86 59.10 59.23 60.44 61.43 60.57 60.19 59.56 59.04 60.74 62.36 62.44 61.26
59.11 59.21 59.05 59.13 58.42 58.53 58.19 57.96 56.70 57.09 58.03 57.91 59.13 60.30 59.43 56.02 56.81 57.01 56.76 57.06 58.63 58.22 57.60 60.52 60.53 59.14 59.62 62.08 61.30 61.00 61.53 61.51
59.03 59.81 59.76 59.62 58.84 58.29 58.00 58.25 59.06 58.75 58.06 58.47 58.55 60.16 60.03 59.74 59.14 58.04 57.92 59.50 57.45 56.97 57.33 58.36 60.20 60.70 60.57 60.99 61.29 60.73 61.63 61.75
59.04 60.03 59.91 60.20 59.91 59.07 58.68 58.89 58.86 59.96 60.01 60.27 60.25 60.70 60.53 60.82 61.26 60.43 60.12 61.19 60.90 59.68 58.90 59.09 59.71 60.11 60.38 60.38 60.93 61.36 61.34 61.92
59.18 59.93 60.36 60.69 60.80 59.92 58.93 58.55 58.68 59.40 59.93 60.10 60.07 60.01 60.47 60.86 60.43 61.21 61.20 61.82 61.36 60.75 60.52 60.08 59.62 59.91 60.74 60.91 60.83 60.69 60.47 61.34
58.70 60.03 60.52 59.86 60.18 60.08 59.39 58.99 58.75 59.09 59.86 60.03 59.80 60.20 60.08 59.76 60.01 60.18 61.99 61.26 61.82 61.49 61.05 60.89 60.49 60.71 61.57 61.04 60.93 60.06 60.38 60.61
57.83 58.68 59.66 59.98 60.07 60.05 59.82 59.56 59.18 59.39 59.13 59.18 59.39 59.44 59.76 59.76 60.07 59.97 60.22 60.17 60.72 60.47 60.68 60.76 60.66 60.78 60.75 60.69 60.25 60.32 60.67 58.84
55.52 57.65 58.34 59.58 60.16 60.25 60.03 59.95 60.09 59.92 59.06 58.73 58.95 59.48 59.83 59.93 59.88 59.95 60.32 59.87 59.07 59.12 60.28 60.16 59.95 60.51 59.83 60.19 59.68 59.91 58.53 56.89
55.33 55.55 56.80 58.59 59.19 60.29 60.33 60.44 60.27 60.35 59.25 58.51 59.09 59.60 59.47 59.35 59.25 59.38 59.45 59.46 59.18 59.18 59.37 59.85 60.28 59.10 59.45 60.42 59.19 59.09 56.96 56.10
55.05 55.68 55.99 56.11 58.22 59.55 60.30 60.19 60.19 60.25 59.30 59.04 59.24 59.24 59.02 58.80 58.81 58.83 58.91 58.86 58.42 58.63 58.84 58.81 59.34 59.11 50.48 46.69 53.38 60.05 57.62 56.30
52.93 53.78 54.61 55.80 56.92 58.01 59.52 60.76 61.22 60.10 59.38 59.22 59.12 59.12 58.79 58.82 58.81 58.54 58.30 58.42 58.81 58.61 59.32 59.25 59.53 60.55 47.33 45.16 44.98 58.10 56.58 55.72
54.11 54.06 54.80 55.39 56.39 56.79 58.68 60.11 60.90 60.51 59.88 59.37 59.42 59.15 58.72 58.93 58.72 58.23 58.65 59.16 58.95 59.21 59.42 59.69 58.22 58.05 46.41 44.79 43.89 53.53 55.11 52.88

GFSFLT1_sfc_wetblb_063.txt.gz
Wetbulb
61.54 60.77 61.87 62.94 62.85 62.53 61.59 60.89 60.41 59.60 60.31 59.79 60.60 59.64 59.44 59.61 60.07 61.03 61.96 61.07 61.48 61.48 61.85 62.69 61.70 60.44 59.91 61.19 61.54 60.96 60.07 59.09
61.85 60.89 61.57 62.38 62.68 61.79 60.49 59.91 58.94 57.36 58.22 58.55 58.07 57.75 58.19 58.98 59.84 60.29 61.93 59.76 61.35 61.77 61.44 61.84 62.11 59.94 59.93 62.17 60.53 59.73 57.98 59.03
60.60 60.29 61.16 61.98 61.94 60.44 59.58 59.07 58.20 57.38 57.37 58.51 59.07 58.24 58.04 58.14 59.48 59.86 61.61 61.26 62.15 62.61 62.30 61.50 61.43 61.61 62.33 61.71 61.34 59.00 58.64 58.66
60.12 59.63 60.34 61.41 61.54 60.32 60.10 59.08 58.39 58.02 57.13 58.19 58.92 58.63 58.02 56.76 58.04 58.25 59.30 60.37 61.99 62.37 62.95 62.61 62.23 63.12 61.73 62.13 62.66 61.61 58.55 58.94
61.18 60.28 60.01 60.69 61.12 61.71 61.94 60.62 58.93 58.53 58.60 57.60 57.30 57.45 56.36 57.49 56.94 58.69 58.55 58.64 61.82 61.80 60.35 60.81 62.65 62.22 62.32 62.61 62.62 62.10 61.61 58.77
60.70 60.88 60.83 61.07 61.62 61.21 60.90 60.43 60.00 59.30 59.60 58.00 57.51 56.77 58.14 58.47 57.86 57.72 57.56 57.74 59.81 59.68 60.87 59.91 60.66 62.89 62.60 62.96 62.82 62.31 62.23 60.16
60.98 61.99 61.99 60.95 61.53 61.58 61.35 59.26 59.07 59.86 59.04 58.36 57.69 56.35 57.77 56.65 57.81 57.27 57.10 58.09 59.18 61.23 61.21 60.38 59.84 60.74 61.24 62.02 62.16 62.70 61.76 61.46
60.18 60.88 60.92 60.50 60.27 60.98 60.55 59.85 58.44 59.09 58.80 58.74 58.50 58.28 57.90 57.32 57.52 56.90 56.34 56.62 58.79 61.05 61.56 61.51 61.24 60.81 60.01 61.59 62.23 62.34 62.33 61.42
60.00 60.99 61.30 60.87 60.23 60.72 60.73 59.50 59.48 58.67 58.60 58.31 58.78 59.03 59.40 58.50 57.30 57.33 57.18 58.02 59.72 61.08 61.97 61.91 61.52 60.79 59.47 61.02 61.04 60.87 61.38 61.50
59.56 60.94 61.71 61.41 60.75 60.48 60.70 59.76 59.83 59.74 58.92 58.43 58.46 59.11 58.96 58.72 59.61 58.98 57.03 59.64 60.61 61.08 61.19 61.23 61.38 61.40 61.62 61.03 59.49 58.38 60.19 59.16
59.53 60.69 61.65 62.03 61.88 61.26 61.18 60.75 60.37 60.48 60.38 59.77 59.07 59.48 60.81 59.73 60.02 59.55 59.21 59.43 61.59 61.29 61.54 60.87 60.53 59.56 59.31 60.77 59.68 59.57 59.58 60.58
59.24 60.73 61.82 62.55 62.76 61.76 60.98 60.45 60.31 60.79 60.86 60.11 59.61 59.37 61.18 60.62 60.59 61.66 61.22 61.45 61.40 61.21 60.07 60.00 60.11 59.90 59.87 59.08 60.61 60.91 60.08 60.45
59.78 61.02 61.80 62.02 62.19 62.10 61.22 60.75 60.07 60.63 61.71 61.31 61.15 61.52 61.64 61.07 61.83 62.24 63.27 62.07 62.10 62.19 62.07 60.65 60.22 60.32 60.53 59.87 59.67 60.22 60.17 59.75
58.61 60.43 61.02 61.47 61.99 62.34 61.90 61.42 60.74 60.81 60.99 61.34 62.25 62.60 62.76 62.75 62.93 62.73 63.08 63.02 62.45 62.19 61.96 61.59 61.28 61.20 61.29 61.15 60.78 60.55 60.77 60.70
56.33 58.49 60.08 61.53 61.99 62.20 62.29 62.25 62.26 61.45 60.65 60.86 61.29 61.93 62.13 62.61 62.89 62.90 62.73 63.00 62.33 61.39 61.02 61.32 61.96 61.77 61.72 61.60 61.22 60.93 60.91 60.73
55.78 56.42 57.61 59.14 60.77 61.93 62.29 62.51 62.57 62.43 61.28 60.27 60.94 62.32 62.50 62.06 62.40 62.43 62.44 62.27 62.28 62.34 62.07 62.18 62.08 61.79 61.30 61.35 61.24 60.91 60.65 60.05
55.23 55.72 56.24 56.77 57.57 59.62 61.28 61.95 62.28 62.54 61.57 61.66 61.43 61.88 61.70 61.74 61.81 61.89 62.12 62.02 61.80 62.00 61.17 61.07 61.04 60.44 51.44 46.98 53.79 60.86 60.18 59.86
54.24 55.21 56.03 56.92 57.45 57.87 58.49 60.81 62.83 62.16 61.96 61.66 61.72 62.03 61.37 61.38 61.69 61.09 61.19 61.20 61.68 61.03 60.86 60.83 60.40 61.01 47.69 45.55 44.47 58.48 59.55 60.22
54.23 55.44 56.36 57.85 58.35 58.18 58.16 58.68 60.09 61.61 61.21 61.31 61.63 61.76 61.38 61.50 60.92 60.35 60.70 60.94 60.70 60.35 60.47 60.56 60.40 60.31 46.49 44.68 43.32 55.21 57.47 59.04

GFSFLT1_sfc_wetblb_066.txt.gz
Wetbulb
61.55 60.48 61.01 62.25 62.34 61.45 60.80 61.26 60.75 60.28 60.25 60.05 59.82 59.32 60.48 60.23 59.75 59.84 59.44 59.78 60.54 61.13 60.52 61.03 60.05 60.18 59.70 59.15 58.03 58.31 57.30 56.17
61.76 60.60 61.02 61.63 61.94 61.29 60.72 60.00 59.24 58.91 58.71 58.20 57.58 56.96 57.64 58.51 58.33 58.12 58.56 59.91 60.16 59.66 59.52 60.04 59.01 58.13 57.60 58.14 57.76 56.27 55.95 56.65
60.71 59.75 60.09 61.06 61.15 60.71 59.99 59.50 57.84 58.62 58.45 58.26 58.49 57.43 57.23 57.41 58.68 58.20 59.36 59.47 59.10 59.12 59.29 59.07 59.50 58.60 57.92 57.51 56.36 54.87 55.15 55.51
59.66 59.19 59.22 60.43 60.90 60.34 59.76 59.21 57.50 57.63 59.01 58.52 58.28 57.82 57.40 56.43 57.46 58.19 58.57 58.56 58.44 58.07 59.68 59.13 58.45 59.68 58.32 57.93 58.16 56.46 54.46 54.83
60.16 59.25 58.68 59.79 60.57 60.66 60.13 58.95 57.44 57.20 58.41 57.85 56.87 55.89 54.55 55.35 57.04 58.00 57.97 58.87 58.41 58.69 59.86 59.43 58.89 59.27 59.17 59.41 60.07 58.33 57.65 53.91
59.81 59.54 59.57 60.11 60.83 60.40 59.89 59.12 58.09 57.56 57.42 57.70 57.17 56.21 56.44 56.41 56.59 57.17 57.43 57.54 58.78 59.45 60.05 60.10 60.22 59.62 59.65 59.28 59.01 59.01 58.44 56.99
59.68 61.05 60.81 59.93 60.60 60.27 60.27 59.31 58.19 58.64 57.58 57.67 57.05 56.18 56.52 55.49 55.23 55.81 56.71 56.78 56.89 58.35 59.65 59.25 58.94 59.24 59.33 59.09 59.06 58.60 59.05 58.37
58.48 59.99 59.75 59.43 59.46 59.82 59.33 59.34 58.56 58.71 58.09 57.29 57.62 56.97 56.99 56.12 55.02 55.07 55.97 55.76 55.45 55.98 58.81 58.79 58.16 58.57 59.55 59.37 58.59 58.51 58.83 58.04
58.15 59.87 60.37 59.75 59.26 59.97 59.32 58.58 58.24 58.62 58.16 57.63 57.48 57.36 57.10 57.25 57.20 56.16 56.28 56.53 56.29 56.80 58.29 58.77 58.85 58.65 58.86 58.66 57.45 57.31 57.53 57.47
57.51 59.54 60.64 60.36 59.33 59.53 59.32 58.81 58.51 58.92 58.65 58.13 57.69 57.67 57.10 57.06 57.44 57.59 57.29 57.32 57.04 57.35 58.70 58.53 59.04 59.24 58.57 57.85 57.40 56.65 57.13 57.57
57.77 58.78 60.69 61.08 60.28 60.18 60.49 59.49 58.91 58.88 58.65 58.11 57.94 58.05 58.63 58.16 57.50 57.17 57.02 57.31 57.34 57.11 58.46 58.93 59.01 59.18 59.20 58.22 57.37 56.79 56.30 56.81
58.03 58.80 60.96 61.47 61.19 60.09 60.00 59.82 58.91 59.11 58.67 58.32 57.69 57.89 58.38 58.73 57.90 57.65 57.63 57.55 57.63 57.46 57.86 58.39 58.63 59.01 59.02 57.94 57.31 57.08 56.51 56.03
58.36 59.61 60.51 61.12 61.13 60.54 59.82 59.67 59.21 59.70 59.69 59.09 58.13 57.99 58.34 58.63 58.60 58.78 58.92 58.18 57.80 57.65 58.36 58.63 58.69 58.64 58.61 58.20 57.59 57.69 56.75 55.90
57.90 59.73 60.02 60.69 61.02 61.28 60.60 60.20 59.42 59.81 60.47 59.53 58.98 58.48 58.07 58.54 59.55 59.21 59.24 59.07 58.84 58.21 58.60 58.25 58.23 58.22 57.92 57.66 57.15 56.64 56.24 56.40
55.32 56.48 59.66 60.78 61.18 61.30 61.63 61.20 60.70 60.05 59.85 60.01 59.31 58.81 58.84 58.44 59.47 59.99 59.43 60.25 59.44 58.88 58.66 58.33 58.38 57.84 57.68 57.63 57.37 56.51 56.26 56.37
54.51 54.92 55.59 56.58 59.17 61.24 61.68 62.11 61.88 61.20 59.98 59.07 59.16 60.18 60.61 60.48 59.91 59.93 60.18 60.13 60.08 60.06 59.27 58.67 59.10 58.97 58.79 57.73 57.31 57.04 56.70 56.42
53.95 55.02 55.73 56.05 56.71 57.14 57.38 61.02 61.84 62.13 60.70 59.83 59.98 59.72 60.46 60.13 60.22 60.46 60.55 60.28 59.82 59.80 59.22 59.18 58.46 58.67 51.24 47.16 52.73 57.64 57.58 57.24
52.51 53.44 54.88 56.02 55.50 56.23 56.18 57.49 58.00 61.49 61.15 61.08 60.83 60.32 59.64 59.85 60.06 59.90 59.46 59.24 59.37 58.93 58.97 59.03 58.66 59.06 48.21 46.16 44.76 56.51 57.91 57.67
51.65 52.85 53.66 51.57 50.47 50.43 51.34 53.64 57.05 57.57 59.23 60.93 61.24 60.86 59.98 59.82 59.54 59.04 59.11 59.17 58.68 58.54 58.60 58.61 58.45 58.57 46.21 44.61 42.38 51.47 55.25 56.05

GFSFLT1_sfc_wetblb_069.txt.gz
Wetbulb
57.19 57.10 58.85 58.42 59.85 59.43 58.97 60.08 59.99 59.22 59.49 59.84 60.13 60.69 59.67 59.86 60.47 60.95 60.77 60.32 61.20 61.35 61.09 60.43 60.74 59.22 58.43 58.52 57.86 55.60 55.39 55.91
57.16 57.04 58.51 57.81 59.39 59.11 59.54 59.58 59.42 59.15 58.60 57.96 57.60 57.16 59.37 59.12 59.90 60.29 59.95 59.84 60.07 60.39 59.95 59.99 58.90 59.74 57.90 57.84 56.88 55.68 54.09 54.91
56.03 56.05 56.78 58.11 58.52 58.85 59.29 58.83 58.64 58.56 58.44 58.35 57.90 57.61 58.98 59.27 59.43 59.40 59.46 59.73 59.12 59.00 59.64 59.22 57.38 59.15 57.90 56.53 54.93 53.11 54.20 54.15
54.99 55.72 55.81 57.49 57.61 58.46 58.32 58.04 58.14 58.30 58.54 58.39 57.83 57.20 57.06 56.92 57.24 57.79 57.93 59.13 58.76 58.42 59.17 58.93 58.14 58.34 57.34 55.85 54.52 53.28 52.44 52.77
55.30 55.40 55.35 57.07 57.73 58.27 58.51 57.64 57.50 57.90 58.58 57.65 56.60 55.35 54.41 55.83 56.14 57.00 57.36 57.68 57.45 57.21 58.22 57.95 57.77 58.20 56.31 55.58 56.60 54.61 54.56 51.63
54.93 54.91 56.03 57.06 58.03 57.58 57.50 57.07 57.22 57.41 57.95 57.31 56.28 54.98 55.61 55.62 56.22 55.79 56.75 56.83 56.79 57.06 57.22 57.38 56.72 57.02 56.81 57.18 56.82 56.44 56.32 54.48
56.01 56.02 56.96 56.85 58.00 57.29 57.06 56.71 56.68 57.05 57.63 57.45 56.43 55.09 54.72 53.60 54.50 55.69 56.28 56.23 56.55 57.54 56.51 58.31 58.24 57.05 57.47 57.24 57.41 57.18 56.94 56.78
55.59 55.03 55.60 56.21 56.67 56.70 56.46 55.90 55.62 56.79 56.73 57.01 56.32 55.56 54.92 53.65 53.83 54.91 55.38 55.53 55.88 56.10 57.62 57.01 57.16 57.57 57.62 57.48 57.43 56.68 56.78 56.63
55.95 55.80 55.78 56.19 56.73 56.55 56.94 56.00 55.60 56.87 56.69 56.24 57.11 56.96 55.97 55.41 54.62 55.24 56.12 56.09 56.18 56.52 57.00 58.35 58.04 56.79 57.07 57.68 57.48 56.95 57.19 57.23
56.11 56.51 56.45 56.31 56.52 56.33 56.20 56.85 56.37 56.86 56.81 57.07 56.79 56.87 56.55 55.94 55.65 55.18 56.10 56.61 56.63 56.00 56.16 57.86 58.18 57.71 56.64 56.84 56.53 56.65 57.03 57.00
54.86 56.88 56.58 56.76 57.56 57.27 56.67 57.19 56.90 57.23 56.96 57.63 57.14 57.03 56.92 56.98 57.11 55.97 55.41 55.75 56.79 56.39 55.85 57.19 57.79 58.13 57.94 57.35 56.77 56.59 56.00 56.13
52.00 56.94 57.27 56.86 57.33 57.25 56.62 56.23 56.27 56.83 57.29 57.46 57.28 57.29 56.98 57.06 56.88 57.29 56.98 55.98 56.17 56.44 56.19 56.93 57.72 57.45 58.02 57.79 57.36 56.73 55.87 55.37
52.85 56.86 56.98 56.20 56.53 57.14 56.87 56.64 56.26 56.81 57.17 56.94 56.50 57.54 57.79 57.36 57.03 57.07 57.36 57.09 57.19 56.40 56.19 56.00 56.75 57.19 56.94 56.77 56.53 57.16 55.87 54.78
52.82 54.56 55.28 56.45 56.40 56.88 57.27 57.01 56.72 57.06 57.27 56.54 56.15 56.44 57.19 57.23 57.65 58.06 57.68 57.22 56.94 56.96 56.47 55.54 55.66 56.86 56.95 57.00 56.90 56.45 56.15 55.66
52.68 52.72 53.44 54.94 55.76 56.41 56.98 57.19 57.45 57.41 57.57 56.94 56.03 55.71 56.16 56.84 57.67 57.87 57.95 58.00 57.34 56.22 56.22 56.26 56.44 56.54 56.99 57.28 57.15 56.88 56.65 56.43
51.54 52.47 52.51 52.25 52.88 53.41 54.62 55.64 57.38 57.45 57.35 57.44 57.04 57.07 56.81 56.69 56.73 57.42 58.50 58.09 57.76 57.50 56.69 56.11 56.37 56.63 56.99 57.07 57.13 56.65 56.33 56.02
51.39 51.09 49.98 48.99 48.51 49.49 50.93 52.12 54.47 56.73 57.26 56.75 57.95 57.83 57.59 57.02 56.82 56.84 57.35 58.30 58.03 58.19 57.68 57.33 56.63 56.78 50.58 46.49 52.51 56.12 55.94 55.29
49.02 47.45 45.74 44.83 43.97 45.54 46.05 51.44 51.90 53.41 52.65 53.26 56.88 57.64 58.07 57.89 57.88 57.31 56.98 57.35 58.28 57.72 57.70 58.18 57.65 57.36 47.72 45.48 44.40 55.73 55.91 55.23
45.84 43.90 42.16 41.32 40.91 41.83 46.02 46.83 46.63 47.26 46.95 48.13 49.64 49.09 50.55 55.63 58.32 58.17 58.33 58.46 57.83 57.93 58.31 58.51 58.30 58.38 46.89 45.95 43.53 51.51 55.62 56.73

GFSFLT1_sfc_wetblb_072.txt.gz
Wetbulb
55.66 57.73 58.43 59.06 58.79 59.32 59.91 60.00 59.40 56.84 57.78 60.03 60.47 59.85 59.99 60.26 62.12 62.17 62.41 61.91 59.77 58.23 57.93 58.74 57.08 55.76 54.99 55.76 54.52 53.52 54.02 53.40
56.38 57.76 57.90 58.54 58.03 57.79 58.24 58.99 58.74 58.08 58.50 58.08 58.43 58.31 58.97 59.35 60.78 60.74 60.05 62.01 61.36 58.47 58.26 59.45 57.66 56.94 56.69 56.73 55.13 54.39 53.53 53.55
54.96 56.53 56.92 58.01 57.30 57.49 57.93 58.33 58.83 58.67 58.04 58.30 57.67 58.05 59.22 59.58 59.89 60.49 60.20 60.20 61.30 59.71 58.44 59.37 59.36 57.80 57.11 56.27 54.45 53.85 53.47 54.11
53.69 55.52 55.87 57.56 57.44 57.34 58.31 58.12 58.60 58.55 58.58 57.48 56.36 57.40 58.11 58.11 58.51 58.87 59.55 59.94 59.31 60.63 59.61 59.55 58.51 58.88 56.83 55.52 54.11 54.00 51.11 51.80
54.29 55.00 55.22 56.68 57.48 57.80 57.78 57.76 58.07 58.23 58.40 57.22 55.72 55.29 55.12 56.96 57.68 58.64 58.58 59.30 58.53 58.62 59.54 58.88 57.66 59.06 57.44 56.58 55.90 53.61 53.23 52.25
54.07 54.52 55.87 57.05 58.16 57.75 56.94 56.96 57.12 57.17 57.83 57.13 56.26 55.84 56.16 56.87 57.38 57.40 57.78 58.15 57.53 57.46 58.43 58.27 57.32 58.18 57.45 56.64 56.26 54.90 53.37 51.45
54.98 55.34 56.45 56.68 57.30 57.67 56.36 55.66 55.86 56.78 57.63 57.08 56.20 55.46 55.38 55.11 55.54 55.72 56.20 57.09 56.68 56.65 57.45 57.74 57.53 57.70 57.34 56.94 57.25 56.05 55.07 53.85
53.39 53.32 54.36 56.22 56.02 56.20 56.25 55.76 55.38 55.96 56.71 56.75 56.29 55.50 55.30 54.81 55.30 55.08 55.41 55.40 56.19 56.08 56.35 57.31 57.23 57.42 58.00 57.66 57.01 56.88 55.97 55.09
53.13 53.99 54.55 55.76 56.04 56.29 56.43 55.92 55.31 55.84 56.84 56.74 56.85 56.13 55.60 54.26 54.36 55.28 55.12 55.77 56.27 56.89 57.03 57.16 58.02 57.41 57.28 57.78 57.25 56.40 55.58 55.38
53.15 54.28 55.03 55.66 55.98 55.88 55.92 55.36 55.49 55.38 55.98 56.91 56.75 56.28 55.26 54.22 53.93 54.58 55.33 56.03 56.70 56.24 56.74 57.20 57.35 57.62 57.43 57.00 56.02 56.37 56.45 55.98
53.95 54.51 54.86 55.74 56.43 56.29 55.94 55.60 55.46 55.77 56.44 56.42 56.81 56.77 56.75 55.98 54.66 53.83 54.84 55.54 55.75 56.45 55.52 57.28 57.52 57.26 57.11 57.15 56.66 56.41 56.26 55.97
53.88 54.72 55.12 55.56 56.27 55.83 55.92 55.70 55.52 55.69 56.41 56.14 56.46 56.53 56.78 56.83 55.85 54.75 54.55 55.17 55.55 55.91 55.93 55.68 56.62 57.49 57.46 56.74 56.73 56.40 55.76 56.13
53.65 53.91 53.77 55.04 54.98 55.26 55.34 56.09 56.18 56.28 56.34 56.30 56.02 56.72 56.90 56.20 56.46 56.57 56.10 55.13 55.52 55.47 55.82 55.41 55.29 55.79 56.90 56.84 56.49 56.70 55.78 55.16
52.30 52.73 53.36 53.53 54.59 55.65 55.55 55.20 54.99 56.54 56.71 56.23 55.60 55.73 56.45 56.41 56.46 56.96 57.30 57.00 56.24 55.76 55.74 55.17 54.88 55.45 55.67 56.12 56.25 56.03 55.91 55.58
49.98 49.64 50.49 50.98 52.32 52.67 53.45 54.83 55.74 55.96 56.40 56.19 55.54 55.32 55.72 56.08 56.89 57.26 57.13 57.32 57.00 56.77 56.40 56.07 55.47 55.20 55.34 55.89 55.81 55.52 55.28 55.31
47.08 46.82 46.44 46.87 48.24 49.03 51.94 52.54 53.49 56.23 56.43 56.22 55.82 55.71 55.88 56.23 56.23 56.63 57.30 57.20 57.14 57.20 56.68 56.48 56.62 56.15 55.58 54.93 55.41 55.37 55.23 54.95
44.30 43.15 42.59 41.99 42.94 45.27 47.40 47.92 48.50 49.56 49.66 52.63 54.12 56.22 56.24 55.71 55.81 55.88 56.26 56.29 56.55 56.67 56.55 56.51 55.66 55.90 49.44 45.94 50.84 55.42 55.90 55.71
41.10 40.45 39.34 39.17 39.74 42.50 42.30 43.78 45.04 44.62 45.52 46.85 46.23 47.62 48.62 53.66 56.11 55.96 55.63 55.65 56.45 56.45 56.36 56.58 56.39 56.48 47.19 45.27 44.25 54.36 55.96 56.17
37.81 37.11 36.57 36.89 38.24 39.62 41.02 41.09 41.25 41.30 41.83 42.25 42.76 43.13 44.05 45.55 48.17 50.10 56.27 56.24 55.82 56.20 57.04 56.91 57.04 57.33 46.70 45.43 43.88 52.65 55.16 56.07

GFSFLT1_sfc_wetblb_075.txt.gz
Wetbulb
54.30 56.79 58.27 58.27 58.68 58.78 58.20 58.38 58.21 59.57 60.06 59.49 59.71 59.73 60.38 61.70 62.16 61.34 60.64 60.15 59.52 58.08 57.25 55.95 55.60 53.83 52.78 53.50 53.05 52.42 53.21 54.70
54.43 56.97 57.83 57.72 58.18 57.98 57.84 57.36 57.10 58.38 58.97 58.73 57.48 57.99 58.71 60.00 61.40 61.83 60.86 59.48 58.59 57.07 57.12 55.84 55.70 53.01 53.46 54.06 53.19 52.35 51.28 52.72
55.09 56.16 57.26 57.40 57.78 57.90 57.78 56.96 57.30 58.57 58.36 58.32 58.52 58.33 58.93 59.63 60.35 60.49 61.78 60.22 58.75 57.29 57.48 55.91 55.63 53.91 54.16 54.36 53.76 52.63 52.99 53.38
54.39 55.29 56.18 57.10 56.64 56.48 57.20 56.66 56.94 57.70 57.88 57.72 57.34 57.94 58.35 58.01 58.57 59.37 59.94 61.30 59.76 57.79 58.04 57.12 56.22 55.61 55.49 55.63 54.52 54.36 52.12 52.10
54.57 54.93 55.30 56.56 56.60 57.35 57.48 57.93 56.92 57.30 57.81 56.75 56.32 56.01 55.82 57.15 58.46 59.15 59.43 60.26 60.45 59.00 58.51 58.78 58.44 57.35 56.64 56.19 55.19 54.85 53.76 52.50
53.11 54.79 55.53 56.88 57.31 57.53 57.95 57.36 57.78 57.38 56.62 56.56 56.26 55.46 55.78 57.02 57.73 57.92 58.35 58.55 59.03 59.70 59.18 57.99 57.86 58.61 57.36 56.91 54.89 53.56 53.36 53.79
54.03 55.19 56.02 56.76 57.57 57.20 56.66 56.01 56.13 56.97 56.00 55.66 55.38 55.38 55.44 54.39 56.46 56.76 57.36 57.52 57.08 57.86 58.68 58.56 57.92 57.82 57.06 56.36 56.42 55.44 53.68 53.73
52.77 53.13 54.68 56.21 56.30 56.43 55.99 55.78 55.01 56.21 56.04 54.98 54.32 54.69 55.40 55.33 55.84 56.30 56.20 56.76 57.00 56.68 57.70 57.76 57.46 57.89 57.91 57.38 56.32 56.16 55.60 54.91
52.68 53.20 54.71 55.66 56.45 56.17 56.04 55.47 55.13 55.93 56.58 55.86 54.78 54.77 55.90 55.68 55.77 56.13 56.33 56.60 57.27 57.56 56.58 57.48 57.48 57.57 57.69 57.58 57.16 56.54 56.32 55.52
52.48 53.33 54.82 55.31 56.22 56.10 55.96 55.53 54.93 55.96 55.77 56.39 55.09 54.81 54.54 54.88 54.59 55.58 56.13 56.66 56.97 56.64 55.81 56.49 57.23 57.29 57.33 57.19 56.73 56.18 56.45 56.22
51.87 53.17 54.56 55.69 56.02 56.54 56.50 56.33 54.62 55.42 55.54 55.99 55.68 55.15 54.77 53.78 53.03 53.10 54.60 55.11 55.82 55.21 55.74 56.20 56.13 56.88 57.27 56.81 56.67 56.56 56.30 56.43
52.32 52.71 53.72 55.25 55.46 56.10 55.72 55.48 54.95 54.87 54.82 55.81 56.12 54.99 55.27 55.70 53.99 53.05 53.73 53.91 54.24 54.50 55.72 56.16 56.59 56.46 56.85 56.36 56.09 56.25 55.85 55.80
52.60 53.61 54.14 54.09 54.04 55.43 55.19 55.33 55.16 55.02 54.99 55.82 54.87 55.05 56.21 56.21 55.84 54.42 53.69 53.73 54.40 54.95 54.58 55.29 56.19 56.71 57.02 56.29 55.94 56.36 55.56 55.24
49.04 49.86 50.51 51.69 53.45 54.56 54.90 55.16 55.50 55.84 56.34 55.79 55.41 54.09 54.47 54.95 56.04 56.35 55.82 54.39 53.85 54.53 54.99 54.66 54.51 54.99 55.58 56.07 56.67 56.14 55.91 55.73
44.69 44.77 46.10 48.23 50.60 51.88 52.10 52.53 54.85 55.78 56.16 55.71 54.95 54.21 54.59 54.79 54.87 55.43 56.09 56.74 55.77 55.36 55.28 55.34 55.54 54.75 54.57 54.90 55.56 55.82 56.11 56.19
42.94 42.24 42.74 44.14 46.31 46.93 47.89 49.15 48.92 50.65 55.50 55.30 54.68 54.94 54.77 54.57 54.61 55.33 55.61 55.55 56.17 56.55 56.15 55.58 55.49 55.61 55.24 54.73 54.73 54.32 54.23 54.14
38.94 39.60 39.70 40.02 40.67 41.92 43.34 43.66 44.71 46.72 46.35 46.35 46.74 48.25 51.60 55.48 55.11 55.19 55.45 56.08 56.10 55.70 55.51 55.71 55.80 55.79 48.72 45.87 50.38 54.80 54.74 54.54
36.44 36.21 36.38 37.45 38.80 39.87 39.28 40.02 41.60 41.87 42.17 42.76 43.10 44.26 45.09 45.70 47.73 50.38 54.34 55.41 56.15 56.27 56.36 56.15 55.78 55.77 46.72 45.09 44.35 53.76 54.66 54.64
34.72 34.69 34.67 35.03 37.50 38.32 37.83 37.29 36.48 36.87 37.20 37.77 38.91 39.97 41.44 42.06 43.47 44.19 44.48 45.90 48.76 54.59 56.07 56.48 56.26 55.82 37.08 39.74 42.60 52.27 54.37 54.90

GFSFLT1_sfc_wetblb_078.txt.gz
Wetbulb
56.31 56.37 57.88 57.74 57.67 57.97 59.36 59.87 58.37 57.47 58.01 58.84 59.86 59.98 60.70 61.00 61.48 60.62 60.42 61.00 62.10 61.98 60.26 57.76 57.67 56.36 54.92 54.00 52.47 52.02 54.69 54.47
54.17 57.03 57.15 56.83 56.75 57.99 58.28 58.68 58.87 58.15 57.40 57.25 57.93 57.59 58.90 60.16 61.49 62.16 61.05 60.96 61.82 60.48 58.19 56.73 56.68 54.66 54.92 54.08 52.45 52.28 51.97 54.07
52.81 55.89 56.59 56.77 58.11 58.31 57.80 58.39 57.86 58.15 58.99 58.52 58.40 58.32 58.77 59.76 60.64 60.03 59.49 58.82 58.70 58.09 56.82 56.39 55.44 54.25 54.26 53.87 53.28 51.53 51.96 54.42
52.82 54.73 55.97 56.57 57.69 57.85 57.63 57.60 57.41 57.35 58.59 57.86 57.53 57.79 58.35 58.21 59.24 60.04 59.51 59.11 58.44 57.92 57.16 56.51 54.31 54.25 53.97 54.49 53.48 52.32 52.40 53.19
53.14 54.09 55.03 56.30 57.34 58.19 57.62 56.87 56.43 57.70 57.99 57.09 56.49 55.65 55.82 57.12 58.61 59.54 60.14 59.27 58.08 57.62 57.31 55.74 54.42 54.06 54.22 55.04 54.94 54.01 53.91 53.03
53.14 54.38 55.31 56.42 57.34 56.62 56.34 56.06 56.44 56.93 57.07 57.01 53.78 54.77 55.53 57.28 58.09 58.47 58.84 59.71 58.63 57.69 58.26 56.72 55.61 55.31 55.65 55.63 54.52 53.95 54.04 53.89
53.34 54.36 55.39 56.76 57.26 56.56 56.56 57.33 57.21 56.82 56.38 56.54 53.59 54.68 55.41 55.16 55.76 57.17 57.51 57.91 58.85 57.97 58.44 58.11 58.09 57.27 56.61 56.36 55.23 54.42 53.80 54.09
51.54 53.01 54.58 56.14 56.02 56.81 57.04 56.25 55.57 55.68 55.57 55.61 55.27 53.39 54.15 53.29 55.99 56.75 56.99 56.87 56.65 57.99 58.11 57.98 57.94 57.73 56.78 56.64 55.99 55.33 54.34 53.58
51.39 53.20 54.70 55.43 56.23 56.30 56.13 55.50 55.20 55.55 55.03 55.07 54.19 53.17 53.62 53.85 55.59 56.44 57.08 57.12 57.30 57.29 58.24 58.09 57.53 57.72 57.96 57.00 56.34 55.88 55.97 55.40
50.69 53.01 54.52 55.33 56.06 55.94 55.69 55.37 55.14 55.52 55.52 55.50 54.61 53.18 53.83 55.48 55.43 55.95 56.52 56.64 56.83 56.86 57.24 57.85 57.80 57.35 57.43 57.82 57.48 57.10 56.63 56.09
51.73 53.18 54.24 55.97 56.39 56.18 56.15 55.67 54.92 55.49 55.69 55.88 55.50 55.13 54.10 54.18 53.13 54.14 55.61 56.32 56.24 54.91 55.63 56.91 57.22 57.48 57.67 57.57 57.22 57.31 56.70 56.56
51.52 53.16 54.41 55.88 56.16 55.77 55.46 55.27 54.98 55.11 55.14 55.69 55.67 55.33 54.76 53.21 53.32 53.21 53.17 55.33 55.86 55.66 55.98 55.79 56.38 56.42 56.69 56.68 56.97 56.58 55.95 55.85
52.62 53.32 54.13 54.41 54.73 55.01 55.15 54.76 55.15 54.92 55.04 55.32 55.72 55.87 55.27 53.61 54.07 53.52 53.84 53.45 54.90 55.36 55.41 55.77 56.12 56.24 56.42 56.35 55.96 56.23 55.56 55.11
47.14 49.83 52.62 53.81 54.38 54.68 54.90 55.13 54.93 55.08 55.39 55.33 54.86 55.05 55.35 53.77 54.25 54.50 53.67 53.61 53.82 54.08 54.46 54.18 54.21 55.83 56.06 56.00 55.80 55.70 55.53 55.39
43.13 43.64 46.03 47.41 49.11 50.43 50.78 51.05 54.36 55.61 55.43 55.15 54.68 54.86 54.74 53.23 53.68 54.05 54.00 53.81 53.34 53.85 54.15 54.42 54.37 54.33 55.24 56.05 56.10 55.91 55.77 55.79
40.15 41.09 42.03 43.10 44.37 45.22 46.84 47.10 48.65 50.44 54.76 52.17 49.93 53.37 55.45 54.83 54.59 54.02 54.18 55.05 54.62 54.27 53.72 54.42 55.14 55.37 55.05 54.68 54.80 54.93 55.14 55.18
36.59 37.01 38.25 39.20 40.35 40.70 40.83 41.79 42.55 44.20 44.35 44.54 45.77 46.84 48.18 47.80 50.19 53.88 55.39 55.37 55.92 55.91 55.58 55.48 54.77 54.59 47.99 45.47 50.55 54.33 54.40 54.15
34.79 34.83 35.33 36.37 36.86 37.14 36.48 37.45 39.16 39.25 39.53 40.11 40.81 42.39 42.60 43.89 45.49 45.42 45.84 46.37 47.75 52.19 53.93 55.80 55.83 54.60 36.19 37.71 41.21 53.42 54.59 54.41
33.46 33.70 34.38 35.65 35.75 35.23 34.92 34.59 34.30 34.51 35.14 36.03 37.27 38.57 38.67 39.82 40.29 40.20 41.05 42.95 39.84 38.62 38.04 39.00 41.38 37.19 35.18 35.84 35.72 42.50 51.86 54.43

GFSFLT1_sfc_wetblb_081.txt.gz
Wetbulb
53.95 59.43 61.30 62.11 62.77 63.11 62.12 62.35 63.05 61.50 60.95 61.21 61.09 61.52 61.88 62.37 61.31 61.34 62.16 62.26 62.16 62.96 62.30 60.71 60.85 59.23 58.73 58.73 59.12 59.94 59.69 59.58
52.98 57.48 60.39 61.27 61.97 61.55 60.40 60.96 60.38 59.50 58.85 59.15 59.28 59.18 60.70 61.40 61.99 62.72 61.93 61.65 62.03 61.25 61.20 59.33 59.79 58.99 58.39 58.62 58.71 58.57 58.62 60.02
52.06 56.75 59.44 60.40 60.58 60.85 59.49 60.15 60.15 59.38 59.64 59.58 59.27 59.78 60.45 61.17 62.55 62.20 62.32 60.86 61.61 61.64 58.71 59.22 58.98 58.36 59.22 58.07 58.35 57.97 58.13 58.86
51.67 55.40 58.22 60.05 60.32 59.97 59.15 59.47 60.00 59.51 60.26 60.94 59.54 59.74 59.97 59.67 59.90 59.55 58.74 60.51 60.97 59.77 58.78 58.35 57.88 58.73 57.53 57.74 58.47 58.51 56.32 57.97
50.83 54.74 57.29 59.09 60.74 61.08 59.44 59.26 59.24 59.12 61.55 60.23 58.20 57.40 57.23 58.84 59.86 60.20 58.96 59.02 58.47 58.27 57.80 57.33 56.59 58.24 57.47 57.29 57.30 58.33 58.77 56.34
50.86 54.58 57.04 59.18 60.86 60.04 58.65 58.22 58.81 59.21 60.87 60.43 58.72 57.62 58.34 59.17 59.20 59.26 59.41 58.52 58.80 57.87 56.93 55.46 56.08 56.75 57.30 56.94 56.59 57.04 58.67 58.55
53.17 56.52 57.96 58.62 60.27 58.53 57.47 57.02 57.46 58.24 59.51 59.16 58.35 59.03 57.88 57.49 58.40 58.22 58.18 58.86 58.38 58.34 57.34 56.59 55.84 56.26 56.74 57.44 57.25 57.20 57.30 58.05
54.32 55.73 56.62 57.61 58.06 56.65 56.58 56.95 56.31 57.24 57.85 57.60 57.63 59.18 58.33 57.53 57.92 58.18 57.95 58.00 57.90 57.33 57.48 56.49 56.43 56.56 57.28 58.44 58.12 57.74 57.89 58.02
52.73 55.81 56.66 57.61 57.60 56.51 57.99 59.11 57.50 56.55 56.86 56.87 56.78 59.03 58.92 58.28 59.09 58.80 58.68 58.78 59.20 58.65 58.52 57.48 57.06 56.98 57.15 57.38 56.88 57.61 58.65 58.08
53.47 54.78 57.02 57.80 57.17 57.34 58.65 57.49 56.61 56.07 56.30 56.65 56.18 58.17 58.56 57.95 58.44 59.06 58.53 58.94 58.55 58.24 58.35 57.95 57.16 56.66 56.82 56.06 56.42 56.31 56.37 56.25
52.91 54.66 56.35 57.17 57.23 57.29 56.75 57.06 55.91 56.15 56.37 56.44 56.30 57.13 58.03 58.24 57.58 57.47 57.76 58.07 59.26 58.10 57.86 57.55 57.33 57.01 56.53 55.61 54.93 56.61 56.53 56.61
54.17 55.12 56.42 56.98 56.94 56.20 56.09 56.20 55.91 55.89 56.13 56.40 56.17 56.15 56.64 57.12 56.87 58.02 57.99 57.89 57.62 57.96 57.89 58.26 57.42 56.95 56.56 56.62 56.77 56.68 56.00 56.71
50.50 54.48 54.85 55.09 55.23 55.58 55.59 55.72 55.65 56.11 56.48 56.63 56.38 56.35 56.15 55.58 56.72 56.86 57.11 57.34 58.47 57.32 57.00 57.59 58.07 57.40 57.65 56.83 56.11 56.78 55.77 55.82
45.02 45.79 51.34 53.92 54.73 54.85 55.16 55.83 55.41 56.02 56.14 56.38 56.50 56.27 56.10 55.41 56.81 57.49 56.48 56.66 58.03 58.58 57.95 57.00 57.13 57.89 56.99 57.02 57.43 56.76 56.65 56.54
40.95 42.14 43.15 44.85 46.97 48.82 50.49 52.31 55.48 55.97 56.03 55.85 55.35 55.55 56.13 56.22 56.91 58.20 57.55 57.48 56.96 56.87 57.17 57.18 57.60 58.22 58.12 57.85 57.22 57.31 57.13 56.94
37.21 38.01 38.95 40.71 41.69 43.49 45.49 46.11 48.41 52.36 49.94 49.10 48.91 49.86 54.75 55.78 56.16 57.62 57.83 57.52 56.51 56.45 56.65 57.34 57.82 56.97 56.22 56.59 56.80 56.67 56.33 56.61
35.43 35.85 35.92 36.25 37.30 39.25 40.34 41.05 42.02 43.73 43.15 43.18 44.32 44.91 45.46 47.00 48.32 48.20 50.69 50.85 50.01 55.52 55.16 55.08 54.98 50.19 36.80 37.35 44.47 56.84 56.57 56.29
34.12 34.26 34.50 34.22 34.55 35.43 35.60 36.55 38.50 38.51 38.80 39.50 40.42 41.48 41.75 42.54 43.27 43.80 43.89 42.36 42.41 41.61 41.03 44.02 38.67 37.15 35.66 36.86 36.48 46.93 52.24 55.02
32.98 33.60 34.00 33.47 34.37 33.90 33.88 34.72 34.89 35.27 35.03 35.85 37.14 38.86 39.03 39.73 39.51 39.66 38.82 37.69 36.29 36.23 36.12 36.78 35.68 34.92 34.76 35.76 35.90 43.19 47.28 38.64

GFSFLT1_sfc_wetblb_084.txt.gz
Wetbulb
56.49 57.98 61.70 64.40 66.49 67.70 67.49 66.72 67.46 66.08 63.31 63.68 64.25 64.30 63.59 62.80 62.22 62.61 62.90 63.23 63.70 64.52 64.05 64.11 63.21 62.53 61.17 61.30 62.11 63.56 63.48 62.50
56.59 58.20 60.93 64.38 65.95 66.81 66.68 65.19 66.59 64.22 62.70 62.64 61.95 62.49 62.52 62.53 63.19 63.07 63.48 63.08 62.43 62.78 62.90 62.71 61.27 60.26 59.99 60.32 62.54 62.20 61.55 62.80
55.68 57.26 60.45 63.68 64.83 66.25 65.98 64.73 64.79 64.64 64.36 63.64 62.75 61.85 62.69 63.26 63.84 65.00 65.03 64.26 64.25 62.57 61.91 61.34 60.90 59.88 58.69 59.30 61.35 60.75 61.26 62.13
54.87 55.81 58.72 63.16 63.90 65.45 64.17 63.92 65.00 63.76 64.79 62.96 63.29 62.81 61.84 61.52 62.74 63.73 63.26 62.64 62.19 61.87 61.56 60.55 60.55 59.40 57.67 58.50 61.76 61.39 59.71 61.75
55.10 55.82 57.26 61.89 63.46 65.70 64.11 64.09 65.01 63.25 63.95 62.57 61.94 60.67 58.55 61.47 61.56 61.71 62.76 61.52 61.53 60.95 61.19 60.48 59.98 59.49 58.35 58.50 61.26 61.92 61.69 59.72
55.30 56.15 56.99 61.63 63.71 64.96 63.91 62.74 63.46 63.14 62.35 63.85 61.74 61.17 60.65 62.48 61.48 60.83 59.78 59.16 59.47 59.43 59.60 59.38 58.88 59.26 58.60 58.80 60.61 62.09 62.16 61.18
57.07 57.46 58.07 60.63 63.66 64.63 61.94 60.78 60.92 62.11 62.58 63.73 62.15 61.30 60.97 60.64 60.28 59.10 58.93 58.65 58.82 57.85 57.16 57.72 58.12 58.08 58.09 58.86 61.90 61.77 61.16 61.54
57.71 57.53 58.69 60.35 62.32 61.47 59.20 59.62 59.36 60.91 63.67 62.92 61.23 61.43 61.33 59.85 59.71 58.54 58.31 57.88 57.67 57.62 57.16 56.42 56.84 57.58 57.94 58.20 59.08 60.10 60.55 60.80
57.95 57.59 59.46 60.26 61.93 58.31 58.05 58.47 59.22 60.01 62.77 61.50 59.86 61.25 60.58 59.66 59.94 60.16 59.40 59.00 58.17 58.27 57.40 57.64 56.93 57.14 57.95 58.65 58.38 58.80 60.04 60.80
57.72 57.41 59.79 60.35 61.04 57.25 58.16 58.72 59.04 59.23 61.18 58.98 58.74 60.60 60.00 59.16 59.94 60.98 61.33 61.80 60.93 59.07 58.85 57.23 56.79 56.79 57.09 57.44 57.26 57.18 58.28 59.17
53.78 57.28 58.80 60.76 59.86 58.17 59.77 61.57 58.62 59.21 59.08 58.64 58.10 59.84 60.75 60.32 60.50 60.23 60.61 60.74 59.96 59.93 58.99 58.19 56.82 56.92 56.62 56.88 56.10 57.19 57.12 57.52
48.47 56.96 58.23 59.12 58.58 59.06 58.89 59.31 57.55 57.91 59.15 58.93 58.30 58.91 59.65 59.63 59.38 59.65 60.10 60.53 59.83 59.79 58.65 57.88 56.82 56.00 55.91 55.51 54.52 55.13 55.86 56.60
45.33 48.93 56.47 56.61 56.88 56.78 57.27 57.94 57.33 58.44 58.92 58.41 58.62 60.08 59.14 58.23 58.25 59.90 61.40 60.27 60.21 60.05 59.62 57.55 57.23 56.55 55.91 54.70 53.53 53.67 54.42 54.44
41.90 43.73 46.25 52.11 55.28 55.81 56.26 57.05 57.10 57.56 57.25 57.14 57.72 58.10 57.36 57.23 57.25 59.90 59.62 58.90 59.27 59.38 59.15 59.01 58.31 57.76 57.35 55.92 55.51 55.48 56.04 56.21
38.80 39.56 41.05 43.54 45.88 48.16 52.65 55.62 56.70 56.94 56.87 56.82 56.41 56.38 56.82 56.66 56.82 58.79 57.73 57.78 57.75 58.55 58.34 57.84 57.89 58.57 58.45 57.31 56.41 55.96 55.95 56.80
36.02 36.63 37.34 38.89 40.81 42.76 44.49 47.27 49.96 52.57 51.17 50.22 49.79 50.23 52.90 55.14 56.53 57.85 58.95 59.01 58.53 58.99 58.62 58.25 58.10 58.12 45.31 45.82 58.52 58.49 58.15 57.87
34.51 34.74 34.72 34.83 36.04 37.83 39.40 41.00 43.40 44.98 44.74 44.04 45.43 46.01 46.06 46.13 47.23 48.28 47.92 47.73 45.50 46.42 46.38 48.03 41.70 40.46 36.05 37.29 41.45 56.03 57.84 57.39
33.05 33.32 33.22 33.16 33.48 35.25 35.39 37.36 39.37 39.80 39.51 40.72 41.48 42.18 42.17 42.68 42.70 41.41 40.15 40.14 40.52 40.12 39.74 39.14 36.78 36.14 35.46 36.70 36.60 45.41 49.71 41.67
32.62 33.06 32.39 32.73 33.66 34.02 35.04 35.67 35.64 36.39 36.46 37.50 38.83 39.75 39.01 39.29 38.99 37.90 36.52 36.33 35.48 35.41 35.39 35.72 35.06 34.54 35.20 36.89 37.29 40.01 36.05 34.55

GFSFLT1_sfc_wetblb_087.txt.gz
Wetbulb
57.02 57.10 58.21 59.55 62.15 65.59 68.05 69.65 68.88 69.21 69.23 67.57 67.06 65.19 65.50 65.50 65.49 65.70 66.32 65.56 65.11 64.85 64.32 64.20 63.85 64.21 64.17 63.31 61.65 61.84 62.42 61.99
57.39 57.79 58.46 60.48 63.76 66.31 67.84 68.58 68.37 68.94 66.46 64.33 64.36 62.61 64.22 63.98 64.43 64.84 64.81 65.09 64.58 64.28 63.96 63.77 63.05 63.31 62.66 62.64 61.57 60.31 60.03 61.21
56.17 57.49 58.28 61.34 64.20 66.47 67.71 67.99 68.15 67.53 66.06 66.12 65.46 64.78 64.16 65.25 65.19 64.26 64.13 63.39 63.47 62.93 62.96 62.76 62.25 61.95 61.43 61.16 60.85 59.70 60.02 61.50
55.89 56.76 57.55 61.17 63.62 65.88 67.09 67.77 68.00 67.29 66.84 66.50 65.47 64.71 63.77 63.17 62.49 63.31 65.70 65.39 65.39 64.65 64.06 62.82 61.32 62.12 60.41 60.26 60.75 59.81 57.77 60.36
55.89 56.73 56.85 59.75 63.44 65.98 67.07 67.71 67.52 67.11 67.14 65.55 64.04 62.21 61.04 62.51 62.83 64.03 64.58 64.79 64.38 64.49 63.90 62.62 61.75 60.85 59.80 60.13 61.03 60.42 59.81 59.31
55.27 56.23 57.24 57.68 63.28 65.02 66.91 66.94 66.55 66.59 66.31 65.65 63.97 62.95 62.82 63.15 63.25 62.64 62.78 62.82 62.09 62.54 61.51 61.31 60.39 60.30 59.76 59.96 59.29 60.15 60.42 60.87
57.33 58.20 58.66 57.62 61.49 65.38 66.76 65.48 65.91 65.06 65.85 65.27 64.55 63.26 62.37 61.61 61.94 61.70 60.85 61.26 60.08 59.13 59.07 60.34 60.27 59.43 58.82 59.28 59.26 59.48 60.42 60.96
59.28 59.41 58.69 58.50 61.41 64.57 65.40 64.26 64.22 63.99 64.96 65.08 64.34 63.37 62.51 61.58 61.73 61.24 59.49 58.99 58.53 57.43 57.27 57.29 58.60 59.05 58.86 59.32 59.45 60.11 61.04 60.44
56.43 59.85 60.21 60.21 61.25 64.13 62.98 61.77 61.42 62.16 64.36 64.81 63.97 62.98 62.17 61.28 62.49 60.61 60.27 59.29 59.18 58.18 57.20 56.85 57.57 58.17 58.49 58.77 59.35 59.88 60.78 61.11
53.37 56.18 60.07 61.19 62.54 61.39 60.40 60.10 60.56 61.56 64.77 64.38 62.94 62.64 61.58 61.05 62.10 62.30 61.09 61.26 59.77 59.21 58.30 57.10 56.79 57.51 57.87 57.73 57.75 57.71 58.90 60.84
49.05 53.02 56.23 61.40 61.45 59.83 59.35 60.10 60.37 61.70 64.33 63.25 61.60 61.47 61.27 61.68 62.13 61.70 61.75 61.93 60.96 60.35 58.01 58.48 56.90 56.79 57.45 57.58 57.21 57.59 57.56 58.14
44.56 46.17 49.27 59.11 59.61 58.91 58.43 59.73 59.73 60.57 62.63 61.10 60.89 60.46 60.71 61.10 60.36 61.17 61.26 61.84 61.39 60.96 59.64 57.89 56.87 56.63 56.60 56.60 56.10 55.65 55.29 55.82
42.51 42.85 44.87 55.28 58.00 58.41 59.07 58.71 58.98 59.76 60.79 59.61 59.80 60.19 60.45 59.83 59.55 60.22 61.15 60.68 60.74 59.80 60.51 58.90 57.15 56.34 56.14 55.54 55.36 55.07 54.64 55.22
40.34 40.35 40.43 43.14 49.45 57.01 57.36 57.58 58.05 58.77 59.26 58.79 59.09 58.77 58.46 58.45 58.96 59.28 60.42 59.90 59.78 60.45 59.54 58.64 57.70 56.75 55.89 55.45 55.22 55.12 54.31 54.43
37.46 37.07 37.39 38.95 41.93 44.91 47.23 56.32 58.36 58.17 57.66 57.49 57.26 57.68 57.77 58.38 57.94 59.35 59.50 59.26 58.83 58.77 59.15 59.34 58.37 57.80 56.93 56.35 55.28 54.06 53.74 54.33
35.14 34.75 35.13 35.75 37.79 39.87 42.11 44.52 49.40 53.26 51.71 51.08 50.87 52.13 55.85 56.08 54.87 52.62 56.51 55.18 55.75 56.21 57.94 58.02 55.09 45.34 41.08 44.01 53.05 55.69 56.04 55.32
33.86 33.35 33.47 33.51 34.70 36.29 38.24 39.84 42.37 45.25 45.28 44.95 45.72 46.48 47.18 46.58 45.52 45.33 44.81 44.31 43.90 44.22 42.97 42.19 41.50 39.46 36.12 37.45 41.29 52.96 52.27 51.56
33.02 32.06 32.32 32.94 33.74 35.29 34.91 37.06 38.77 39.83 40.89 41.41 41.67 41.84 41.34 41.01 40.49 39.19 38.93 38.63 38.72 37.92 37.85 37.80 36.64 36.73 36.49 37.90 39.03 44.68 40.75 39.46
33.62 32.74 32.14 33.17 33.53 34.78 35.04 36.21 35.85 36.24 36.90 38.37 39.11 38.44 37.82 37.74 36.78 35.40 35.09 35.26 34.77 34.69 34.71 34.64 34.52 35.35 36.50 35.94 35.20 35.40 33.92 33.58

GFSFLT1_sfc_wetblb_090.txt.gz
Wetbulb
55.37 56.93 57.22 57.18 57.05 60.43 68.99 68.81 68.79 68.94 68.70 68.45 67.63 66.08 65.48 65.84 65.22 65.78 65.92 65.94 65.53 65.02 64.42 64.23 64.17 63.17 62.86 62.41 61.66 61.61 61.00 60.94
55.87 57.45 58.49 57.79 57.70 59.80 68.58 68.12 67.97 67.97 67.44 65.72 64.86 63.46 63.58 63.63 64.25 64.98 65.13 65.53 64.76 64.51 63.58 63.77 63.60 62.71 62.31 62.30 61.37 59.80 60.01 61.24
54.92 56.09 58.09 58.11 58.48 61.89 67.86 68.18 67.50 67.32 67.65 65.66 64.99 64.05 63.52 63.16 62.93 63.08 64.43 65.09 64.20 63.37 63.00 62.54 62.47 62.10 62.17 61.67 60.61 59.04 59.26 60.38
53.98 55.63 56.58 58.24 60.60 64.93 67.17 67.80 67.01 67.23 67.15 65.35 64.72 63.91 63.31 62.51 62.43 62.73 62.95 63.28 63.76 63.35 62.90 62.69 62.25 62.17 61.64 61.51 60.75 58.83 57.48 59.34
53.56 55.25 56.55 57.55 61.17 64.93 66.63 67.78 66.47 67.14 66.19 64.96 63.13 61.53 60.10 61.36 61.52 62.30 63.03 64.01 63.27 63.13 62.91 62.79 62.24 61.89 61.25 61.17 61.47 60.00 58.67 57.33
53.61 53.92 56.67 57.13 61.46 64.08 65.28 67.19 66.65 66.31 64.97 65.48 63.58 61.87 61.54 61.60 61.99 61.88 62.58 62.47 63.05 62.71 62.90 62.49 61.80 61.16 60.80 61.13 60.62 59.98 59.33 58.25
57.39 58.81 57.69 56.41 60.58 63.79 64.84 65.99 65.66 66.18 65.29 65.39 63.40 62.31 61.25 60.56 60.51 60.89 60.88 60.43 59.74 59.22 60.31 61.18 61.20 61.16 60.12 60.47 60.86 60.36 59.35 58.94
55.12 56.55 58.26 57.91 59.03 62.97 64.69 65.06 64.48 65.35 64.86 64.39 63.53 63.05 62.00 60.89 60.84 60.55 59.63 58.40 58.14 57.58 57.93 59.02 59.98 60.47 60.16 60.18 60.13 60.22 59.35 58.47
53.76 55.42 56.72 55.03 60.30 63.70 64.39 63.99 63.66 63.96 64.27 63.77 63.84 62.97 61.40 60.97 61.28 60.41 59.69 58.97 58.37 58.07 57.53 57.63 58.28 59.18 59.03 59.61 59.51 59.39 58.93 58.27
51.12 52.67 53.26 53.79 60.22 63.27 63.89 62.82 63.35 62.53 63.22 63.58 63.06 62.27 61.11 60.73 61.36 60.80 60.53 59.61 58.84 58.30 57.79 57.03 57.51 58.14 58.60 58.84 58.74 57.93 58.22 58.80
47.78 48.87 49.60 55.66 61.19 61.62 61.73 61.86 61.59 61.28 63.42 63.13 61.93 61.38 60.95 61.11 61.36 60.14 60.65 60.47 59.59 58.26 57.65 57.14 56.97 57.37 57.61 57.81 57.67 58.61 58.16 59.11
44.35 44.84 45.29 47.33 54.94 59.83 60.20 60.08 60.48 60.60 61.94 61.63 60.76 60.94 60.20 60.32 60.33 61.08 60.93 60.98 60.33 59.23 58.17 57.00 56.67 56.53 57.11 56.77 56.83 56.79 56.53 56.61
42.05 41.44 41.50 42.67 43.90 48.72 59.01 59.18 59.15 59.91 60.24 60.29 60.11 59.38 59.62 59.89 59.77 60.46 60.26 59.89 60.47 59.57 58.81 57.69 56.56 56.27 56.37 55.77 55.29 55.33 54.88 54.65
39.87 38.58 38.52 38.84 40.40 42.47 45.75 58.37 58.30 58.49 58.61 58.48 58.38 58.53 58.55 58.34 58.52 58.99 59.64 59.55 59.19 59.37 59.24 57.63 56.64 56.17 55.47 55.15 54.82 54.25 53.89 53.83
37.34 35.87 36.07 36.89 38.05 39.77 41.48 46.14 57.16 57.89 57.82 57.92 58.09 57.73 57.72 57.53 57.82 59.24 58.61 59.09 58.42 59.01 58.92 58.20 57.20 55.93 55.51 55.21 54.76 54.59 54.51 54.51
34.96 33.60 34.09 34.99 36.22 36.76 38.26 40.71 46.02 51.35 51.44 50.92 51.15 51.47 52.68 51.84 50.32 52.10 51.50 50.58 48.61 48.24 47.01 45.71 44.39 42.63 40.41 44.58 53.88 54.13 53.02 52.97
33.05 32.70 33.07 33.10 34.05 34.69 36.31 37.42 40.45 43.99 44.83 45.00 45.33 45.67 45.31 44.33 43.53 43.43 43.40 42.35 42.20 41.52 40.27 40.09 39.74 40.79 37.37 38.17 44.53 47.69 48.16 47.78
31.42 31.54 32.01 32.54 32.70 34.09 33.96 35.68 37.83 39.16 39.85 40.61 41.12 40.27 39.58 39.56 38.83 38.28 38.16 37.55 37.40 36.65 37.13 37.61 36.79 36.63 36.38 37.96 38.37 39.48 37.64 37.20
31.23 31.60 31.81 32.56 32.83 33.22 34.00 34.40 34.85 35.09 36.22 37.06 37.60 37.12 36.16 36.10 35.53 34.87 34.80 34.82 34.51 34.05 33.97 34.94 34.99 34.88 34.93 34.85 34.45 34.06 33.16 32.85

GFSFLT1_sfc_wetblb_093.txt.gz
Wetbulb
50.27 50.54 51.93 52.90 53.68 52.52 66.61 67.19 66.95 67.17 66.57 65.40 64.86 64.22 63.20 63.39 63.64 63.27 63.97 64.56 63.55 62.96 62.57 62.41 62.97 62.66 62.24 61.27 60.28 60.93 60.79 60.84
49.55 50.94 52.07 53.40 54.46 53.21 66.06 66.27 66.34 66.43 65.74 64.89 63.79 62.92 63.02 62.28 62.94 64.11 63.99 63.77 62.59 62.13 62.19 61.69 62.83 61.98 61.26 60.93 60.78 60.36 60.06 60.92
50.00 50.90 51.89 52.63 53.85 55.16 65.75 66.17 66.63 66.46 66.14 65.44 64.01 62.68 60.75 61.20 62.79 63.65 63.58 62.64 62.10 62.05 62.16 62.57 62.07 61.00 60.76 61.55 61.12 59.77 59.78 60.99
49.52 51.01 51.94 52.51 52.41 57.63 65.39 66.06 66.24 65.95 65.05 63.31 62.05 61.02 60.30 58.77 59.44 60.76 62.85 64.19 62.58 62.06 62.61 62.60 62.39 62.26 61.57 61.33 60.80 59.62 58.04 59.77
50.83 49.84 51.22 51.44 53.20 63.89 65.71 65.97 65.69 65.22 64.44 63.46 61.12 60.43 59.00 58.90 59.39 60.49 62.01 63.11 63.24 62.49 62.51 62.10 62.09 61.57 61.28 61.54 60.98 59.51 58.73 57.40
52.84 54.54 55.47 53.49 56.46 65.11 65.62 65.14 65.28 64.86 63.51 62.60 60.93 59.24 58.36 59.47 58.99 59.53 60.63 60.85 62.19 62.36 62.10 60.61 61.61 61.69 61.51 61.72 60.59 59.55 59.13 57.98
53.34 54.70 55.32 55.78 55.84 62.56 65.22 64.35 64.46 64.27 63.05 62.36 61.25 59.63 58.44 58.82 58.06 58.20 59.51 61.24 61.57 61.12 62.02 61.83 61.04 61.25 61.16 61.26 61.30 60.06 59.15 59.06
50.57 50.75 51.25 52.78 53.44 54.69 62.94 63.66 63.22 63.47 62.84 62.31 62.14 61.07 58.91 57.95 57.51 58.60 57.65 57.68 57.43 57.70 58.23 58.65 59.74 61.13 60.91 61.11 60.97 60.44 59.42 58.72
47.30 48.31 48.97 49.33 54.87 56.32 60.30 62.46 62.75 62.06 62.17 61.51 61.94 61.55 58.59 58.74 58.84 58.42 56.54 56.36 57.55 57.47 57.02 57.61 58.61 58.49 59.99 60.56 60.43 60.34 59.77 59.02
44.68 45.33 46.35 46.57 49.36 58.56 59.42 60.61 61.68 61.65 61.21 61.34 61.82 61.01 58.88 58.87 58.37 58.59 57.93 57.92 57.00 56.68 56.94 57.19 57.65 58.31 59.25 59.55 59.64 59.64 59.86 59.06
42.13 42.54 43.17 44.16 46.74 52.14 59.24 60.16 59.62 61.24 61.55 61.42 61.30 59.89 59.42 58.87 58.71 57.68 57.98 58.78 58.29 57.49 56.64 56.62 57.05 57.45 57.95 58.43 58.01 58.85 58.87 58.78
39.80 39.98 40.78 41.32 43.53 46.41 50.06 58.42 59.50 59.38 60.33 60.77 59.89 58.94 59.85 58.98 58.37 58.37 57.78 58.77 57.06 57.11 56.89 56.32 56.38 56.70 57.07 56.89 57.47 57.63 57.11 57.58
37.91 37.72 38.49 38.70 39.73 41.95 44.11 47.40 57.31 57.50 59.93 59.23 59.20 58.83 58.64 58.95 59.66 59.96 59.95 58.97 58.65 57.88 56.98 56.20 55.77 56.50 56.56 56.06 56.14 56.44 57.14 57.23
35.57 35.78 35.93 36.65 37.66 38.96 41.10 43.66 48.60 58.21 58.70 58.10 58.21 58.01 58.09 58.25 58.62 58.78 59.16 59.51 59.20 58.13 57.40 56.30 55.53 55.95 55.72 55.26 55.20 55.02 54.88 55.16
33.76 33.74 34.45 35.29 36.30 36.84 38.62 40.78 45.30 56.76 57.61 57.28 57.28 57.25 57.21 56.66 57.59 57.73 57.51 56.35 57.63 57.64 57.02 56.34 55.15 55.01 55.31 55.23 54.66 54.15 53.89 54.04
32.43 32.20 32.84 33.63 34.50 35.43 37.02 38.83 41.81 46.26 49.97 50.23 50.17 50.73 50.53 49.97 49.78 48.93 47.89 47.43 47.50 47.84 46.39 45.51 44.94 44.11 42.41 48.55 54.61 54.23 53.63 53.58
31.06 31.56 32.14 32.29 33.04 34.38 35.49 37.38 40.73 40.41 41.50 43.10 45.01 45.01 43.89 43.14 42.73 42.36 41.74 41.25 41.02 41.25 40.56 40.61 40.28 40.17 38.40 40.13 47.28 46.76 46.69 49.20
29.96 30.74 31.23 32.01 32.31 33.82 34.01 35.12 36.72 37.26 36.73 37.64 38.32 39.46 39.26 38.47 38.16 37.99 37.33 36.98 37.43 37.19 37.03 36.54 35.72 36.30 36.72 37.37 37.46 38.41 37.51 37.08
29.51 30.30 31.22 31.80 32.50 33.22 34.28 34.47 34.39 34.14 34.07 34.71 35.39 35.53 35.67 35.85 35.37 34.84 34.69 34.47 34.10 34.32 34.49 34.90 34.61 34.44 34.66 34.84 34.35 34.17 33.62 33.55

GFSFLT1_sfc_wetblb_096.txt.gz
Wetbulb
47.10 48.50 48.20 49.56 50.97 51.04 65.66 67.40 66.96 67.23 66.31 65.50 64.97 64.85 64.86 64.57 64.29 63.63 63.19 63.85 63.75 62.93 61.83 62.07 63.32 62.54 61.59 61.35 60.83 60.52 60.63 60.36
46.07 47.35 48.45 48.97 49.45 50.07 64.42 66.25 66.59 66.28 65.03 63.89 63.27 63.05 63.01 62.95 63.19 63.01 62.45 63.50 63.19 62.17 61.61 61.69 62.35 61.69 61.46 60.79 60.24 59.58 59.71 60.59
47.36 46.48 46.87 48.51 49.76 50.84 61.42 65.62 65.99 65.99 65.93 65.48 63.97 63.74 62.99 63.05 62.80 62.95 62.71 62.51 62.95 63.33 61.77 61.40 62.00 61.85 61.29 60.92 60.34 59.46 59.42 60.46
47.98 48.07 46.89 47.55 49.14 51.12 61.16 65.01 65.69 66.10 66.37 64.95 63.12 60.65 59.57 59.41 61.35 62.74 63.22 63.10 62.69 62.41 61.71 61.29 61.18 61.44 60.12 60.48 60.17 59.43 58.09 59.88
52.17 52.21 52.74 52.42 51.78 51.19 60.18 64.81 65.50 66.02 65.68 63.73 62.10 61.92 60.54 59.93 61.01 59.43 62.07 63.55 62.78 61.10 60.83 61.10 61.79 61.53 60.74 60.58 61.23 59.64 59.35 58.00
50.77 51.66 52.43 53.45 53.95 55.20 63.02 64.85 65.61 65.64 64.11 63.87 62.36 61.31 59.65 59.59 59.03 58.81 58.81 61.83 62.78 62.35 61.42 61.49 61.33 61.12 60.99 61.09 60.54 59.66 59.79 59.04
48.39 49.09 50.31 50.64 51.47 54.55 61.64 64.67 65.09 64.50 63.87 62.71 62.07 59.71 58.71 58.92 58.62 58.39 58.71 58.54 60.48 61.00 60.27 61.48 61.01 60.90 59.54 61.10 60.90 59.33 58.71 58.66
45.56 44.78 45.39 47.47 48.08 50.88 56.41 63.33 63.34 63.56 63.45 61.96 61.33 59.60 59.30 58.93 58.36 58.13 58.49 59.64 59.93 60.68 60.61 61.13 61.05 60.48 59.80 61.34 61.11 60.31 59.02 58.20
42.32 43.71 44.05 44.55 46.53 49.63 55.37 62.30 63.01 62.40 61.94 61.30 60.75 59.88 59.32 59.22 59.05 58.58 59.05 59.55 59.47 58.35 58.47 58.62 59.14 59.56 60.31 60.67 60.83 60.64 59.83 59.11
40.02 41.77 42.03 42.36 44.21 46.67 51.96 60.23 61.48 61.82 61.52 60.64 60.12 60.10 58.46 58.10 58.20 58.86 57.54 56.53 55.80 55.18 56.41 56.41 56.95 57.53 58.31 59.02 59.94 59.90 60.10 59.27
38.39 39.27 40.08 41.49 43.33 44.60 48.15 54.94 60.10 60.65 60.13 60.46 60.23 59.09 59.11 59.22 58.56 57.29 56.97 56.61 56.41 55.34 55.70 55.78 56.11 57.13 57.70 58.64 58.72 59.36 59.30 59.46
36.03 36.92 38.48 39.33 41.23 42.81 44.53 46.28 54.65 57.29 57.52 60.03 59.36 58.71 59.31 59.27 58.21 57.47 57.25 57.39 57.53 56.76 56.37 55.82 55.73 56.21 57.04 57.50 57.80 57.86 57.86 58.64
33.79 35.26 36.27 37.01 37.79 38.79 41.30 42.76 47.03 53.82 56.94 59.56 58.77 58.92 58.95 58.68 58.22 57.81 57.05 56.81 57.60 57.21 56.65 56.09 55.78 55.89 56.55 56.27 56.27 56.81 56.71 56.94
33.18 32.94 33.90 34.64 36.11 37.28 38.43 40.19 43.73 48.10 57.71 57.93 57.45 58.50 58.40 58.37 58.29 58.23 59.05 58.45 57.54 57.30 56.77 55.38 55.39 56.05 55.89 55.73 55.69 55.15 56.55 56.97
32.23 31.84 32.64 33.52 34.72 35.81 37.08 38.60 41.78 46.23 56.99 56.81 56.73 56.55 56.49 56.35 55.50 54.80 55.04 57.75 57.74 57.05 56.63 56.00 55.54 55.55 55.55 55.16 55.01 54.55 54.42 54.58
30.91 30.86 31.33 32.19 32.99 34.26 35.87 37.73 40.03 42.31 44.90 48.92 51.06 51.14 50.91 50.18 48.82 47.67 47.51 47.15 46.85 47.88 47.31 46.18 45.59 45.20 43.85 50.29 54.38 53.73 53.46 53.70
29.91 30.16 30.55 31.11 31.96 32.87 34.40 35.63 37.86 39.53 40.26 40.18 43.71 43.42 43.61 43.28 42.75 42.22 41.94 41.19 40.94 40.49 39.45 39.45 38.99 39.47 37.48 40.45 48.22 49.50 50.56 47.78
29.28 29.32 29.99 30.99 31.44 32.57 32.67 34.24 36.10 36.96 36.27 37.87 38.33 38.69 37.60 37.56 38.33 37.91 37.05 36.95 37.19 36.51 36.26 35.91 34.86 35.41 36.16 37.03 37.93 39.95 39.42 39.63
28.84 29.60 29.90 30.87 31.85 32.32 32.93 33.27 33.55 34.46 33.72 33.95 34.47 34.80 33.76 33.98 33.87 33.52 33.91 34.27 34.03 34.21 33.84 34.19 33.76 34.00 34.48 34.61 34.79 35.24 34.61 34.38

GFSFLT1_sfc_wetblb_099.txt.gz
Wetbulb
45.71 46.12 46.20 46.65 46.34 47.92 60.31 66.43 67.05 67.09 67.07 65.76 65.37 65.65 65.78 65.66 65.40 65.08 64.53 64.60 64.35 63.25 62.74 63.06 63.13 63.19 62.65 62.44 61.72 61.39 60.72 60.57
45.15 45.37 45.92 45.97 46.02 45.81 58.37 64.23 66.20 66.02 65.55 64.77 64.50 64.10 65.31 65.03 65.47 64.69 64.58 64.42 63.45 62.84 61.62 62.21 63.13 62.10 61.62 62.21 61.48 60.25 59.63 60.68
45.59 46.30 44.69 44.42 46.72 46.62 53.61 62.74 65.42 65.93 65.86 65.59 64.82 64.75 65.12 65.19 64.45 63.93 64.26 63.20 63.31 62.68 61.45 62.17 62.12 61.29 60.97 61.09 60.68 59.71 59.80 60.59
50.43 51.12 49.77 49.41 46.97 45.79 51.84 61.68 64.93 65.91 65.97 65.40 61.50 61.32 61.40 61.42 62.04 62.52 62.69 63.11 62.98 63.89 62.46 62.09 61.84 61.96 60.41 60.49 60.65 59.88 58.40 59.93
48.15 48.02 48.57 49.71 50.77 52.70 50.47 60.52 64.67 65.50 65.88 64.71 62.74 62.12 61.32 62.17 62.94 63.26 61.81 62.14 61.98 62.70 62.32 61.99 61.78 61.71 60.64 60.53 60.82 60.18 59.33 57.33
46.14 46.18 47.09 48.26 48.68 50.43 53.86 57.13 63.90 65.01 65.48 64.84 63.02 62.03 61.74 61.50 62.13 59.35 61.55 61.33 61.53 61.74 62.00 61.58 61.50 61.29 60.81 60.48 60.03 59.43 58.95 57.95
44.82 46.12 46.70 47.47 47.51 48.42 50.67 57.79 62.87 64.55 65.23 64.53 63.07 61.84 59.79 59.23 59.92 59.10 59.46 60.48 61.25 61.72 61.64 61.62 61.72 61.11 60.50 60.19 60.46 59.89 59.31 58.20
42.10 42.31 42.71 43.85 44.65 45.83 48.85 53.92 62.76 64.16 64.67 64.29 62.64 61.44 59.69 59.07 59.13 59.35 58.39 57.86 57.54 60.77 60.84 60.55 60.49 60.31 60.18 59.89 60.23 59.67 59.44 59.02
39.97 40.68 41.04 41.21 42.88 45.09 45.25 49.88 61.99 63.45 63.51 62.58 61.50 59.67 59.92 59.71 59.08 59.10 58.99 58.52 58.38 58.48 59.42 58.80 59.80 60.04 59.28 59.19 60.03 60.21 59.96 59.18
37.33 38.68 39.23 39.82 40.92 43.07 44.56 48.51 61.34 62.08 62.68 60.37 59.31 59.35 59.55 59.06 58.73 58.82 58.70 58.76 59.31 60.03 59.54 59.36 58.96 58.87 58.95 59.53 59.73 59.77 60.05 59.40
35.31 36.32 37.16 38.46 39.91 42.22 44.70 46.79 51.06 60.10 60.72 60.74 60.12 59.71 59.34 58.67 58.79 58.39 57.62 57.40 56.98 56.82 55.80 54.60 55.62 54.96 55.66 57.18 57.20 58.36 59.09 59.47
33.78 34.43 36.02 36.92 38.37 40.76 42.83 43.68 46.98 50.82 57.90 59.76 59.26 58.90 58.64 58.57 58.42 57.20 56.98 56.58 55.84 55.18 54.04 53.62 54.86 53.72 56.36 56.34 56.76 57.42 57.72 58.04
33.33 33.52 34.25 34.71 35.61 37.38 39.93 41.05 43.85 47.21 51.67 58.08 57.59 58.82 58.66 58.26 57.76 57.77 57.00 56.74 56.42 56.57 55.26 55.08 55.42 55.58 55.72 55.61 56.05 56.76 56.74 56.88
32.09 32.07 32.51 33.15 34.14 35.56 37.30 39.93 41.64 43.73 48.81 57.26 57.84 58.20 58.30 57.84 57.77 57.85 57.59 56.78 55.34 56.48 56.16 55.56 55.28 55.10 55.36 55.43 55.57 55.87 55.73 56.38
30.93 30.51 31.29 32.58 33.58 34.23 35.70 37.44 39.99 40.73 44.38 55.36 57.36 57.66 57.70 57.52 57.90 58.10 57.90 56.30 56.78 56.46 56.54 55.70 54.72 55.00 55.22 55.44 55.31 54.49 54.14 54.11
29.69 29.39 30.32 31.32 32.22 33.13 34.43 35.84 38.23 38.67 40.30 41.71 45.29 50.72 51.74 52.07 50.69 50.18 49.64 49.51 49.89 50.31 48.29 46.13 45.29 43.77 41.59 43.54 53.39 53.89 53.40 49.20
29.12 29.45 30.16 30.14 31.27 32.13 33.05 34.01 35.83 37.05 36.58 36.16 39.02 41.59 44.16 42.66 42.53 42.61 43.07 41.66 41.07 40.89 39.85 39.54 38.50 37.93 36.93 38.99 45.80 50.41 48.38 45.90
28.14 28.65 29.70 30.13 30.51 31.92 31.32 32.33 34.20 34.54 34.29 35.23 34.26 35.20 36.40 36.75 36.86 36.68 36.60 36.76 37.35 36.32 36.00 35.65 34.61 35.10 36.04 37.05 37.69 39.57 38.84 39.24
27.84 28.79 28.97 30.01 30.31 30.74 30.85 31.37 31.27 32.00 32.00 32.81 33.76 33.05 32.50 32.85 32.85 32.59 33.08 33.65 33.65 33.80 33.62 33.58 33.46 33.83 34.85 35.30 35.09 35.29 34.49 34.28

GFSFLT1_sfc_wetblb_102.txt.gz
Wetbulb
43.51 43.84 43.96 43.90 43.60 44.43 47.34 56.17 65.69 66.65 66.83 66.05 65.19 64.92 65.06 65.03 64.94 64.91 64.82 64.51 64.26 64.01 64.56 63.85 63.50 62.91 62.45 62.28 61.63 61.63 60.96 60.46
43.79 49.22 50.36 46.88 43.17 43.40 44.96 49.81 62.77 66.20 66.63 65.21 64.57 63.88 64.62 65.05 64.99 64.58 64.15 64.56 64.10 64.22 63.69 63.36 63.04 62.45 62.42 62.63 61.99 61.00 60.30 60.80
49.94 49.40 49.26 49.71 50.13 49.23 46.31 49.27 59.12 65.47 65.82 66.09 65.87 65.27 65.53 65.43 65.22 64.49 64.11 64.15 64.04 63.86 63.02 62.88 62.83 62.76 61.95 62.05 61.40 60.39 60.31 60.68
47.09 47.48 47.46 47.61 47.94 48.17 50.18 51.49 55.97 64.40 65.40 65.93 62.71 63.85 62.88 63.45 64.33 64.22 64.36 64.40 64.02 63.71 62.94 62.95 62.80 62.57 61.11 61.22 61.17 60.28 58.87 59.98
45.16 45.09 45.47 45.92 47.31 47.86 48.86 50.58 53.06 62.42 64.85 64.78 63.59 62.48 61.46 62.57 63.31 63.88 64.59 64.38 63.82 63.76 62.74 62.73 62.68 62.17 61.06 60.78 61.17 60.54 59.77 58.41
41.70 42.47 43.46 44.60 45.41 47.24 47.95 48.53 51.67 57.14 64.37 64.43 63.42 62.19 62.39 62.27 63.52 62.94 63.04 63.28 63.36 63.02 62.28 61.51 62.11 61.69 61.34 60.99 60.44 60.24 60.49 59.44
40.26 41.51 41.86 42.07 43.24 44.37 46.73 47.82 49.42 54.28 64.04 64.25 63.25 62.18 61.51 61.12 62.05 61.90 62.00 62.03 61.88 61.31 61.02 60.95 61.47 61.70 60.62 60.42 60.67 60.14 59.68 59.40
37.20 37.64 38.41 39.74 40.43 42.04 44.51 46.12 47.23 50.58 62.72 64.02 63.81 62.34 61.33 60.92 61.37 61.35 61.15 61.07 60.71 60.43 60.46 60.57 61.35 61.54 61.35 60.55 60.06 59.76 59.42 58.60
36.47 36.91 36.85 37.70 39.00 40.51 42.17 44.11 45.97 49.49 61.96 63.90 64.39 63.21 60.54 60.27 61.13 60.92 60.50 60.23 60.43 60.78 60.62 61.11 61.03 60.69 60.03 59.82 59.10 59.21 59.42 59.09
35.49 35.98 36.12 36.61 37.41 38.67 40.56 42.87 44.79 50.00 63.53 63.18 62.36 60.88 59.34 58.88 59.69 60.24 59.67 59.44 58.13 59.05 58.85 59.27 59.45 59.53 58.65 59.35 58.78 58.82 58.80 59.01
33.98 34.53 34.95 36.09 36.92 37.94 39.88 42.53 44.39 48.36 54.09 61.57 60.62 60.41 60.17 58.86 58.82 58.52 58.78 58.34 58.56 58.22 57.14 57.30 57.59 58.07 59.11 58.87 58.63 58.99 59.23 59.57
32.62 32.99 34.10 35.00 36.12 36.77 37.82 40.82 43.82 46.37 48.92 56.44 59.53 59.01 58.85 58.92 58.56 58.15 58.62 58.18 58.28 57.70 57.54 57.14 56.62 56.14 55.88 55.50 55.66 55.22 56.22 57.46
32.13 32.20 32.73 33.40 34.10 35.16 35.98 38.42 40.80 42.81 46.22 52.33 58.53 58.23 58.25 58.01 57.81 57.75 57.77 57.14 57.48 56.80 56.30 55.59 55.13 55.27 55.34 55.40 53.86 56.16 56.02 56.00
30.83 30.99 31.35 31.94 32.83 33.86 34.86 36.99 39.10 40.83 43.13 51.11 56.72 57.39 57.97 57.49 57.59 57.38 57.62 57.18 56.90 56.64 55.72 55.49 55.15 55.07 55.24 54.76 54.96 55.38 55.84 56.16
29.90 29.95 30.49 31.09 32.17 32.89 33.58 35.11 37.78 40.33 39.82 40.62 42.54 49.72 56.96 56.86 57.64 57.62 57.14 57.04 56.14 55.52 56.20 55.61 55.21 54.68 54.77 55.14 55.42 55.01 54.29 52.61
28.85 28.76 29.49 30.11 30.35 31.54 32.41 33.64 35.80 37.72 37.46 37.14 37.09 39.44 43.91 49.85 52.40 55.14 55.14 54.15 53.37 51.44 48.81 46.82 45.77 44.76 42.84 45.11 51.90 54.09 51.24 46.66
28.14 28.45 28.71 29.03 29.23 29.93 30.71 31.62 33.31 35.80 35.83 35.53 36.58 35.05 36.56 37.91 41.27 43.25 42.39 41.22 41.04 41.27 39.51 39.39 38.65 38.56 37.26 39.37 45.06 47.51 45.46 43.71
27.39 27.49 28.16 28.58 28.64 29.76 29.26 30.05 31.54 32.26 33.30 34.32 34.97 34.79 33.01 33.29 34.60 36.26 35.91 35.86 36.10 35.22 35.18 35.17 34.81 35.70 36.69 38.23 38.40 39.33 38.43 37.74
26.98 27.58 27.71 28.11 28.68 28.40 29.36 29.57 29.65 29.43 29.64 31.52 32.80 33.58 32.78 32.29 32.10 31.72 32.23 32.75 32.36 32.96 32.68 33.46 33.69 34.58 35.30 35.51 35.55 35.47 34.47 33.98

GFSFLT1_sfc_wetblb_105.txt.gz
Wetbulb
51.56 54.45 54.78 55.16 55.96 54.78 51.64 52.74 57.01 67.13 68.12 68.12 67.67 66.89 67.28 66.65 65.83 65.95 66.20 66.11 66.25 66.58 66.67 66.45 65.74 64.38 64.22 63.91 63.25 63.69 63.70 63.63
53.23 52.95 53.42 53.35 54.33 54.96 55.54 55.45 53.35 59.10 65.51 66.35 64.96 63.63 65.15 65.36 65.61 66.67 66.37 66.02 65.51 66.02 66.61 66.07 64.89 64.47 63.78 63.82 63.10 61.83 61.57 62.60
50.93 51.37 51.29 51.25 51.57 52.60 53.20 54.79 55.98 56.08 62.76 66.32 66.83 65.70 65.25 66.03 65.99 65.87 66.41 66.18 65.85 66.04 66.11 65.07 64.25 63.87 63.80 63.89 62.80 61.76 61.32 61.85
47.47 47.99 48.44 49.30 49.51 49.76 50.70 52.70 53.94 56.31 58.84 65.89 67.46 65.66 65.32 64.73 65.04 64.58 65.18 66.81 66.25 66.18 65.67 65.03 63.89 63.73 63.12 63.86 63.59 62.55 59.72 61.03
45.25 45.24 45.90 46.49 47.20 48.10 49.07 50.04 52.02 54.49 57.81 62.33 64.71 62.79 62.11 63.90 65.21 65.28 65.01 65.34 65.58 66.15 65.56 64.87 64.20 63.88 63.92 63.65 64.01 62.95 61.54 59.12
42.41 42.90 43.70 45.11 45.57 45.47 46.81 47.27 49.42 52.75 54.98 58.57 64.19 64.13 65.01 66.37 66.28 66.38 65.60 65.07 65.60 65.40 65.29 64.92 65.01 64.37 63.95 63.57 63.32 62.36 61.87 60.33
41.50 42.34 42.79 43.48 44.59 44.22 43.58 44.31 46.35 49.47 52.31 56.14 62.00 64.24 64.53 64.10 65.17 65.15 64.67 63.79 64.01 64.80 64.53 64.35 64.80 63.72 63.91 64.39 62.75 62.43 61.41 61.05
39.66 39.39 40.01 40.80 40.62 40.48 41.20 42.20 43.27 46.71 49.71 54.33 59.90 63.48 63.80 64.45 64.74 65.22 63.62 62.49 62.79 63.03 63.80 63.91 64.01 63.50 63.88 64.19 62.22 61.87 61.50 60.67
38.32 38.32 38.33 38.65 37.70 38.13 39.27 40.09 41.51 45.50 48.15 51.88 60.52 63.43 63.46 64.62 65.24 65.09 64.01 62.24 62.31 63.55 63.44 64.02 64.14 63.34 62.98 64.03 63.79 62.88 61.28 60.38
35.75 37.16 37.13 37.37 36.33 37.00 38.00 38.81 40.93 43.98 47.83 50.89 63.09 63.66 62.95 62.57 64.31 65.54 63.92 63.07 62.48 62.47 62.90 63.03 63.00 62.15 62.51 62.82 61.30 61.63 62.57 60.44
35.02 35.72 35.15 36.39 35.64 36.47 37.47 38.69 40.08 43.01 46.14 49.52 59.30 63.14 62.76 62.29 62.61 63.51 63.29 63.01 62.55 61.49 61.75 62.25 61.34 61.83 62.05 61.12 60.84 61.76 59.23 59.45
34.25 33.95 34.66 34.54 34.84 35.33 35.93 37.16 38.65 41.03 43.12 47.21 52.36 60.60 61.22 60.69 60.58 61.23 61.05 60.97 60.75 60.77 60.91 60.19 60.51 60.89 61.64 60.80 61.30 58.70 58.74 58.62
32.86 32.87 33.09 32.82 32.82 33.55 34.35 35.73 37.08 40.06 42.04 45.45 55.50 59.59 59.58 59.26 59.32 59.51 59.83 59.89 60.45 59.74 59.80 59.09 59.29 59.31 59.38 58.70 57.49 57.23 57.21 58.09
31.36 31.65 31.29 31.15 31.33 32.19 32.95 34.24 35.81 38.62 40.54 41.79 45.80 47.64 56.12 58.95 58.74 58.46 58.70 58.48 58.34 58.94 58.36 57.89 57.46 56.95 56.63 56.63 56.92 57.64 58.51 58.58
30.15 30.34 30.30 30.36 30.62 31.00 31.36 32.59 34.52 37.43 38.96 39.27 38.78 40.44 42.57 47.98 58.63 58.58 58.10 57.97 57.65 57.57 57.86 57.23 56.67 56.59 56.50 56.65 56.50 57.20 56.91 54.97
28.91 28.60 29.45 29.58 29.36 29.65 30.56 31.53 32.62 34.74 36.90 37.13 36.68 37.28 37.78 39.26 42.13 47.50 56.88 57.74 55.82 56.81 53.40 49.33 48.91 48.67 45.45 53.17 56.70 56.36 51.57 47.10
27.91 28.33 28.49 28.47 28.30 28.29 29.23 30.14 30.96 32.72 33.66 34.86 36.29 36.41 35.39 34.78 35.67 37.72 39.54 40.56 41.12 41.42 39.92 39.71 39.76 39.26 37.28 38.89 46.41 49.31 47.01 44.86
26.87 27.40 28.11 28.42 28.17 28.66 27.93 29.12 30.18 30.27 30.81 32.03 33.56 34.85 34.94 33.43 33.22 32.90 33.46 34.16 35.36 35.15 35.51 35.58 35.08 36.00 36.38 37.59 38.76 41.66 39.97 39.43
26.92 27.64 27.56 28.36 28.39 28.42 28.93 28.86 28.37 27.89 28.24 29.28 30.47 32.03 33.04 33.68 32.80 31.46 31.54 32.12 31.97 32.59 33.04 33.64 33.94 34.62 35.09 35.13 35.27 35.66 34.62 34.76

GFSFLT1_sfc_wetblb_108.txt.gz
Wetbulb
55.77 57.02 58.31 59.04 59.77 60.42 61.08 61.59 61.44 59.17 63.19 67.95 68.84 69.88 70.47 70.98 70.50 70.00 69.60 69.38 68.89 68.43 68.31 68.86 67.67 67.12 67.81 67.73 66.79 67.06 66.49 65.96
56.16 56.88 57.46 57.88 58.54 58.56 58.96 59.73 61.14 61.54 58.11 62.85 65.67 66.24 67.73 68.72 70.19 70.24 69.49 69.27 68.29 67.70 67.61 67.64 66.79 66.14 66.41 66.73 66.77 65.23 65.13 65.66
54.06 54.87 55.74 55.68 55.93 56.55 56.73 57.53 58.84 60.06 60.97 59.78 64.67 66.47 67.10 67.58 68.86 69.46 68.78 68.08 68.08 67.36 67.68 66.74 66.59 66.44 66.15 65.79 64.95 63.25 64.20 65.35
51.91 52.01 52.96 54.07 54.05 54.26 54.27 55.43 56.25 57.53 59.48 61.00 61.47 65.93 67.12 66.45 66.66 67.48 67.68 68.33 67.67 67.10 67.18 67.14 66.65 66.92 65.69 65.72 64.53 63.73 61.40 62.74
50.07 50.13 50.72 51.34 52.08 53.13 53.52 53.80 54.27 55.20 57.39 58.70 60.32 61.25 63.58 65.70 66.17 66.72 66.25 67.10 68.25 67.61 67.36 67.46 67.61 66.72 65.95 66.23 65.04 65.59 64.54 61.00
48.16 48.49 49.09 50.18 50.99 50.92 51.38 51.54 52.08 53.15 53.87 54.22 56.07 59.54 64.41 66.11 66.21 65.96 65.51 65.79 66.78 67.42 67.94 67.60 66.95 66.39 66.11 66.02 65.18 65.75 66.11 64.33
47.84 48.39 48.49 48.61 49.16 48.93 48.86 48.42 48.99 50.48 50.19 51.29 52.82 55.37 60.67 64.82 65.70 65.29 64.52 65.17 65.00 66.01 66.92 67.31 67.53 66.00 65.11 65.50 66.67 66.82 65.40 65.55
45.77 44.87 45.26 45.97 46.12 46.16 45.39 44.30 44.21 46.32 45.98 47.73 50.48 51.87 58.31 61.48 65.51 65.73 64.88 64.69 63.91 64.71 65.47 65.87 65.78 65.83 66.83 66.73 67.13 66.42 66.00 65.19
44.63 43.90 44.17 43.93 44.04 43.66 42.10 39.76 40.09 41.99 42.77 45.09 47.79 49.70 53.75 61.94 64.38 63.55 65.16 65.17 63.92 64.78 64.86 65.62 65.67 66.33 65.77 66.33 66.06 65.84 65.72 65.50
42.92 42.86 42.65 41.82 41.55 41.40 37.72 37.54 38.17 39.89 41.38 43.77 46.14 48.92 52.93 62.47 66.19 64.30 64.32 66.37 64.97 64.60 64.67 64.31 65.04 64.82 64.04 65.06 64.92 64.89 64.34 64.60
41.78 41.83 41.19 39.53 39.09 38.39 37.03 37.00 37.03 38.38 40.85 42.97 45.80 47.71 53.53 64.10 66.01 64.57 64.03 66.49 65.70 65.01 64.66 63.64 63.62 63.45 63.14 63.96 64.38 64.29 62.95 63.85
40.48 40.53 40.50 39.20 38.71 36.97 35.68 35.00 35.23 36.97 39.70 42.01 44.69 51.02 62.27 64.19 64.31 64.77 64.48 65.29 64.68 64.23 63.68 62.37 62.48 62.45 62.32 62.44 62.53 62.99 62.60 62.76
39.69 39.50 38.82 37.30 36.84 35.92 33.30 33.21 33.01 35.62 38.49 41.57 44.20 48.92 54.50 60.80 62.06 63.56 63.90 62.91 62.92 61.93 62.12 61.35 61.38 61.82 62.11 62.11 61.98 62.12 61.71 61.49
38.17 37.53 36.31 33.53 33.18 31.70 31.37 32.30 33.09 34.49 37.33 40.24 41.28 43.32 45.32 48.91 59.27 60.49 60.86 60.84 60.71 60.75 60.61 60.50 60.66 61.02 60.90 61.90 61.48 60.86 60.95 61.02
34.96 35.43 34.87 32.50 31.19 30.61 30.42 31.25 32.49 33.75 35.61 36.90 38.07 39.31 41.79 43.27 46.22 52.08 58.59 58.91 59.17 59.41 59.71 60.03 60.05 60.11 60.58 60.62 59.41 58.76 58.89 58.45
32.02 32.94 33.16 31.53 30.55 30.22 30.05 30.25 31.19 32.39 32.84 33.32 35.14 38.08 37.99 37.65 39.07 40.27 43.07 49.14 56.27 57.78 57.59 57.25 55.10 55.69 53.70 59.16 59.10 58.75 56.59 53.45
30.46 31.32 31.65 30.59 30.30 29.59 29.36 29.70 29.92 31.20 30.90 31.15 32.48 35.03 35.95 35.86 35.78 36.40 36.47 37.46 39.47 40.80 42.28 43.63 42.63 40.78 38.35 40.03 53.29 55.59 50.72 48.38
29.28 29.82 30.41 30.48 30.28 30.57 29.52 29.70 30.17 29.49 29.27 30.38 31.01 32.69 32.91 33.75 33.84 33.17 33.27 33.30 34.65 35.10 35.63 36.07 36.42 36.98 37.34 38.35 39.36 42.57 40.97 40.43
29.00 29.91 29.86 30.34 30.83 30.25 31.13 31.03 29.88 29.06 28.55 29.06 30.04 30.50 30.94 32.19 32.45 31.49 31.31 30.66 31.52 31.85 32.09 32.92 33.47 34.30 35.14 35.38 35.06 34.91 34.15 34.39

GFSFLT1_sfc_wetblb_111.txt.gz
Wetbulb
56.42 57.90 59.01 59.49 60.28 60.95 61.18 61.86 62.73 63.66 63.06 62.93 66.76 68.34 70.25 71.62 71.86 71.92 72.80 71.88 72.17 72.59 71.44 70.64 70.44 69.39 69.55 69.94 69.12 69.02 68.63 67.85
56.99 58.10 58.83 59.39 60.01 59.89 59.86 59.89 60.88 61.67 61.72 61.38 60.42 65.46 67.73 69.64 70.63 72.37 73.09 72.11 71.66 71.77 71.02 69.79 69.74 67.67 68.83 67.77 68.27 66.62 66.54 68.18
55.37 56.00 56.88 57.36 57.30 57.70 57.60 58.23 59.12 59.69 60.28 61.56 62.31 62.48 65.22 67.11 69.50 70.46 71.93 72.60 71.63 70.73 70.67 69.26 69.69 67.50 67.09 66.65 66.43 65.26 65.88 67.26
53.26 53.44 54.65 55.46 55.35 55.46 55.61 56.42 57.14 57.80 58.78 59.60 61.28 62.67 62.94 65.25 67.13 67.46 69.82 71.84 71.90 70.41 68.66 69.74 69.88 67.67 66.02 66.51 65.98 64.95 63.61 65.18
52.38 52.65 53.17 53.62 54.15 54.94 54.69 55.06 55.11 55.69 56.99 56.94 57.59 57.97 59.47 61.84 66.32 67.12 68.57 70.16 70.32 70.07 69.89 68.22 70.13 68.05 67.15 66.24 66.12 66.24 65.75 61.48
51.43 51.79 51.91 52.57 53.27 53.03 53.35 53.00 53.12 53.59 53.70 54.94 54.73 55.36 57.65 61.07 63.72 67.13 68.23 68.89 69.56 67.37 67.81 68.38 69.14 68.57 68.14 67.26 65.71 66.25 65.96 64.38
51.11 51.14 51.19 51.33 51.94 51.46 51.37 50.46 50.02 50.82 50.46 50.64 50.18 50.41 52.69 55.96 59.82 62.74 67.40 67.80 68.62 67.07 66.84 66.40 68.18 68.32 66.68 67.68 67.77 66.55 66.73 65.70
49.52 49.09 48.92 49.03 48.71 49.09 48.90 47.97 46.54 47.42 47.20 47.46 47.08 47.65 49.77 51.53 55.64 60.71 63.41 66.23 67.17 66.78 65.39 65.90 66.13 66.67 67.05 68.26 67.33 64.64 66.96 65.92
47.91 47.66 47.73 47.54 46.87 47.06 46.24 44.85 43.55 44.04 44.32 44.26 43.98 44.13 46.66 49.62 53.77 58.10 62.46 65.97 67.09 67.92 65.24 65.57 66.24 66.36 67.23 67.65 67.35 65.59 65.56 65.94
46.61 46.88 46.80 46.19 45.59 45.07 43.74 41.88 41.05 41.55 41.52 41.67 41.47 43.09 44.71 46.99 50.52 55.83 60.66 65.67 66.82 67.71 66.04 64.82 65.20 65.50 65.64 66.58 66.63 67.01 65.83 65.09
45.68 45.75 45.35 45.01 44.38 43.84 42.61 40.88 39.44 39.38 39.84 38.70 39.71 41.53 44.09 46.49 48.71 52.11 59.61 65.81 66.72 67.05 66.96 65.00 64.35 64.73 64.69 65.30 65.78 66.05 66.36 65.14
44.29 44.30 44.15 43.64 42.18 41.46 39.89 37.44 37.57 36.64 36.51 36.77 38.80 41.84 44.70 47.91 53.61 55.77 62.14 65.15 66.01 65.48 65.21 64.51 63.98 64.35 63.90 64.04 64.51 64.70 63.85 62.99
43.48 43.04 42.55 41.01 38.85 38.34 36.54 35.31 34.71 33.96 34.65 35.51 38.19 41.38 43.08 46.49 50.23 59.86 62.74 64.10 65.35 65.35 64.90 63.57 63.24 63.05 62.88 63.19 63.75 64.36 62.97 62.29
41.42 41.23 40.07 38.14 37.11 36.41 34.80 33.92 32.57 32.39 32.54 34.64 36.33 38.91 39.86 41.25 45.06 49.32 51.83 62.39 63.51 63.22 63.31 63.21 62.47 62.20 61.81 62.97 64.33 63.38 62.14 62.16
38.26 38.64 38.26 36.68 36.07 34.97 33.42 32.25 32.08 31.80 32.46 33.63 33.59 34.83 37.32 38.92 41.32 42.84 45.77 48.93 58.66 60.51 61.32 61.20 61.31 61.24 61.13 61.99 62.72 62.99 61.75 61.75
35.28 35.05 34.60 35.36 34.01 32.96 33.34 32.02 31.24 31.43 31.31 31.87 31.55 33.80 35.37 36.79 37.40 38.00 39.10 41.15 42.23 44.90 52.20 52.75 56.82 58.09 57.76 60.62 61.36 61.51 58.69 56.32
32.80 32.57 32.68 31.93 31.42 31.71 32.52 32.63 31.17 31.72 30.65 30.67 31.53 32.50 32.86 33.77 34.87 34.80 34.44 35.40 35.98 37.26 36.89 38.64 40.65 43.96 43.13 48.38 55.57 57.29 55.59 51.57
30.57 30.58 30.90 30.63 31.00 31.93 31.42 32.62 32.89 31.54 30.84 30.93 31.17 31.58 31.07 31.29 33.01 32.20 31.92 31.98 33.10 33.70 35.41 35.02 34.46 37.34 39.35 42.59 42.03 43.09 41.59 41.23
29.36 29.63 30.31 30.96 31.72 31.54 32.26 32.47 32.45 32.07 31.03 31.03 31.11 31.39 30.77 30.38 29.74 29.50 30.55 30.37 29.34 29.64 30.55 32.90 33.46 32.85 34.13 35.12 35.38 35.30 34.08 34.08

GFSFLT1_sfc_wetblb_114.txt.gz
Wetbulb
56.54 57.76 58.78 59.11 59.97 60.52 60.65 60.78 61.78 62.31 62.50 63.09 61.30 60.63 67.43 69.55 69.55 69.12 69.57 69.94 69.97 69.88 69.42 69.18 68.53 67.84 67.54 67.61 66.57 66.82 66.05 65.69
57.24 58.01 58.65 58.54 59.11 58.47 58.32 58.91 60.29 59.80 59.65 59.34 59.93 59.15 61.28 65.96 68.52 69.44 69.88 69.76 69.78 69.42 68.86 69.18 68.14 67.30 67.02 67.02 66.77 65.54 65.20 65.82
55.30 55.77 56.21 56.16 56.11 56.12 56.12 56.10 56.71 56.98 57.32 57.45 58.44 58.97 60.22 61.34 61.51 64.32 68.69 69.58 69.55 69.60 69.01 68.63 68.48 66.97 66.23 66.56 66.56 64.45 64.98 65.43
53.23 53.40 54.10 54.96 54.97 54.53 53.93 54.28 54.43 55.11 55.99 55.67 56.51 57.91 59.04 60.17 60.27 61.09 66.27 67.51 69.75 68.71 68.70 68.27 67.63 67.03 65.66 65.63 66.48 64.39 63.18 64.45
52.14 52.15 52.33 52.70 53.02 53.67 53.10 53.03 52.65 53.01 52.96 52.47 52.61 52.84 52.86 56.12 57.67 60.03 61.73 65.20 66.22 68.43 67.83 68.22 67.54 67.31 65.61 65.08 66.19 65.49 64.25 62.16
50.42 50.35 50.65 51.62 51.75 51.16 51.42 51.28 50.93 50.75 50.40 50.41 49.63 49.81 50.98 52.50 53.46 54.99 57.45 60.87 64.12 67.46 67.64 67.59 67.29 67.47 66.74 65.13 64.86 65.18 64.50 62.90
50.32 50.54 50.54 49.82 49.96 49.48 49.53 48.56 48.13 48.34 47.67 47.65 47.19 47.20 47.29 48.18 49.77 51.22 53.75 57.26 61.06 65.25 66.78 67.00 66.52 66.33 66.25 65.86 65.66 65.03 64.33 64.21
47.65 47.10 47.07 47.61 47.38 47.23 46.95 46.26 44.81 45.14 44.88 44.89 45.03 44.79 45.03 44.88 46.22 48.69 50.62 53.37 56.58 61.15 65.10 65.62 65.78 66.21 66.41 66.50 66.12 65.02 64.80 63.78
46.05 46.22 46.32 45.98 45.93 45.34 44.74 42.82 41.77 42.10 41.90 41.61 42.28 42.43 42.67 43.61 44.66 46.39 48.60 51.60 54.65 58.57 63.65 64.40 65.02 65.09 65.24 65.85 65.62 65.50 65.22 64.23
44.45 45.06 45.20 44.54 43.93 43.06 42.12 40.79 39.64 39.63 39.59 39.60 39.58 40.29 40.78 41.45 42.82 44.66 46.34 48.89 52.20 55.54 59.26 64.05 64.69 64.92 64.61 65.12 65.09 64.81 64.65 63.85
43.43 43.72 43.69 43.38 42.43 41.23 40.31 39.59 37.97 37.33 37.44 37.41 37.85 39.02 39.92 41.39 43.44 44.20 45.86 47.48 50.10 53.47 56.68 62.67 64.74 64.72 64.72 64.96 64.61 64.32 63.60 63.87
42.10 42.45 42.86 41.78 40.43 39.24 37.84 37.06 36.06 34.75 34.95 35.20 36.13 38.19 39.04 41.30 42.31 43.91 46.53 49.47 50.61 51.98 56.15 61.54 63.81 63.70 64.28 64.22 64.01 63.72 63.26 63.37
41.18 41.08 40.80 39.49 37.92 36.90 35.98 35.05 33.83 33.32 33.36 34.38 35.31 36.72 37.23 38.98 40.20 42.50 45.43 48.75 55.74 54.26 57.60 61.94 62.80 63.22 63.23 63.54 63.20 63.27 62.92 62.02
39.09 38.79 37.88 36.96 35.84 34.81 34.61 34.80 33.09 32.64 32.74 33.47 34.18 34.43 35.26 36.32 38.57 40.28 41.63 46.47 49.57 57.29 61.24 61.34 62.03 62.56 62.58 63.43 63.42 63.12 63.13 62.62
36.26 35.72 35.01 34.02 33.71 33.35 33.21 33.75 33.69 32.73 32.42 32.64 32.52 33.17 33.72 34.63 36.64 37.22 37.95 40.28 42.09 43.86 53.30 59.40 61.26 62.12 62.39 62.65 62.66 62.49 62.48 61.94
33.69 32.70 32.25 31.65 31.43 32.18 32.81 32.98 33.66 33.24 32.31 31.93 31.82 32.61 33.03 33.56 34.12 34.52 34.63 34.44 37.37 39.70 39.67 40.86 43.96 46.76 49.53 59.18 61.96 62.05 61.26 55.98
31.29 31.19 30.85 30.04 30.56 31.24 31.59 31.84 32.25 33.18 32.66 31.75 32.09 32.13 31.51 31.08 31.59 31.79 32.45 32.51 32.17 34.08 35.99 37.33 36.57 36.98 37.80 42.80 56.50 59.95 54.10 48.28
29.14 29.32 30.18 29.91 30.34 31.19 30.53 31.24 32.61 32.40 31.95 32.08 31.93 32.22 31.11 30.41 29.91 29.44 28.88 29.53 30.64 30.15 31.44 33.91 34.66 35.14 35.88 39.28 41.20 44.54 44.50 45.03
28.43 28.99 29.32 29.91 30.89 31.12 31.62 31.66 31.35 31.15 31.14 31.32 31.95 31.96 31.64 31.44 30.46 29.03 28.10 28.10 27.70 27.88 28.68 30.17 31.73 33.89 36.42 35.59 35.00 35.25 35.26 34.11

GFSFLT1_sfc_wetblb_117.txt.gz
Wetbulb
54.18 54.45 54.71 54.35 54.09 54.18 54.70 55.91 55.80 56.17 56.66 57.28 58.20 58.17 57.92 60.93 65.89 66.40 67.81 68.64 68.11 68.77 68.48 67.85 66.62 66.20 65.81 66.42 66.22 64.47 64.16 63.93
53.68 53.09 52.49 52.32 52.05 52.19 52.37 52.44 52.66 53.29 53.05 52.43 53.56 54.17 56.09 57.86 59.18 61.21 62.47 67.73 68.04 67.63 67.55 66.73 66.91 66.48 66.29 65.10 63.83 64.75 62.76 63.92
51.46 51.21 50.25 50.17 50.07 50.23 50.54 50.62 50.77 51.42 51.07 51.58 52.15 52.72 54.41 55.76 58.08 58.57 60.21 60.97 65.24 67.08 67.34 67.05 67.49 66.04 64.39 65.06 63.95 61.40 63.14 64.53
49.70 49.57 47.69 48.01 47.85 47.79 48.86 48.86 48.64 49.28 49.36 49.61 49.99 50.83 51.67 52.38 53.36 54.80 56.27 57.51 60.10 64.19 66.83 66.90 66.83 66.53 65.00 64.86 64.31 63.21 62.76 62.36
47.47 46.60 46.01 46.11 45.41 46.92 47.15 47.66 47.02 47.83 46.98 46.14 45.39 45.77 46.12 48.19 48.91 50.30 51.35 53.56 55.59 58.14 61.29 65.55 66.28 66.30 65.44 64.82 65.37 64.91 63.95 61.95
45.10 45.13 45.04 44.83 44.74 44.44 44.40 44.86 44.93 44.35 43.91 44.07 43.49 43.22 44.50 46.18 47.10 47.11 48.41 50.48 52.38 54.34 57.18 59.82 64.77 65.17 64.93 64.71 63.62 64.75 63.90 62.47
44.76 44.91 44.75 43.31 43.25 42.71 42.14 42.08 41.93 42.00 41.70 41.61 41.20 40.37 40.93 41.88 42.70 43.17 44.96 47.59 49.71 51.76 54.77 57.44 61.53 64.81 65.00 64.19 63.74 63.50 64.91 64.51
42.85 42.11 41.46 41.39 40.11 39.76 40.81 39.57 39.00 39.35 39.06 39.37 39.81 40.04 40.26 40.39 41.60 42.70 43.21 44.22 46.37 48.99 51.71 54.09 57.98 62.73 64.77 65.26 63.80 63.33 64.02 64.07
41.25 40.14 39.72 39.07 38.72 37.54 36.69 36.72 36.72 37.05 36.71 36.50 37.91 38.19 38.85 39.23 39.90 41.07 42.28 43.62 44.87 46.69 48.28 51.09 53.54 56.15 63.19 64.13 64.07 63.82 64.25 64.31
40.37 39.76 39.04 37.68 36.87 36.31 35.29 35.10 35.00 35.22 34.56 34.60 34.96 36.14 36.83 37.51 39.31 40.46 41.11 42.80 44.65 45.70 47.05 48.72 51.47 54.42 59.53 62.95 62.71 62.47 64.44 64.59
39.45 38.28 37.52 36.74 36.21 35.67 35.40 34.86 33.69 33.56 33.31 33.58 34.59 35.52 36.76 37.85 38.51 39.07 41.07 42.84 44.34 45.27 45.91 47.27 49.46 53.10 57.50 62.11 60.57 62.38 62.75 63.82
36.85 37.05 36.75 35.64 35.17 34.37 34.00 34.13 33.42 32.40 32.59 33.36 34.15 35.30 36.53 37.00 37.75 39.08 40.90 42.10 43.66 45.07 47.41 48.91 49.47 50.93 55.00 61.70 61.04 61.34 61.42 62.38
35.59 35.00 34.46 33.73 32.90 32.87 32.62 32.30 32.30 32.38 32.58 33.79 34.33 35.26 35.70 35.75 36.41 37.60 39.72 39.90 41.69 44.25 47.99 50.68 50.97 51.13 54.58 61.11 62.10 61.87 61.14 61.82
33.45 32.81 32.19 31.74 31.83 31.99 32.09 31.35 32.05 32.18 32.98 33.19 33.58 33.84 33.97 33.93 35.06 36.38 36.98 37.68 39.54 41.84 42.83 47.50 52.84 53.37 54.89 60.57 61.38 62.58 62.13 61.90
31.93 30.93 30.91 31.07 31.10 30.93 31.17 30.62 32.48 32.08 33.05 32.90 32.55 32.87 32.71 32.64 33.16 33.68 34.62 35.59 36.11 37.22 40.74 41.21 44.67 47.74 55.58 60.31 60.29 60.54 60.80 61.76
30.28 29.65 29.38 29.41 29.98 30.22 30.15 30.42 31.61 32.53 32.09 32.46 32.11 32.89 32.74 31.92 31.17 31.44 31.80 33.22 33.99 34.28 35.63 37.39 38.31 38.81 42.62 48.89 56.69 60.11 60.39 57.01
29.00 28.93 28.63 28.75 29.65 29.56 29.72 29.94 30.48 32.10 31.57 31.26 31.91 32.43 32.41 31.90 31.01 30.27 29.99 29.88 31.02 32.06 31.47 33.24 34.53 35.79 37.04 40.82 50.58 58.00 52.59 46.67
26.94 27.26 27.88 28.56 28.92 29.84 28.92 29.84 31.19 30.60 30.19 30.69 31.18 31.78 31.48 31.79 31.54 30.49 29.25 29.12 29.50 29.41 29.96 30.96 31.36 32.74 34.31 35.56 36.50 37.13 37.50 40.15
25.42 26.22 27.52 28.56 29.57 30.24 30.71 30.73 29.86 29.18 28.57 29.39 29.72 29.91 30.60 30.52 30.82 30.11 29.25 28.90 28.35 28.79 28.87 29.54 29.63 31.02 33.42 33.27 32.90 33.29 32.14 33.30